<?xml version="1.0" encoding="UTF-8" standalone="no" ?>
<gpx xmlns="http://www.topografix.com/GPX/1/1" xmlns:xsi="http://www.w3.org/2001/XMLSchema-instance" xsi:schemaLocation="http://www.topografix.com/GPX/1/1 http://www.topografix.com/GPX/1/1/gpx.xsd" version="1.1" creator="VisuGPX - https://www.visugpx.com">
  <metadata>
    <name>Hauts du Canton d'Olonzac</name>
    <desc><![CDATA[Départ en haut du col de Saint André pour une courte balade sur les crêtes qui dominent Masnaguine hameau de Cassagnoles. Des sommets déserts qui attestent et montrent comment vient le désert... un pâturage intensif, des incendies et le déboisement pratiqué(une énergie pas chère qui suffisait pour le bien de tous mais qui n'a pas résisté à  l'avidité de quelques uns qui ont détruit la forêt). - sur la photo, juste un arbre; l'artiste aime aussi les fleurs... 
Photos:
http://vttolonzac.blogspot.fr/2012/03/hauts-du-canton-dolonzac.html]]></desc>
  </metadata>
  <trk>
    <name><![CDATA[26-MARS-12 16:58:01]]></name>
    <trkseg>
      <trkpt lat="43.38712" lon="2.60056">
        <ele>514.92</ele>
        <time>2012-03-26T12:10:23Z</time>
      </trkpt>
      <trkpt lat="43.38712" lon="2.60055">
        <ele>499.54</ele>
        <time>2012-03-26T12:10:24Z</time>
      </trkpt>
      <trkpt lat="43.38712" lon="2.60055">
        <ele>493.77</ele>
        <time>2012-03-26T12:10:26Z</time>
      </trkpt>
      <trkpt lat="43.38712" lon="2.60055">
        <ele>514.92</ele>
        <time>2012-03-26T12:10:27Z</time>
      </trkpt>
      <trkpt lat="43.38712" lon="2.60055">
        <ele>521.17</ele>
        <time>2012-03-26T12:10:28Z</time>
      </trkpt>
      <trkpt lat="43.38712" lon="2.60055">
        <ele>519.25</ele>
        <time>2012-03-26T12:10:29Z</time>
      </trkpt>
      <trkpt lat="43.38711" lon="2.60055">
        <ele>525.5</ele>
        <time>2012-03-26T12:10:31Z</time>
      </trkpt>
      <trkpt lat="43.3871" lon="2.60055">
        <ele>528.86</ele>
        <time>2012-03-26T12:10:32Z</time>
      </trkpt>
      <trkpt lat="43.3871" lon="2.60055">
        <ele>532.71</ele>
        <time>2012-03-26T12:10:33Z</time>
      </trkpt>
      <trkpt lat="43.3871" lon="2.60054">
        <ele>535.59</ele>
        <time>2012-03-26T12:10:34Z</time>
      </trkpt>
      <trkpt lat="43.3871" lon="2.60055">
        <ele>538.96</ele>
        <time>2012-03-26T12:10:35Z</time>
      </trkpt>
      <trkpt lat="43.38709" lon="2.60055">
        <ele>545.2</ele>
        <time>2012-03-26T12:10:37Z</time>
      </trkpt>
      <trkpt lat="43.3871" lon="2.60055">
        <ele>550.01</ele>
        <time>2012-03-26T12:10:38Z</time>
      </trkpt>
      <trkpt lat="43.3871" lon="2.60055">
        <ele>554.82</ele>
        <time>2012-03-26T12:10:40Z</time>
      </trkpt>
      <trkpt lat="43.3871" lon="2.60055">
        <ele>553.86</ele>
        <time>2012-03-26T12:10:41Z</time>
      </trkpt>
      <trkpt lat="43.3871" lon="2.60055">
        <ele>559.62</ele>
        <time>2012-03-26T12:10:42Z</time>
      </trkpt>
      <trkpt lat="43.3871" lon="2.60055">
        <ele>563.95</ele>
        <time>2012-03-26T12:10:43Z</time>
      </trkpt>
      <trkpt lat="43.38709" lon="2.60055">
        <ele>563.95</ele>
        <time>2012-03-26T12:10:44Z</time>
      </trkpt>
      <trkpt lat="43.38709" lon="2.60054">
        <ele>571.64</ele>
        <time>2012-03-26T12:10:46Z</time>
      </trkpt>
      <trkpt lat="43.3871" lon="2.60054">
        <ele>575.97</ele>
        <time>2012-03-26T12:10:48Z</time>
      </trkpt>
      <trkpt lat="43.3871" lon="2.60054">
        <ele>581.25</ele>
        <time>2012-03-26T12:10:51Z</time>
      </trkpt>
      <trkpt lat="43.3871" lon="2.60055">
        <ele>584.62</ele>
        <time>2012-03-26T12:10:53Z</time>
      </trkpt>
      <trkpt lat="43.38709" lon="2.60055">
        <ele>588.46</ele>
        <time>2012-03-26T12:10:55Z</time>
      </trkpt>
      <trkpt lat="43.38709" lon="2.60055">
        <ele>592.31</ele>
        <time>2012-03-26T12:10:57Z</time>
      </trkpt>
      <trkpt lat="43.38709" lon="2.60055">
        <ele>595.67</ele>
        <time>2012-03-26T12:11:00Z</time>
      </trkpt>
      <trkpt lat="43.38709" lon="2.60056">
        <ele>599.04</ele>
        <time>2012-03-26T12:11:03Z</time>
      </trkpt>
      <trkpt lat="43.38709" lon="2.60055">
        <ele>605.77</ele>
        <time>2012-03-26T12:11:05Z</time>
      </trkpt>
      <trkpt lat="43.38709" lon="2.60055">
        <ele>603.85</ele>
        <time>2012-03-26T12:11:06Z</time>
      </trkpt>
      <trkpt lat="43.38708" lon="2.60054">
        <ele>607.21</ele>
        <time>2012-03-26T12:11:09Z</time>
      </trkpt>
      <trkpt lat="43.38708" lon="2.60053">
        <ele>610.57</ele>
        <time>2012-03-26T12:11:13Z</time>
      </trkpt>
      <trkpt lat="43.38708" lon="2.60053">
        <ele>611.06</ele>
        <time>2012-03-26T12:11:15Z</time>
      </trkpt>
      <trkpt lat="43.38708" lon="2.60053">
        <ele>614.42</ele>
        <time>2012-03-26T12:11:16Z</time>
      </trkpt>
      <trkpt lat="43.38708" lon="2.60053">
        <ele>617.78</ele>
        <time>2012-03-26T12:11:19Z</time>
      </trkpt>
      <trkpt lat="43.38709" lon="2.60053">
        <ele>616.34</ele>
        <time>2012-03-26T12:11:22Z</time>
      </trkpt>
      <trkpt lat="43.38709" lon="2.60053">
        <ele>619.23</ele>
        <time>2012-03-26T12:11:24Z</time>
      </trkpt>
      <trkpt lat="43.38709" lon="2.60053">
        <ele>624.51</ele>
        <time>2012-03-26T12:11:25Z</time>
      </trkpt>
      <trkpt lat="43.3871" lon="2.60053">
        <ele>620.67</ele>
        <time>2012-03-26T12:11:26Z</time>
      </trkpt>
      <trkpt lat="43.3871" lon="2.60053">
        <ele>624.03</ele>
        <time>2012-03-26T12:11:32Z</time>
      </trkpt>
      <trkpt lat="43.38711" lon="2.60052">
        <ele>630.28</ele>
        <time>2012-03-26T12:11:41Z</time>
      </trkpt>
      <trkpt lat="43.38711" lon="2.60053">
        <ele>624.99</ele>
        <time>2012-03-26T12:11:42Z</time>
      </trkpt>
      <trkpt lat="43.3871" lon="2.60053">
        <ele>628.36</ele>
        <time>2012-03-26T12:11:45Z</time>
      </trkpt>
      <trkpt lat="43.3871" lon="2.60053">
        <ele>629.32</ele>
        <time>2012-03-26T12:11:47Z</time>
      </trkpt>
      <trkpt lat="43.38712" lon="2.60052">
        <ele>632.2</ele>
        <time>2012-03-26T12:12:09Z</time>
      </trkpt>
      <trkpt lat="43.38712" lon="2.60052">
        <ele>634.13</ele>
        <time>2012-03-26T12:12:32Z</time>
      </trkpt>
      <trkpt lat="43.38711" lon="2.60052">
        <ele>634.61</ele>
        <time>2012-03-26T12:12:47Z</time>
      </trkpt>
      <trkpt lat="43.38712" lon="2.60052">
        <ele>636.05</ele>
        <time>2012-03-26T12:13:02Z</time>
      </trkpt>
      <trkpt lat="43.38712" lon="2.60043">
        <ele>635.09</ele>
        <time>2012-03-26T12:13:13Z</time>
      </trkpt>
      <trkpt lat="43.38713" lon="2.60038">
        <ele>635.57</ele>
        <time>2012-03-26T12:13:26Z</time>
      </trkpt>
      <trkpt lat="43.38713" lon="2.60031">
        <ele>635.57</ele>
        <time>2012-03-26T12:13:33Z</time>
      </trkpt>
      <trkpt lat="43.38716" lon="2.60015">
        <ele>636.05</ele>
        <time>2012-03-26T12:13:45Z</time>
      </trkpt>
      <trkpt lat="43.38717" lon="2.60007">
        <ele>636.05</ele>
        <time>2012-03-26T12:14:05Z</time>
      </trkpt>
      <trkpt lat="43.38717" lon="2.60001">
        <ele>636.53</ele>
        <time>2012-03-26T12:14:09Z</time>
      </trkpt>
      <trkpt lat="43.38718" lon="2.59997">
        <ele>636.53</ele>
        <time>2012-03-26T12:14:11Z</time>
      </trkpt>
      <trkpt lat="43.3872" lon="2.59983">
        <ele>637.01</ele>
        <time>2012-03-26T12:14:20Z</time>
      </trkpt>
      <trkpt lat="43.38719" lon="2.59973">
        <ele>637.01</ele>
        <time>2012-03-26T12:14:26Z</time>
      </trkpt>
      <trkpt lat="43.3872" lon="2.59949">
        <ele>638.93</ele>
        <time>2012-03-26T12:14:43Z</time>
      </trkpt>
      <trkpt lat="43.38718" lon="2.59935">
        <ele>640.86</ele>
        <time>2012-03-26T12:14:53Z</time>
      </trkpt>
      <trkpt lat="43.38718" lon="2.59933">
        <ele>640.86</ele>
        <time>2012-03-26T12:14:55Z</time>
      </trkpt>
      <trkpt lat="43.38714" lon="2.59921">
        <ele>641.34</ele>
        <time>2012-03-26T12:15:03Z</time>
      </trkpt>
      <trkpt lat="43.38709" lon="2.59911">
        <ele>642.3</ele>
        <time>2012-03-26T12:15:11Z</time>
      </trkpt>
      <trkpt lat="43.38696" lon="2.59891">
        <ele>642.78</ele>
        <time>2012-03-26T12:15:28Z</time>
      </trkpt>
      <trkpt lat="43.38688" lon="2.59879">
        <ele>643.74</ele>
        <time>2012-03-26T12:15:38Z</time>
      </trkpt>
      <trkpt lat="43.3869" lon="2.59862">
        <ele>645.18</ele>
        <time>2012-03-26T12:15:53Z</time>
      </trkpt>
      <trkpt lat="43.38691" lon="2.59861">
        <ele>645.66</ele>
        <time>2012-03-26T12:15:55Z</time>
      </trkpt>
      <trkpt lat="43.38694" lon="2.59861">
        <ele>646.14</ele>
        <time>2012-03-26T12:15:59Z</time>
      </trkpt>
      <trkpt lat="43.38697" lon="2.5986">
        <ele>647.1</ele>
        <time>2012-03-26T12:16:02Z</time>
      </trkpt>
      <trkpt lat="43.38706" lon="2.59862">
        <ele>648.55</ele>
        <time>2012-03-26T12:16:14Z</time>
      </trkpt>
      <trkpt lat="43.38712" lon="2.59866">
        <ele>649.03</ele>
        <time>2012-03-26T12:16:20Z</time>
      </trkpt>
      <trkpt lat="43.38725" lon="2.59867">
        <ele>649.99</ele>
        <time>2012-03-26T12:16:33Z</time>
      </trkpt>
      <trkpt lat="43.38736" lon="2.59865">
        <ele>650.95</ele>
        <time>2012-03-26T12:16:45Z</time>
      </trkpt>
      <trkpt lat="43.38746" lon="2.59858">
        <ele>651.91</ele>
        <time>2012-03-26T12:16:56Z</time>
      </trkpt>
      <trkpt lat="43.38756" lon="2.59845">
        <ele>653.35</ele>
        <time>2012-03-26T12:17:10Z</time>
      </trkpt>
      <trkpt lat="43.38761" lon="2.59834">
        <ele>654.8</ele>
        <time>2012-03-26T12:17:21Z</time>
      </trkpt>
      <trkpt lat="43.38762" lon="2.59832">
        <ele>654.8</ele>
        <time>2012-03-26T12:17:23Z</time>
      </trkpt>
      <trkpt lat="43.38774" lon="2.59821">
        <ele>657.2</ele>
        <time>2012-03-26T12:17:39Z</time>
      </trkpt>
      <trkpt lat="43.38776" lon="2.59819">
        <ele>657.2</ele>
        <time>2012-03-26T12:17:41Z</time>
      </trkpt>
      <trkpt lat="43.38781" lon="2.59814">
        <ele>657.2</ele>
        <time>2012-03-26T12:17:52Z</time>
      </trkpt>
      <trkpt lat="43.38782" lon="2.59812">
        <ele>657.68</ele>
        <time>2012-03-26T12:17:55Z</time>
      </trkpt>
      <trkpt lat="43.38783" lon="2.5981">
        <ele>658.16</ele>
        <time>2012-03-26T12:17:57Z</time>
      </trkpt>
      <trkpt lat="43.38784" lon="2.59803">
        <ele>658.64</ele>
        <time>2012-03-26T12:18:01Z</time>
      </trkpt>
      <trkpt lat="43.38787" lon="2.59795">
        <ele>659.6</ele>
        <time>2012-03-26T12:18:07Z</time>
      </trkpt>
      <trkpt lat="43.38787" lon="2.59795">
        <ele>655.76</ele>
        <time>2012-03-26T12:18:09Z</time>
      </trkpt>
      <trkpt lat="43.38787" lon="2.59795">
        <ele>660.56</ele>
        <time>2012-03-26T12:18:10Z</time>
      </trkpt>
      <trkpt lat="43.38787" lon="2.59794">
        <ele>659.12</ele>
        <time>2012-03-26T12:18:13Z</time>
      </trkpt>
      <trkpt lat="43.3879" lon="2.59776">
        <ele>662.49</ele>
        <time>2012-03-26T12:18:25Z</time>
      </trkpt>
      <trkpt lat="43.38792" lon="2.59763">
        <ele>661.04</ele>
        <time>2012-03-26T12:18:37Z</time>
      </trkpt>
      <trkpt lat="43.38792" lon="2.59763">
        <ele>666.33</ele>
        <time>2012-03-26T12:18:45Z</time>
      </trkpt>
      <trkpt lat="43.38792" lon="2.59763">
        <ele>661.52</ele>
        <time>2012-03-26T12:18:46Z</time>
      </trkpt>
      <trkpt lat="43.388" lon="2.59749">
        <ele>662.01</ele>
        <time>2012-03-26T12:19:00Z</time>
      </trkpt>
      <trkpt lat="43.38812" lon="2.5973">
        <ele>662.97</ele>
        <time>2012-03-26T12:19:14Z</time>
      </trkpt>
      <trkpt lat="43.38813" lon="2.59727">
        <ele>662.97</ele>
        <time>2012-03-26T12:19:16Z</time>
      </trkpt>
      <trkpt lat="43.38816" lon="2.59725">
        <ele>662.97</ele>
        <time>2012-03-26T12:19:19Z</time>
      </trkpt>
      <trkpt lat="43.38817" lon="2.59721">
        <ele>663.45</ele>
        <time>2012-03-26T12:19:22Z</time>
      </trkpt>
      <trkpt lat="43.38821" lon="2.59705">
        <ele>664.89</ele>
        <time>2012-03-26T12:19:34Z</time>
      </trkpt>
      <trkpt lat="43.38822" lon="2.59699">
        <ele>665.37</ele>
        <time>2012-03-26T12:19:39Z</time>
      </trkpt>
      <trkpt lat="43.38822" lon="2.59688">
        <ele>666.81</ele>
        <time>2012-03-26T12:19:47Z</time>
      </trkpt>
      <trkpt lat="43.3882" lon="2.59672">
        <ele>668.25</ele>
        <time>2012-03-26T12:20:00Z</time>
      </trkpt>
      <trkpt lat="43.38817" lon="2.59653">
        <ele>670.18</ele>
        <time>2012-03-26T12:20:13Z</time>
      </trkpt>
      <trkpt lat="43.38818" lon="2.59636">
        <ele>671.14</ele>
        <time>2012-03-26T12:20:24Z</time>
      </trkpt>
      <trkpt lat="43.38819" lon="2.59617">
        <ele>672.58</ele>
        <time>2012-03-26T12:20:35Z</time>
      </trkpt>
      <trkpt lat="43.3882" lon="2.59606">
        <ele>673.06</ele>
        <time>2012-03-26T12:20:42Z</time>
      </trkpt>
      <trkpt lat="43.38819" lon="2.59589">
        <ele>674.5</ele>
        <time>2012-03-26T12:20:56Z</time>
      </trkpt>
      <trkpt lat="43.38816" lon="2.59576">
        <ele>675.46</ele>
        <time>2012-03-26T12:21:08Z</time>
      </trkpt>
      <trkpt lat="43.38816" lon="2.59562">
        <ele>676.42</ele>
        <time>2012-03-26T12:21:19Z</time>
      </trkpt>
      <trkpt lat="43.38816" lon="2.59559">
        <ele>676.42</ele>
        <time>2012-03-26T12:21:21Z</time>
      </trkpt>
      <trkpt lat="43.38818" lon="2.59544">
        <ele>676.42</ele>
        <time>2012-03-26T12:21:30Z</time>
      </trkpt>
      <trkpt lat="43.38818" lon="2.59542">
        <ele>676.91</ele>
        <time>2012-03-26T12:21:32Z</time>
      </trkpt>
      <trkpt lat="43.38819" lon="2.59537">
        <ele>677.39</ele>
        <time>2012-03-26T12:21:35Z</time>
      </trkpt>
      <trkpt lat="43.38824" lon="2.59529">
        <ele>677.87</ele>
        <time>2012-03-26T12:21:41Z</time>
      </trkpt>
      <trkpt lat="43.38831" lon="2.59515">
        <ele>679.31</ele>
        <time>2012-03-26T12:21:54Z</time>
      </trkpt>
      <trkpt lat="43.38835" lon="2.59503">
        <ele>679.79</ele>
        <time>2012-03-26T12:22:04Z</time>
      </trkpt>
      <trkpt lat="43.38834" lon="2.59502">
        <ele>679.31</ele>
        <time>2012-03-26T12:22:06Z</time>
      </trkpt>
      <trkpt lat="43.38824" lon="2.59502">
        <ele>681.71</ele>
        <time>2012-03-26T12:22:18Z</time>
      </trkpt>
      <trkpt lat="43.38823" lon="2.59502">
        <ele>681.71</ele>
        <time>2012-03-26T12:22:19Z</time>
      </trkpt>
      <trkpt lat="43.38822" lon="2.59502">
        <ele>681.71</ele>
        <time>2012-03-26T12:22:21Z</time>
      </trkpt>
      <trkpt lat="43.38817" lon="2.59502">
        <ele>682.19</ele>
        <time>2012-03-26T12:22:27Z</time>
      </trkpt>
      <trkpt lat="43.38807" lon="2.59502">
        <ele>683.15</ele>
        <time>2012-03-26T12:22:39Z</time>
      </trkpt>
      <trkpt lat="43.38799" lon="2.59501">
        <ele>683.63</ele>
        <time>2012-03-26T12:22:46Z</time>
      </trkpt>
      <trkpt lat="43.38796" lon="2.59499">
        <ele>683.63</ele>
        <time>2012-03-26T12:22:49Z</time>
      </trkpt>
      <trkpt lat="43.38792" lon="2.59495">
        <ele>684.12</ele>
        <time>2012-03-26T12:22:53Z</time>
      </trkpt>
      <trkpt lat="43.38787" lon="2.59489">
        <ele>685.08</ele>
        <time>2012-03-26T12:22:59Z</time>
      </trkpt>
      <trkpt lat="43.38789" lon="2.59477">
        <ele>686.04</ele>
        <time>2012-03-26T12:23:08Z</time>
      </trkpt>
      <trkpt lat="43.38791" lon="2.59469">
        <ele>686.04</ele>
        <time>2012-03-26T12:23:13Z</time>
      </trkpt>
      <trkpt lat="43.38794" lon="2.59462">
        <ele>687</ele>
        <time>2012-03-26T12:23:18Z</time>
      </trkpt>
      <trkpt lat="43.38797" lon="2.59458">
        <ele>687.48</ele>
        <time>2012-03-26T12:23:22Z</time>
      </trkpt>
      <trkpt lat="43.38806" lon="2.5944">
        <ele>688.92</ele>
        <time>2012-03-26T12:23:37Z</time>
      </trkpt>
      <trkpt lat="43.38806" lon="2.59439">
        <ele>688.92</ele>
        <time>2012-03-26T12:23:39Z</time>
      </trkpt>
      <trkpt lat="43.3881" lon="2.59434">
        <ele>689.4</ele>
        <time>2012-03-26T12:23:43Z</time>
      </trkpt>
      <trkpt lat="43.38814" lon="2.59428">
        <ele>689.4</ele>
        <time>2012-03-26T12:23:48Z</time>
      </trkpt>
      <trkpt lat="43.38817" lon="2.59422">
        <ele>690.36</ele>
        <time>2012-03-26T12:23:54Z</time>
      </trkpt>
      <trkpt lat="43.38818" lon="2.5942">
        <ele>690.36</ele>
        <time>2012-03-26T12:23:56Z</time>
      </trkpt>
      <trkpt lat="43.38827" lon="2.59412">
        <ele>691.33</ele>
        <time>2012-03-26T12:24:07Z</time>
      </trkpt>
      <trkpt lat="43.38833" lon="2.59404">
        <ele>692.29</ele>
        <time>2012-03-26T12:24:17Z</time>
      </trkpt>
      <trkpt lat="43.38836" lon="2.59399">
        <ele>692.77</ele>
        <time>2012-03-26T12:24:23Z</time>
      </trkpt>
      <trkpt lat="43.38839" lon="2.59393">
        <ele>692.77</ele>
        <time>2012-03-26T12:24:28Z</time>
      </trkpt>
      <trkpt lat="43.38842" lon="2.59389">
        <ele>693.73</ele>
        <time>2012-03-26T12:24:33Z</time>
      </trkpt>
      <trkpt lat="43.38844" lon="2.59385">
        <ele>694.69</ele>
        <time>2012-03-26T12:24:36Z</time>
      </trkpt>
      <trkpt lat="43.38848" lon="2.59375">
        <ele>695.17</ele>
        <time>2012-03-26T12:24:43Z</time>
      </trkpt>
      <trkpt lat="43.3885" lon="2.59371">
        <ele>694.69</ele>
        <time>2012-03-26T12:24:46Z</time>
      </trkpt>
      <trkpt lat="43.38854" lon="2.59358">
        <ele>696.13</ele>
        <time>2012-03-26T12:24:54Z</time>
      </trkpt>
      <trkpt lat="43.38853" lon="2.59355">
        <ele>696.13</ele>
        <time>2012-03-26T12:24:56Z</time>
      </trkpt>
      <trkpt lat="43.38856" lon="2.59347">
        <ele>696.61</ele>
        <time>2012-03-26T12:25:01Z</time>
      </trkpt>
      <trkpt lat="43.38856" lon="2.59344">
        <ele>697.09</ele>
        <time>2012-03-26T12:25:03Z</time>
      </trkpt>
      <trkpt lat="43.38855" lon="2.59333">
        <ele>698.53</ele>
        <time>2012-03-26T12:25:12Z</time>
      </trkpt>
      <trkpt lat="43.38854" lon="2.5933">
        <ele>698.53</ele>
        <time>2012-03-26T12:25:15Z</time>
      </trkpt>
      <trkpt lat="43.38851" lon="2.59316">
        <ele>698.53</ele>
        <time>2012-03-26T12:25:26Z</time>
      </trkpt>
      <trkpt lat="43.38851" lon="2.59308">
        <ele>699.5</ele>
        <time>2012-03-26T12:25:31Z</time>
      </trkpt>
      <trkpt lat="43.38855" lon="2.59295">
        <ele>699.98</ele>
        <time>2012-03-26T12:25:38Z</time>
      </trkpt>
      <trkpt lat="43.38858" lon="2.59281">
        <ele>699.5</ele>
        <time>2012-03-26T12:25:47Z</time>
      </trkpt>
      <trkpt lat="43.38859" lon="2.59275">
        <ele>700.46</ele>
        <time>2012-03-26T12:25:51Z</time>
      </trkpt>
      <trkpt lat="43.38859" lon="2.59272">
        <ele>699.5</ele>
        <time>2012-03-26T12:25:54Z</time>
      </trkpt>
      <trkpt lat="43.38859" lon="2.59269">
        <ele>699.5</ele>
        <time>2012-03-26T12:25:56Z</time>
      </trkpt>
      <trkpt lat="43.38861" lon="2.59263">
        <ele>699.02</ele>
        <time>2012-03-26T12:26:01Z</time>
      </trkpt>
      <trkpt lat="43.38862" lon="2.59259">
        <ele>698.53</ele>
        <time>2012-03-26T12:26:04Z</time>
      </trkpt>
      <trkpt lat="43.38864" lon="2.59254">
        <ele>698.53</ele>
        <time>2012-03-26T12:26:08Z</time>
      </trkpt>
      <trkpt lat="43.38865" lon="2.59252">
        <ele>698.05</ele>
        <time>2012-03-26T12:26:10Z</time>
      </trkpt>
      <trkpt lat="43.38866" lon="2.59249">
        <ele>697.57</ele>
        <time>2012-03-26T12:26:12Z</time>
      </trkpt>
      <trkpt lat="43.38867" lon="2.59243">
        <ele>697.09</ele>
        <time>2012-03-26T12:26:17Z</time>
      </trkpt>
      <trkpt lat="43.38869" lon="2.59237">
        <ele>695.65</ele>
        <time>2012-03-26T12:26:22Z</time>
      </trkpt>
      <trkpt lat="43.38871" lon="2.59224">
        <ele>694.21</ele>
        <time>2012-03-26T12:26:31Z</time>
      </trkpt>
      <trkpt lat="43.38873" lon="2.59214">
        <ele>693.25</ele>
        <time>2012-03-26T12:26:39Z</time>
      </trkpt>
      <trkpt lat="43.38875" lon="2.59203">
        <ele>692.29</ele>
        <time>2012-03-26T12:26:47Z</time>
      </trkpt>
      <trkpt lat="43.38877" lon="2.59195">
        <ele>691.81</ele>
        <time>2012-03-26T12:26:54Z</time>
      </trkpt>
      <trkpt lat="43.38879" lon="2.59182">
        <ele>690.84</ele>
        <time>2012-03-26T12:27:05Z</time>
      </trkpt>
      <trkpt lat="43.3888" lon="2.59167">
        <ele>689.88</ele>
        <time>2012-03-26T12:27:16Z</time>
      </trkpt>
      <trkpt lat="43.3888" lon="2.5915">
        <ele>689.88</ele>
        <time>2012-03-26T12:27:29Z</time>
      </trkpt>
      <trkpt lat="43.38885" lon="2.59134">
        <ele>690.36</ele>
        <time>2012-03-26T12:27:42Z</time>
      </trkpt>
      <trkpt lat="43.38887" lon="2.59131">
        <ele>690.36</ele>
        <time>2012-03-26T12:27:53Z</time>
      </trkpt>
      <trkpt lat="43.38889" lon="2.59118">
        <ele>690.36</ele>
        <time>2012-03-26T12:28:04Z</time>
      </trkpt>
      <trkpt lat="43.38889" lon="2.59116">
        <ele>690.84</ele>
        <time>2012-03-26T12:28:05Z</time>
      </trkpt>
      <trkpt lat="43.38892" lon="2.59107">
        <ele>690.84</ele>
        <time>2012-03-26T12:28:11Z</time>
      </trkpt>
      <trkpt lat="43.38894" lon="2.591">
        <ele>690.84</ele>
        <time>2012-03-26T12:28:15Z</time>
      </trkpt>
      <trkpt lat="43.389" lon="2.59086">
        <ele>690.84</ele>
        <time>2012-03-26T12:28:25Z</time>
      </trkpt>
      <trkpt lat="43.38907" lon="2.59078">
        <ele>690.84</ele>
        <time>2012-03-26T12:28:30Z</time>
      </trkpt>
      <trkpt lat="43.38912" lon="2.59068">
        <ele>691.33</ele>
        <time>2012-03-26T12:28:35Z</time>
      </trkpt>
      <trkpt lat="43.38913" lon="2.59063">
        <ele>691.33</ele>
        <time>2012-03-26T12:28:38Z</time>
      </trkpt>
      <trkpt lat="43.38918" lon="2.5905">
        <ele>691.81</ele>
        <time>2012-03-26T12:28:48Z</time>
      </trkpt>
      <trkpt lat="43.38923" lon="2.59042">
        <ele>692.29</ele>
        <time>2012-03-26T12:28:57Z</time>
      </trkpt>
      <trkpt lat="43.38937" lon="2.59026">
        <ele>692.77</ele>
        <time>2012-03-26T12:29:13Z</time>
      </trkpt>
      <trkpt lat="43.38938" lon="2.59025">
        <ele>693.25</ele>
        <time>2012-03-26T12:29:14Z</time>
      </trkpt>
      <trkpt lat="43.38944" lon="2.59017">
        <ele>693.25</ele>
        <time>2012-03-26T12:29:20Z</time>
      </trkpt>
      <trkpt lat="43.38948" lon="2.59014">
        <ele>692.77</ele>
        <time>2012-03-26T12:29:24Z</time>
      </trkpt>
      <trkpt lat="43.38952" lon="2.59009">
        <ele>692.77</ele>
        <time>2012-03-26T12:29:28Z</time>
      </trkpt>
      <trkpt lat="43.38954" lon="2.59006">
        <ele>693.25</ele>
        <time>2012-03-26T12:29:31Z</time>
      </trkpt>
      <trkpt lat="43.38962" lon="2.59002">
        <ele>693.73</ele>
        <time>2012-03-26T12:29:40Z</time>
      </trkpt>
      <trkpt lat="43.38976" lon="2.58991">
        <ele>694.69</ele>
        <time>2012-03-26T12:29:52Z</time>
      </trkpt>
      <trkpt lat="43.38979" lon="2.58988">
        <ele>694.21</ele>
        <time>2012-03-26T12:29:55Z</time>
      </trkpt>
      <trkpt lat="43.38985" lon="2.58979">
        <ele>694.69</ele>
        <time>2012-03-26T12:30:04Z</time>
      </trkpt>
      <trkpt lat="43.38995" lon="2.58964">
        <ele>696.13</ele>
        <time>2012-03-26T12:30:18Z</time>
      </trkpt>
      <trkpt lat="43.38995" lon="2.58963">
        <ele>696.13</ele>
        <time>2012-03-26T12:30:19Z</time>
      </trkpt>
      <trkpt lat="43.38998" lon="2.58957">
        <ele>696.13</ele>
        <time>2012-03-26T12:30:26Z</time>
      </trkpt>
      <trkpt lat="43.39002" lon="2.58951">
        <ele>696.13</ele>
        <time>2012-03-26T12:30:31Z</time>
      </trkpt>
      <trkpt lat="43.39014" lon="2.58935">
        <ele>696.61</ele>
        <time>2012-03-26T12:30:45Z</time>
      </trkpt>
      <trkpt lat="43.39026" lon="2.58926">
        <ele>697.57</ele>
        <time>2012-03-26T12:30:56Z</time>
      </trkpt>
      <trkpt lat="43.39032" lon="2.5892">
        <ele>698.53</ele>
        <time>2012-03-26T12:31:04Z</time>
      </trkpt>
      <trkpt lat="43.39036" lon="2.58913">
        <ele>698.53</ele>
        <time>2012-03-26T12:31:11Z</time>
      </trkpt>
      <trkpt lat="43.39039" lon="2.58902">
        <ele>698.53</ele>
        <time>2012-03-26T12:31:20Z</time>
      </trkpt>
      <trkpt lat="43.3904" lon="2.58894">
        <ele>699.02</ele>
        <time>2012-03-26T12:31:26Z</time>
      </trkpt>
      <trkpt lat="43.39048" lon="2.58876">
        <ele>699.98</ele>
        <time>2012-03-26T12:31:39Z</time>
      </trkpt>
      <trkpt lat="43.39054" lon="2.58864">
        <ele>699.5</ele>
        <time>2012-03-26T12:31:49Z</time>
      </trkpt>
      <trkpt lat="43.39056" lon="2.5886">
        <ele>699.98</ele>
        <time>2012-03-26T12:32:02Z</time>
      </trkpt>
      <trkpt lat="43.39055" lon="2.5886">
        <ele>699.98</ele>
        <time>2012-03-26T12:32:22Z</time>
      </trkpt>
      <trkpt lat="43.39055" lon="2.5886">
        <ele>699.98</ele>
        <time>2012-03-26T12:32:25Z</time>
      </trkpt>
      <trkpt lat="43.39059" lon="2.58857">
        <ele>699.5</ele>
        <time>2012-03-26T12:32:28Z</time>
      </trkpt>
      <trkpt lat="43.39068" lon="2.58843">
        <ele>700.46</ele>
        <time>2012-03-26T12:32:40Z</time>
      </trkpt>
      <trkpt lat="43.39073" lon="2.5883">
        <ele>700.94</ele>
        <time>2012-03-26T12:32:51Z</time>
      </trkpt>
      <trkpt lat="43.39074" lon="2.5883">
        <ele>701.42</ele>
        <time>2012-03-26T12:33:00Z</time>
      </trkpt>
      <trkpt lat="43.39076" lon="2.58829">
        <ele>701.9</ele>
        <time>2012-03-26T12:33:02Z</time>
      </trkpt>
      <trkpt lat="43.39079" lon="2.58826">
        <ele>701.9</ele>
        <time>2012-03-26T12:33:05Z</time>
      </trkpt>
      <trkpt lat="43.39081" lon="2.58826">
        <ele>701.9</ele>
        <time>2012-03-26T12:33:07Z</time>
      </trkpt>
      <trkpt lat="43.39082" lon="2.58824">
        <ele>701.9</ele>
        <time>2012-03-26T12:33:09Z</time>
      </trkpt>
      <trkpt lat="43.39085" lon="2.58821">
        <ele>702.86</ele>
        <time>2012-03-26T12:33:12Z</time>
      </trkpt>
      <trkpt lat="43.39092" lon="2.58812">
        <ele>704.78</ele>
        <time>2012-03-26T12:33:24Z</time>
      </trkpt>
      <trkpt lat="43.39092" lon="2.58809">
        <ele>704.78</ele>
        <time>2012-03-26T12:33:28Z</time>
      </trkpt>
      <trkpt lat="43.39087" lon="2.58796">
        <ele>706.71</ele>
        <time>2012-03-26T12:33:39Z</time>
      </trkpt>
      <trkpt lat="43.39081" lon="2.58783">
        <ele>707.67</ele>
        <time>2012-03-26T12:33:50Z</time>
      </trkpt>
      <trkpt lat="43.39079" lon="2.58766">
        <ele>709.59</ele>
        <time>2012-03-26T12:34:01Z</time>
      </trkpt>
      <trkpt lat="43.39078" lon="2.58747">
        <ele>711.51</ele>
        <time>2012-03-26T12:34:13Z</time>
      </trkpt>
      <trkpt lat="43.39077" lon="2.58745">
        <ele>710.55</ele>
        <time>2012-03-26T12:34:15Z</time>
      </trkpt>
      <trkpt lat="43.39074" lon="2.58743">
        <ele>711.51</ele>
        <time>2012-03-26T12:34:18Z</time>
      </trkpt>
      <trkpt lat="43.39074" lon="2.58734">
        <ele>711.51</ele>
        <time>2012-03-26T12:34:23Z</time>
      </trkpt>
      <trkpt lat="43.39073" lon="2.58731">
        <ele>711.99</ele>
        <time>2012-03-26T12:34:25Z</time>
      </trkpt>
      <trkpt lat="43.39071" lon="2.58717">
        <ele>712.95</ele>
        <time>2012-03-26T12:34:34Z</time>
      </trkpt>
      <trkpt lat="43.3907" lon="2.58715">
        <ele>712.95</ele>
        <time>2012-03-26T12:34:36Z</time>
      </trkpt>
      <trkpt lat="43.39066" lon="2.58709">
        <ele>713.44</ele>
        <time>2012-03-26T12:34:41Z</time>
      </trkpt>
      <trkpt lat="43.39057" lon="2.58704">
        <ele>714.88</ele>
        <time>2012-03-26T12:34:54Z</time>
      </trkpt>
      <trkpt lat="43.39055" lon="2.58702">
        <ele>714.88</ele>
        <time>2012-03-26T12:34:58Z</time>
      </trkpt>
      <trkpt lat="43.3905" lon="2.58696">
        <ele>714.88</ele>
        <time>2012-03-26T12:35:04Z</time>
      </trkpt>
      <trkpt lat="43.39044" lon="2.58688">
        <ele>716.32</ele>
        <time>2012-03-26T12:35:11Z</time>
      </trkpt>
      <trkpt lat="43.39043" lon="2.58685">
        <ele>716.32</ele>
        <time>2012-03-26T12:35:13Z</time>
      </trkpt>
      <trkpt lat="43.39042" lon="2.58681">
        <ele>716.32</ele>
        <time>2012-03-26T12:35:16Z</time>
      </trkpt>
      <trkpt lat="43.3904" lon="2.58672">
        <ele>716.8</ele>
        <time>2012-03-26T12:35:23Z</time>
      </trkpt>
      <trkpt lat="43.39038" lon="2.58666">
        <ele>717.28</ele>
        <time>2012-03-26T12:35:27Z</time>
      </trkpt>
      <trkpt lat="43.39036" lon="2.5866">
        <ele>717.28</ele>
        <time>2012-03-26T12:35:33Z</time>
      </trkpt>
      <trkpt lat="43.39033" lon="2.58656">
        <ele>718.24</ele>
        <time>2012-03-26T12:35:37Z</time>
      </trkpt>
      <trkpt lat="43.39032" lon="2.58652">
        <ele>717.76</ele>
        <time>2012-03-26T12:35:40Z</time>
      </trkpt>
      <trkpt lat="43.39029" lon="2.58647">
        <ele>717.76</ele>
        <time>2012-03-26T12:35:44Z</time>
      </trkpt>
      <trkpt lat="43.39026" lon="2.58643">
        <ele>717.76</ele>
        <time>2012-03-26T12:35:48Z</time>
      </trkpt>
      <trkpt lat="43.39024" lon="2.58629">
        <ele>716.8</ele>
        <time>2012-03-26T12:35:57Z</time>
      </trkpt>
      <trkpt lat="43.39024" lon="2.58624">
        <ele>716.8</ele>
        <time>2012-03-26T12:36:00Z</time>
      </trkpt>
      <trkpt lat="43.39022" lon="2.58616">
        <ele>716.32</ele>
        <time>2012-03-26T12:36:06Z</time>
      </trkpt>
      <trkpt lat="43.39023" lon="2.58604">
        <ele>715.84</ele>
        <time>2012-03-26T12:36:13Z</time>
      </trkpt>
      <trkpt lat="43.39026" lon="2.58585">
        <ele>715.84</ele>
        <time>2012-03-26T12:36:25Z</time>
      </trkpt>
      <trkpt lat="43.39027" lon="2.58577">
        <ele>715.36</ele>
        <time>2012-03-26T12:36:31Z</time>
      </trkpt>
      <trkpt lat="43.39028" lon="2.58574">
        <ele>715.36</ele>
        <time>2012-03-26T12:36:33Z</time>
      </trkpt>
      <trkpt lat="43.39028" lon="2.5857">
        <ele>715.36</ele>
        <time>2012-03-26T12:36:36Z</time>
      </trkpt>
      <trkpt lat="43.39029" lon="2.58565">
        <ele>715.84</ele>
        <time>2012-03-26T12:36:39Z</time>
      </trkpt>
      <trkpt lat="43.3903" lon="2.5856">
        <ele>714.88</ele>
        <time>2012-03-26T12:36:43Z</time>
      </trkpt>
      <trkpt lat="43.39029" lon="2.58555">
        <ele>715.36</ele>
        <time>2012-03-26T12:36:46Z</time>
      </trkpt>
      <trkpt lat="43.3903" lon="2.58538">
        <ele>716.32</ele>
        <time>2012-03-26T12:36:58Z</time>
      </trkpt>
      <trkpt lat="43.39029" lon="2.58535">
        <ele>716.32</ele>
        <time>2012-03-26T12:37:00Z</time>
      </trkpt>
      <trkpt lat="43.3903" lon="2.58532">
        <ele>716.32</ele>
        <time>2012-03-26T12:37:02Z</time>
      </trkpt>
      <trkpt lat="43.39032" lon="2.58527">
        <ele>715.84</ele>
        <time>2012-03-26T12:37:06Z</time>
      </trkpt>
      <trkpt lat="43.39032" lon="2.58516">
        <ele>715.84</ele>
        <time>2012-03-26T12:37:14Z</time>
      </trkpt>
      <trkpt lat="43.39032" lon="2.58512">
        <ele>716.32</ele>
        <time>2012-03-26T12:37:16Z</time>
      </trkpt>
      <trkpt lat="43.39032" lon="2.58497">
        <ele>717.28</ele>
        <time>2012-03-26T12:37:29Z</time>
      </trkpt>
      <trkpt lat="43.3903" lon="2.58492">
        <ele>717.28</ele>
        <time>2012-03-26T12:37:40Z</time>
      </trkpt>
      <trkpt lat="43.39028" lon="2.58487">
        <ele>717.28</ele>
        <time>2012-03-26T12:37:45Z</time>
      </trkpt>
      <trkpt lat="43.39029" lon="2.58482">
        <ele>716.8</ele>
        <time>2012-03-26T12:37:48Z</time>
      </trkpt>
      <trkpt lat="43.39031" lon="2.58479">
        <ele>717.28</ele>
        <time>2012-03-26T12:37:51Z</time>
      </trkpt>
      <trkpt lat="43.39033" lon="2.58471">
        <ele>716.8</ele>
        <time>2012-03-26T12:37:59Z</time>
      </trkpt>
      <trkpt lat="43.39031" lon="2.58469">
        <ele>716.32</ele>
        <time>2012-03-26T12:38:02Z</time>
      </trkpt>
      <trkpt lat="43.39032" lon="2.58462">
        <ele>716.8</ele>
        <time>2012-03-26T12:38:13Z</time>
      </trkpt>
      <trkpt lat="43.39038" lon="2.58463">
        <ele>717.28</ele>
        <time>2012-03-26T12:38:20Z</time>
      </trkpt>
      <trkpt lat="43.39042" lon="2.58463">
        <ele>716.8</ele>
        <time>2012-03-26T12:38:24Z</time>
      </trkpt>
      <trkpt lat="43.39044" lon="2.58466">
        <ele>716.8</ele>
        <time>2012-03-26T12:38:29Z</time>
      </trkpt>
      <trkpt lat="43.39044" lon="2.5847">
        <ele>715.84</ele>
        <time>2012-03-26T12:38:31Z</time>
      </trkpt>
      <trkpt lat="43.39046" lon="2.58481">
        <ele>716.32</ele>
        <time>2012-03-26T12:38:35Z</time>
      </trkpt>
      <trkpt lat="43.39047" lon="2.58496">
        <ele>715.84</ele>
        <time>2012-03-26T12:38:43Z</time>
      </trkpt>
      <trkpt lat="43.39046" lon="2.58514">
        <ele>714.4</ele>
        <time>2012-03-26T12:38:53Z</time>
      </trkpt>
      <trkpt lat="43.39047" lon="2.58521">
        <ele>713.92</ele>
        <time>2012-03-26T12:38:58Z</time>
      </trkpt>
      <trkpt lat="43.39048" lon="2.58526">
        <ele>713.44</ele>
        <time>2012-03-26T12:39:01Z</time>
      </trkpt>
      <trkpt lat="43.39048" lon="2.5853">
        <ele>713.44</ele>
        <time>2012-03-26T12:39:04Z</time>
      </trkpt>
      <trkpt lat="43.39047" lon="2.58535">
        <ele>713.44</ele>
        <time>2012-03-26T12:39:07Z</time>
      </trkpt>
      <trkpt lat="43.39047" lon="2.58541">
        <ele>712.95</ele>
        <time>2012-03-26T12:39:11Z</time>
      </trkpt>
      <trkpt lat="43.39045" lon="2.58552">
        <ele>712.95</ele>
        <time>2012-03-26T12:39:18Z</time>
      </trkpt>
      <trkpt lat="43.39046" lon="2.58558">
        <ele>712.47</ele>
        <time>2012-03-26T12:39:22Z</time>
      </trkpt>
      <trkpt lat="43.39046" lon="2.58563">
        <ele>712.47</ele>
        <time>2012-03-26T12:39:25Z</time>
      </trkpt>
      <trkpt lat="43.39048" lon="2.58572">
        <ele>711.99</ele>
        <time>2012-03-26T12:39:30Z</time>
      </trkpt>
      <trkpt lat="43.39049" lon="2.58582">
        <ele>711.03</ele>
        <time>2012-03-26T12:39:41Z</time>
      </trkpt>
      <trkpt lat="43.39049" lon="2.58583">
        <ele>711.51</ele>
        <time>2012-03-26T12:39:42Z</time>
      </trkpt>
      <trkpt lat="43.39052" lon="2.5859">
        <ele>711.03</ele>
        <time>2012-03-26T12:39:49Z</time>
      </trkpt>
      <trkpt lat="43.39055" lon="2.58593">
        <ele>710.07</ele>
        <time>2012-03-26T12:39:55Z</time>
      </trkpt>
      <trkpt lat="43.3906" lon="2.58592">
        <ele>710.07</ele>
        <time>2012-03-26T12:40:02Z</time>
      </trkpt>
      <trkpt lat="43.39067" lon="2.58588">
        <ele>710.55</ele>
        <time>2012-03-26T12:40:10Z</time>
      </trkpt>
      <trkpt lat="43.3907" lon="2.58587">
        <ele>710.07</ele>
        <time>2012-03-26T12:40:14Z</time>
      </trkpt>
      <trkpt lat="43.39072" lon="2.58586">
        <ele>710.07</ele>
        <time>2012-03-26T12:40:16Z</time>
      </trkpt>
      <trkpt lat="43.39082" lon="2.5858">
        <ele>709.11</ele>
        <time>2012-03-26T12:40:28Z</time>
      </trkpt>
      <trkpt lat="43.39085" lon="2.58581">
        <ele>708.63</ele>
        <time>2012-03-26T12:40:34Z</time>
      </trkpt>
      <trkpt lat="43.391" lon="2.58578">
        <ele>707.67</ele>
        <time>2012-03-26T12:40:47Z</time>
      </trkpt>
      <trkpt lat="43.39104" lon="2.58577">
        <ele>707.67</ele>
        <time>2012-03-26T12:40:50Z</time>
      </trkpt>
      <trkpt lat="43.39116" lon="2.58582">
        <ele>706.71</ele>
        <time>2012-03-26T12:41:02Z</time>
      </trkpt>
      <trkpt lat="43.39117" lon="2.58583">
        <ele>706.71</ele>
        <time>2012-03-26T12:41:04Z</time>
      </trkpt>
      <trkpt lat="43.39125" lon="2.58586">
        <ele>706.23</ele>
        <time>2012-03-26T12:41:12Z</time>
      </trkpt>
      <trkpt lat="43.39127" lon="2.58588">
        <ele>705.75</ele>
        <time>2012-03-26T12:41:14Z</time>
      </trkpt>
      <trkpt lat="43.39129" lon="2.58592">
        <ele>705.75</ele>
        <time>2012-03-26T12:41:18Z</time>
      </trkpt>
      <trkpt lat="43.39133" lon="2.58594">
        <ele>705.26</ele>
        <time>2012-03-26T12:41:21Z</time>
      </trkpt>
      <trkpt lat="43.3914" lon="2.586">
        <ele>705.26</ele>
        <time>2012-03-26T12:41:29Z</time>
      </trkpt>
      <trkpt lat="43.39146" lon="2.58604">
        <ele>705.26</ele>
        <time>2012-03-26T12:41:35Z</time>
      </trkpt>
      <trkpt lat="43.39151" lon="2.58609">
        <ele>704.3</ele>
        <time>2012-03-26T12:41:41Z</time>
      </trkpt>
      <trkpt lat="43.39154" lon="2.58611">
        <ele>704.78</ele>
        <time>2012-03-26T12:41:44Z</time>
      </trkpt>
      <trkpt lat="43.39164" lon="2.5862">
        <ele>704.78</ele>
        <time>2012-03-26T12:41:54Z</time>
      </trkpt>
      <trkpt lat="43.39166" lon="2.58623">
        <ele>704.78</ele>
        <time>2012-03-26T12:41:57Z</time>
      </trkpt>
      <trkpt lat="43.3917" lon="2.58626">
        <ele>704.3</ele>
        <time>2012-03-26T12:42:01Z</time>
      </trkpt>
      <trkpt lat="43.39173" lon="2.58629">
        <ele>703.82</ele>
        <time>2012-03-26T12:42:05Z</time>
      </trkpt>
      <trkpt lat="43.39176" lon="2.58631">
        <ele>703.82</ele>
        <time>2012-03-26T12:42:09Z</time>
      </trkpt>
      <trkpt lat="43.39179" lon="2.58634">
        <ele>703.34</ele>
        <time>2012-03-26T12:42:13Z</time>
      </trkpt>
      <trkpt lat="43.39187" lon="2.58638">
        <ele>702.86</ele>
        <time>2012-03-26T12:42:19Z</time>
      </trkpt>
      <trkpt lat="43.39189" lon="2.58638">
        <ele>702.86</ele>
        <time>2012-03-26T12:42:22Z</time>
      </trkpt>
      <trkpt lat="43.39192" lon="2.58639">
        <ele>702.38</ele>
        <time>2012-03-26T12:42:26Z</time>
      </trkpt>
      <trkpt lat="43.39196" lon="2.5864">
        <ele>702.38</ele>
        <time>2012-03-26T12:42:29Z</time>
      </trkpt>
      <trkpt lat="43.392" lon="2.58645">
        <ele>701.9</ele>
        <time>2012-03-26T12:42:33Z</time>
      </trkpt>
      <trkpt lat="43.39207" lon="2.58649">
        <ele>701.42</ele>
        <time>2012-03-26T12:42:42Z</time>
      </trkpt>
      <trkpt lat="43.39215" lon="2.58655">
        <ele>702.38</ele>
        <time>2012-03-26T12:42:52Z</time>
      </trkpt>
      <trkpt lat="43.39221" lon="2.58656">
        <ele>701.42</ele>
        <time>2012-03-26T12:43:00Z</time>
      </trkpt>
      <trkpt lat="43.39225" lon="2.58655">
        <ele>700.94</ele>
        <time>2012-03-26T12:43:04Z</time>
      </trkpt>
      <trkpt lat="43.39235" lon="2.58656">
        <ele>700.46</ele>
        <time>2012-03-26T12:43:16Z</time>
      </trkpt>
      <trkpt lat="43.3924" lon="2.58655">
        <ele>700.46</ele>
        <time>2012-03-26T12:43:21Z</time>
      </trkpt>
      <trkpt lat="43.39252" lon="2.58646">
        <ele>699.98</ele>
        <time>2012-03-26T12:43:34Z</time>
      </trkpt>
      <trkpt lat="43.39254" lon="2.58644">
        <ele>699.98</ele>
        <time>2012-03-26T12:43:36Z</time>
      </trkpt>
      <trkpt lat="43.39255" lon="2.58639">
        <ele>699.5</ele>
        <time>2012-03-26T12:43:41Z</time>
      </trkpt>
      <trkpt lat="43.39254" lon="2.58633">
        <ele>699.02</ele>
        <time>2012-03-26T12:43:46Z</time>
      </trkpt>
      <trkpt lat="43.39254" lon="2.58632">
        <ele>698.53</ele>
        <time>2012-03-26T12:43:47Z</time>
      </trkpt>
      <trkpt lat="43.39246" lon="2.5864">
        <ele>699.5</ele>
        <time>2012-03-26T12:43:57Z</time>
      </trkpt>
      <trkpt lat="43.3924" lon="2.58644">
        <ele>699.98</ele>
        <time>2012-03-26T12:44:01Z</time>
      </trkpt>
      <trkpt lat="43.3923" lon="2.58634">
        <ele>700.94</ele>
        <time>2012-03-26T12:44:13Z</time>
      </trkpt>
      <trkpt lat="43.39228" lon="2.58633">
        <ele>700.94</ele>
        <time>2012-03-26T12:44:15Z</time>
      </trkpt>
      <trkpt lat="43.39226" lon="2.58631">
        <ele>700.94</ele>
        <time>2012-03-26T12:44:17Z</time>
      </trkpt>
      <trkpt lat="43.39225" lon="2.58628">
        <ele>700.94</ele>
        <time>2012-03-26T12:44:20Z</time>
      </trkpt>
      <trkpt lat="43.39222" lon="2.58614">
        <ele>700.46</ele>
        <time>2012-03-26T12:44:30Z</time>
      </trkpt>
      <trkpt lat="43.39221" lon="2.58611">
        <ele>700.46</ele>
        <time>2012-03-26T12:44:32Z</time>
      </trkpt>
      <trkpt lat="43.39219" lon="2.58608">
        <ele>700.94</ele>
        <time>2012-03-26T12:44:35Z</time>
      </trkpt>
      <trkpt lat="43.39219" lon="2.58605">
        <ele>700.94</ele>
        <time>2012-03-26T12:44:37Z</time>
      </trkpt>
      <trkpt lat="43.39218" lon="2.58598">
        <ele>699.98</ele>
        <time>2012-03-26T12:44:40Z</time>
      </trkpt>
      <trkpt lat="43.39217" lon="2.58588">
        <ele>700.46</ele>
        <time>2012-03-26T12:44:46Z</time>
      </trkpt>
      <trkpt lat="43.39218" lon="2.58575">
        <ele>701.42</ele>
        <time>2012-03-26T12:44:53Z</time>
      </trkpt>
      <trkpt lat="43.39218" lon="2.5857">
        <ele>701.42</ele>
        <time>2012-03-26T12:44:57Z</time>
      </trkpt>
      <trkpt lat="43.39218" lon="2.58564">
        <ele>701.42</ele>
        <time>2012-03-26T12:45:00Z</time>
      </trkpt>
      <trkpt lat="43.39217" lon="2.58551">
        <ele>702.38</ele>
        <time>2012-03-26T12:45:15Z</time>
      </trkpt>
      <trkpt lat="43.39218" lon="2.58549">
        <ele>701.42</ele>
        <time>2012-03-26T12:45:27Z</time>
      </trkpt>
      <trkpt lat="43.39219" lon="2.58543">
        <ele>701.9</ele>
        <time>2012-03-26T12:45:31Z</time>
      </trkpt>
      <trkpt lat="43.39221" lon="2.58519">
        <ele>702.38</ele>
        <time>2012-03-26T12:45:44Z</time>
      </trkpt>
      <trkpt lat="43.39221" lon="2.58515">
        <ele>702.86</ele>
        <time>2012-03-26T12:45:46Z</time>
      </trkpt>
      <trkpt lat="43.39222" lon="2.58491">
        <ele>703.34</ele>
        <time>2012-03-26T12:45:59Z</time>
      </trkpt>
      <trkpt lat="43.39224" lon="2.58465">
        <ele>703.82</ele>
        <time>2012-03-26T12:46:12Z</time>
      </trkpt>
      <trkpt lat="43.39226" lon="2.58449">
        <ele>703.82</ele>
        <time>2012-03-26T12:46:21Z</time>
      </trkpt>
      <trkpt lat="43.3923" lon="2.58437">
        <ele>704.3</ele>
        <time>2012-03-26T12:46:27Z</time>
      </trkpt>
      <trkpt lat="43.39232" lon="2.58426">
        <ele>704.3</ele>
        <time>2012-03-26T12:46:34Z</time>
      </trkpt>
      <trkpt lat="43.39237" lon="2.58409">
        <ele>704.3</ele>
        <time>2012-03-26T12:46:45Z</time>
      </trkpt>
      <trkpt lat="43.39241" lon="2.58399">
        <ele>703.82</ele>
        <time>2012-03-26T12:46:51Z</time>
      </trkpt>
      <trkpt lat="43.39247" lon="2.5838">
        <ele>703.34</ele>
        <time>2012-03-26T12:47:04Z</time>
      </trkpt>
      <trkpt lat="43.39248" lon="2.58374">
        <ele>703.34</ele>
        <time>2012-03-26T12:47:07Z</time>
      </trkpt>
      <trkpt lat="43.39256" lon="2.58352">
        <ele>702.86</ele>
        <time>2012-03-26T12:47:21Z</time>
      </trkpt>
      <trkpt lat="43.39257" lon="2.58349">
        <ele>702.38</ele>
        <time>2012-03-26T12:47:23Z</time>
      </trkpt>
      <trkpt lat="43.3926" lon="2.58338">
        <ele>702.86</ele>
        <time>2012-03-26T12:47:30Z</time>
      </trkpt>
      <trkpt lat="43.39266" lon="2.58318">
        <ele>702.38</ele>
        <time>2012-03-26T12:47:44Z</time>
      </trkpt>
      <trkpt lat="43.3927" lon="2.58304">
        <ele>701.9</ele>
        <time>2012-03-26T12:47:56Z</time>
      </trkpt>
      <trkpt lat="43.39271" lon="2.58297">
        <ele>702.38</ele>
        <time>2012-03-26T12:48:00Z</time>
      </trkpt>
      <trkpt lat="43.39272" lon="2.58291">
        <ele>701.9</ele>
        <time>2012-03-26T12:48:04Z</time>
      </trkpt>
      <trkpt lat="43.39273" lon="2.58287">
        <ele>702.38</ele>
        <time>2012-03-26T12:48:07Z</time>
      </trkpt>
      <trkpt lat="43.39274" lon="2.58283">
        <ele>702.38</ele>
        <time>2012-03-26T12:48:09Z</time>
      </trkpt>
      <trkpt lat="43.39275" lon="2.58278">
        <ele>702.38</ele>
        <time>2012-03-26T12:48:12Z</time>
      </trkpt>
      <trkpt lat="43.39277" lon="2.58272">
        <ele>702.86</ele>
        <time>2012-03-26T12:48:18Z</time>
      </trkpt>
      <trkpt lat="43.39285" lon="2.58262">
        <ele>702.38</ele>
        <time>2012-03-26T12:48:27Z</time>
      </trkpt>
      <trkpt lat="43.3929" lon="2.58257">
        <ele>702.38</ele>
        <time>2012-03-26T12:48:31Z</time>
      </trkpt>
      <trkpt lat="43.39293" lon="2.58256">
        <ele>702.86</ele>
        <time>2012-03-26T12:48:34Z</time>
      </trkpt>
      <trkpt lat="43.39301" lon="2.58253">
        <ele>703.34</ele>
        <time>2012-03-26T12:48:41Z</time>
      </trkpt>
      <trkpt lat="43.39303" lon="2.58252">
        <ele>703.82</ele>
        <time>2012-03-26T12:48:46Z</time>
      </trkpt>
      <trkpt lat="43.39303" lon="2.58254">
        <ele>702.86</ele>
        <time>2012-03-26T12:49:01Z</time>
      </trkpt>
      <trkpt lat="43.39303" lon="2.58252">
        <ele>702.86</ele>
        <time>2012-03-26T12:49:15Z</time>
      </trkpt>
      <trkpt lat="43.39306" lon="2.58251">
        <ele>703.82</ele>
        <time>2012-03-26T12:49:25Z</time>
      </trkpt>
      <trkpt lat="43.39309" lon="2.58253">
        <ele>704.3</ele>
        <time>2012-03-26T12:49:28Z</time>
      </trkpt>
      <trkpt lat="43.39311" lon="2.58254">
        <ele>704.3</ele>
        <time>2012-03-26T12:49:30Z</time>
      </trkpt>
      <trkpt lat="43.3932" lon="2.58254">
        <ele>704.3</ele>
        <time>2012-03-26T12:49:38Z</time>
      </trkpt>
      <trkpt lat="43.39324" lon="2.58253">
        <ele>704.78</ele>
        <time>2012-03-26T12:49:42Z</time>
      </trkpt>
      <trkpt lat="43.39328" lon="2.58251">
        <ele>705.26</ele>
        <time>2012-03-26T12:49:46Z</time>
      </trkpt>
      <trkpt lat="43.39345" lon="2.58249">
        <ele>705.75</ele>
        <time>2012-03-26T12:50:00Z</time>
      </trkpt>
      <trkpt lat="43.39356" lon="2.58244">
        <ele>706.23</ele>
        <time>2012-03-26T12:50:10Z</time>
      </trkpt>
      <trkpt lat="43.39368" lon="2.58238">
        <ele>707.19</ele>
        <time>2012-03-26T12:50:20Z</time>
      </trkpt>
      <trkpt lat="43.39373" lon="2.58235">
        <ele>707.19</ele>
        <time>2012-03-26T12:50:25Z</time>
      </trkpt>
      <trkpt lat="43.39375" lon="2.58235">
        <ele>706.71</ele>
        <time>2012-03-26T12:50:27Z</time>
      </trkpt>
      <trkpt lat="43.3938" lon="2.58233">
        <ele>708.63</ele>
        <time>2012-03-26T12:50:42Z</time>
      </trkpt>
      <trkpt lat="43.3938" lon="2.58233">
        <ele>708.63</ele>
        <time>2012-03-26T12:50:49Z</time>
      </trkpt>
      <trkpt lat="43.39382" lon="2.58231">
        <ele>708.63</ele>
        <time>2012-03-26T12:50:51Z</time>
      </trkpt>
      <trkpt lat="43.39383" lon="2.5823">
        <ele>708.63</ele>
        <time>2012-03-26T12:50:53Z</time>
      </trkpt>
      <trkpt lat="43.39387" lon="2.58228">
        <ele>709.11</ele>
        <time>2012-03-26T12:50:57Z</time>
      </trkpt>
      <trkpt lat="43.394" lon="2.58222">
        <ele>710.07</ele>
        <time>2012-03-26T12:51:10Z</time>
      </trkpt>
      <trkpt lat="43.39402" lon="2.58221">
        <ele>710.07</ele>
        <time>2012-03-26T12:51:12Z</time>
      </trkpt>
      <trkpt lat="43.39417" lon="2.58214">
        <ele>711.03</ele>
        <time>2012-03-26T12:51:24Z</time>
      </trkpt>
      <trkpt lat="43.39423" lon="2.58212">
        <ele>710.55</ele>
        <time>2012-03-26T12:51:30Z</time>
      </trkpt>
      <trkpt lat="43.39437" lon="2.58201">
        <ele>711.99</ele>
        <time>2012-03-26T12:51:44Z</time>
      </trkpt>
      <trkpt lat="43.3944" lon="2.58199">
        <ele>712.47</ele>
        <time>2012-03-26T12:51:47Z</time>
      </trkpt>
      <trkpt lat="43.39443" lon="2.58196">
        <ele>712.95</ele>
        <time>2012-03-26T12:51:50Z</time>
      </trkpt>
      <trkpt lat="43.39445" lon="2.58194">
        <ele>712.47</ele>
        <time>2012-03-26T12:51:52Z</time>
      </trkpt>
      <trkpt lat="43.3945" lon="2.58193">
        <ele>712.95</ele>
        <time>2012-03-26T12:51:56Z</time>
      </trkpt>
      <trkpt lat="43.39451" lon="2.5819">
        <ele>712.95</ele>
        <time>2012-03-26T12:51:59Z</time>
      </trkpt>
      <trkpt lat="43.39453" lon="2.58179">
        <ele>713.44</ele>
        <time>2012-03-26T12:52:11Z</time>
      </trkpt>
      <trkpt lat="43.39453" lon="2.58177">
        <ele>713.44</ele>
        <time>2012-03-26T12:52:14Z</time>
      </trkpt>
      <trkpt lat="43.39453" lon="2.58176">
        <ele>713.44</ele>
        <time>2012-03-26T12:52:16Z</time>
      </trkpt>
      <trkpt lat="43.39453" lon="2.58174">
        <ele>713.44</ele>
        <time>2012-03-26T12:52:19Z</time>
      </trkpt>
      <trkpt lat="43.39449" lon="2.58175">
        <ele>713.92</ele>
        <time>2012-03-26T12:52:23Z</time>
      </trkpt>
      <trkpt lat="43.39446" lon="2.58177">
        <ele>713.92</ele>
        <time>2012-03-26T12:52:26Z</time>
      </trkpt>
      <trkpt lat="43.39444" lon="2.58177">
        <ele>713.92</ele>
        <time>2012-03-26T12:52:28Z</time>
      </trkpt>
      <trkpt lat="43.39438" lon="2.58181">
        <ele>713.92</ele>
        <time>2012-03-26T12:52:32Z</time>
      </trkpt>
      <trkpt lat="43.39436" lon="2.58183">
        <ele>713.92</ele>
        <time>2012-03-26T12:52:34Z</time>
      </trkpt>
      <trkpt lat="43.39432" lon="2.58184">
        <ele>713.92</ele>
        <time>2012-03-26T12:52:37Z</time>
      </trkpt>
      <trkpt lat="43.39422" lon="2.58189">
        <ele>713.44</ele>
        <time>2012-03-26T12:52:45Z</time>
      </trkpt>
      <trkpt lat="43.39417" lon="2.58189">
        <ele>713.92</ele>
        <time>2012-03-26T12:52:49Z</time>
      </trkpt>
      <trkpt lat="43.39415" lon="2.58189">
        <ele>713.44</ele>
        <time>2012-03-26T12:52:51Z</time>
      </trkpt>
      <trkpt lat="43.39398" lon="2.58188">
        <ele>713.44</ele>
        <time>2012-03-26T12:53:02Z</time>
      </trkpt>
      <trkpt lat="43.39396" lon="2.58186">
        <ele>713.92</ele>
        <time>2012-03-26T12:53:05Z</time>
      </trkpt>
      <trkpt lat="43.39394" lon="2.58186">
        <ele>713.44</ele>
        <time>2012-03-26T12:53:06Z</time>
      </trkpt>
      <trkpt lat="43.3939" lon="2.58185">
        <ele>713.44</ele>
        <time>2012-03-26T12:53:10Z</time>
      </trkpt>
      <trkpt lat="43.39381" lon="2.58182">
        <ele>712.95</ele>
        <time>2012-03-26T12:53:16Z</time>
      </trkpt>
      <trkpt lat="43.39364" lon="2.58173">
        <ele>712.95</ele>
        <time>2012-03-26T12:53:27Z</time>
      </trkpt>
      <trkpt lat="43.39363" lon="2.58171">
        <ele>712.95</ele>
        <time>2012-03-26T12:53:29Z</time>
      </trkpt>
      <trkpt lat="43.39359" lon="2.58166">
        <ele>712.95</ele>
        <time>2012-03-26T12:53:33Z</time>
      </trkpt>
      <trkpt lat="43.39349" lon="2.5816">
        <ele>712.47</ele>
        <time>2012-03-26T12:53:43Z</time>
      </trkpt>
      <trkpt lat="43.39346" lon="2.58157">
        <ele>711.99</ele>
        <time>2012-03-26T12:53:46Z</time>
      </trkpt>
      <trkpt lat="43.39339" lon="2.58147">
        <ele>712.47</ele>
        <time>2012-03-26T12:53:54Z</time>
      </trkpt>
      <trkpt lat="43.39333" lon="2.58146">
        <ele>712.95</ele>
        <time>2012-03-26T12:53:58Z</time>
      </trkpt>
      <trkpt lat="43.39322" lon="2.58135">
        <ele>712.47</ele>
        <time>2012-03-26T12:54:10Z</time>
      </trkpt>
      <trkpt lat="43.39314" lon="2.58127">
        <ele>712.47</ele>
        <time>2012-03-26T12:54:19Z</time>
      </trkpt>
      <trkpt lat="43.3931" lon="2.58126">
        <ele>711.99</ele>
        <time>2012-03-26T12:54:22Z</time>
      </trkpt>
      <trkpt lat="43.39308" lon="2.58124">
        <ele>711.99</ele>
        <time>2012-03-26T12:54:24Z</time>
      </trkpt>
      <trkpt lat="43.39297" lon="2.58117">
        <ele>711.51</ele>
        <time>2012-03-26T12:54:33Z</time>
      </trkpt>
      <trkpt lat="43.39288" lon="2.58114">
        <ele>711.51</ele>
        <time>2012-03-26T12:54:40Z</time>
      </trkpt>
      <trkpt lat="43.39285" lon="2.58111">
        <ele>711.03</ele>
        <time>2012-03-26T12:54:43Z</time>
      </trkpt>
      <trkpt lat="43.39276" lon="2.58087">
        <ele>710.55</ele>
        <time>2012-03-26T12:54:57Z</time>
      </trkpt>
      <trkpt lat="43.39276" lon="2.5808">
        <ele>710.07</ele>
        <time>2012-03-26T12:55:01Z</time>
      </trkpt>
      <trkpt lat="43.39276" lon="2.58077">
        <ele>710.07</ele>
        <time>2012-03-26T12:55:03Z</time>
      </trkpt>
      <trkpt lat="43.39276" lon="2.58072">
        <ele>709.59</ele>
        <time>2012-03-26T12:55:06Z</time>
      </trkpt>
      <trkpt lat="43.39279" lon="2.58058">
        <ele>710.07</ele>
        <time>2012-03-26T12:55:18Z</time>
      </trkpt>
      <trkpt lat="43.39283" lon="2.58042">
        <ele>709.59</ele>
        <time>2012-03-26T12:55:30Z</time>
      </trkpt>
      <trkpt lat="43.39289" lon="2.58025">
        <ele>709.11</ele>
        <time>2012-03-26T12:55:41Z</time>
      </trkpt>
      <trkpt lat="43.3929" lon="2.58022">
        <ele>709.59</ele>
        <time>2012-03-26T12:55:43Z</time>
      </trkpt>
      <trkpt lat="43.39295" lon="2.58009">
        <ele>710.07</ele>
        <time>2012-03-26T12:55:53Z</time>
      </trkpt>
      <trkpt lat="43.393" lon="2.57994">
        <ele>710.07</ele>
        <time>2012-03-26T12:56:05Z</time>
      </trkpt>
      <trkpt lat="43.39302" lon="2.57989">
        <ele>710.07</ele>
        <time>2012-03-26T12:56:09Z</time>
      </trkpt>
      <trkpt lat="43.39302" lon="2.57985">
        <ele>710.07</ele>
        <time>2012-03-26T12:56:11Z</time>
      </trkpt>
      <trkpt lat="43.39306" lon="2.5797">
        <ele>710.07</ele>
        <time>2012-03-26T12:56:22Z</time>
      </trkpt>
      <trkpt lat="43.39311" lon="2.57949">
        <ele>710.55</ele>
        <time>2012-03-26T12:56:38Z</time>
      </trkpt>
      <trkpt lat="43.39314" lon="2.5794">
        <ele>710.55</ele>
        <time>2012-03-26T12:56:45Z</time>
      </trkpt>
      <trkpt lat="43.39317" lon="2.57936">
        <ele>711.03</ele>
        <time>2012-03-26T12:56:48Z</time>
      </trkpt>
      <trkpt lat="43.39321" lon="2.57923">
        <ele>710.55</ele>
        <time>2012-03-26T12:56:59Z</time>
      </trkpt>
      <trkpt lat="43.39324" lon="2.57916">
        <ele>710.55</ele>
        <time>2012-03-26T12:57:03Z</time>
      </trkpt>
      <trkpt lat="43.39327" lon="2.57904">
        <ele>711.03</ele>
        <time>2012-03-26T12:57:12Z</time>
      </trkpt>
      <trkpt lat="43.39329" lon="2.57889">
        <ele>711.03</ele>
        <time>2012-03-26T12:57:22Z</time>
      </trkpt>
      <trkpt lat="43.3933" lon="2.57885">
        <ele>711.03</ele>
        <time>2012-03-26T12:57:25Z</time>
      </trkpt>
      <trkpt lat="43.3933" lon="2.57881">
        <ele>710.55</ele>
        <time>2012-03-26T12:57:28Z</time>
      </trkpt>
      <trkpt lat="43.39332" lon="2.57877">
        <ele>711.03</ele>
        <time>2012-03-26T12:57:31Z</time>
      </trkpt>
      <trkpt lat="43.39333" lon="2.57867">
        <ele>711.03</ele>
        <time>2012-03-26T12:57:39Z</time>
      </trkpt>
      <trkpt lat="43.39335" lon="2.57855">
        <ele>711.51</ele>
        <time>2012-03-26T12:57:47Z</time>
      </trkpt>
      <trkpt lat="43.39337" lon="2.57842">
        <ele>711.03</ele>
        <time>2012-03-26T12:57:55Z</time>
      </trkpt>
      <trkpt lat="43.39337" lon="2.57838">
        <ele>711.51</ele>
        <time>2012-03-26T12:57:58Z</time>
      </trkpt>
      <trkpt lat="43.3934" lon="2.57824">
        <ele>711.51</ele>
        <time>2012-03-26T12:58:10Z</time>
      </trkpt>
      <trkpt lat="43.3934" lon="2.57822">
        <ele>711.03</ele>
        <time>2012-03-26T12:58:11Z</time>
      </trkpt>
      <trkpt lat="43.39343" lon="2.57816">
        <ele>711.03</ele>
        <time>2012-03-26T12:58:16Z</time>
      </trkpt>
      <trkpt lat="43.39348" lon="2.57802">
        <ele>711.99</ele>
        <time>2012-03-26T12:58:28Z</time>
      </trkpt>
      <trkpt lat="43.39353" lon="2.57786">
        <ele>711.99</ele>
        <time>2012-03-26T12:58:41Z</time>
      </trkpt>
      <trkpt lat="43.39356" lon="2.57772">
        <ele>712.47</ele>
        <time>2012-03-26T12:58:52Z</time>
      </trkpt>
      <trkpt lat="43.39361" lon="2.57751">
        <ele>712.47</ele>
        <time>2012-03-26T12:59:06Z</time>
      </trkpt>
      <trkpt lat="43.39361" lon="2.57749">
        <ele>712.47</ele>
        <time>2012-03-26T12:59:08Z</time>
      </trkpt>
      <trkpt lat="43.39363" lon="2.57738">
        <ele>712.95</ele>
        <time>2012-03-26T12:59:14Z</time>
      </trkpt>
      <trkpt lat="43.39365" lon="2.57731">
        <ele>712.95</ele>
        <time>2012-03-26T12:59:19Z</time>
      </trkpt>
      <trkpt lat="43.39366" lon="2.5772">
        <ele>712.47</ele>
        <time>2012-03-26T12:59:28Z</time>
      </trkpt>
      <trkpt lat="43.39368" lon="2.57707">
        <ele>713.44</ele>
        <time>2012-03-26T12:59:37Z</time>
      </trkpt>
      <trkpt lat="43.39369" lon="2.57702">
        <ele>712.95</ele>
        <time>2012-03-26T12:59:40Z</time>
      </trkpt>
      <trkpt lat="43.39377" lon="2.5768">
        <ele>711.99</ele>
        <time>2012-03-26T12:59:55Z</time>
      </trkpt>
      <trkpt lat="43.39378" lon="2.57676">
        <ele>711.99</ele>
        <time>2012-03-26T12:59:58Z</time>
      </trkpt>
      <trkpt lat="43.39379" lon="2.57672">
        <ele>712.47</ele>
        <time>2012-03-26T13:00:01Z</time>
      </trkpt>
      <trkpt lat="43.39383" lon="2.5766">
        <ele>711.99</ele>
        <time>2012-03-26T13:00:11Z</time>
      </trkpt>
      <trkpt lat="43.39385" lon="2.57653">
        <ele>711.99</ele>
        <time>2012-03-26T13:00:15Z</time>
      </trkpt>
      <trkpt lat="43.3939" lon="2.57631">
        <ele>711.03</ele>
        <time>2012-03-26T13:00:27Z</time>
      </trkpt>
      <trkpt lat="43.39392" lon="2.57622">
        <ele>711.51</ele>
        <time>2012-03-26T13:00:33Z</time>
      </trkpt>
      <trkpt lat="43.39397" lon="2.5761">
        <ele>711.51</ele>
        <time>2012-03-26T13:00:42Z</time>
      </trkpt>
      <trkpt lat="43.39398" lon="2.57604">
        <ele>711.99</ele>
        <time>2012-03-26T13:00:45Z</time>
      </trkpt>
      <trkpt lat="43.39401" lon="2.57581">
        <ele>711.03</ele>
        <time>2012-03-26T13:00:57Z</time>
      </trkpt>
      <trkpt lat="43.39405" lon="2.5757">
        <ele>711.03</ele>
        <time>2012-03-26T13:01:05Z</time>
      </trkpt>
      <trkpt lat="43.39407" lon="2.57566">
        <ele>711.03</ele>
        <time>2012-03-26T13:01:08Z</time>
      </trkpt>
      <trkpt lat="43.39415" lon="2.57545">
        <ele>710.55</ele>
        <time>2012-03-26T13:01:23Z</time>
      </trkpt>
      <trkpt lat="43.39416" lon="2.57533">
        <ele>710.07</ele>
        <time>2012-03-26T13:01:31Z</time>
      </trkpt>
      <trkpt lat="43.39419" lon="2.57525">
        <ele>710.07</ele>
        <time>2012-03-26T13:01:38Z</time>
      </trkpt>
      <trkpt lat="43.3942" lon="2.57517">
        <ele>709.59</ele>
        <time>2012-03-26T13:01:43Z</time>
      </trkpt>
      <trkpt lat="43.39431" lon="2.57494">
        <ele>710.07</ele>
        <time>2012-03-26T13:01:57Z</time>
      </trkpt>
      <trkpt lat="43.39432" lon="2.57493">
        <ele>709.59</ele>
        <time>2012-03-26T13:01:58Z</time>
      </trkpt>
      <trkpt lat="43.39441" lon="2.57485">
        <ele>710.55</ele>
        <time>2012-03-26T13:02:09Z</time>
      </trkpt>
      <trkpt lat="43.39444" lon="2.57483">
        <ele>710.07</ele>
        <time>2012-03-26T13:02:12Z</time>
      </trkpt>
      <trkpt lat="43.39453" lon="2.57473">
        <ele>710.55</ele>
        <time>2012-03-26T13:02:22Z</time>
      </trkpt>
      <trkpt lat="43.39456" lon="2.5747">
        <ele>711.03</ele>
        <time>2012-03-26T13:02:26Z</time>
      </trkpt>
      <trkpt lat="43.39459" lon="2.57468">
        <ele>711.03</ele>
        <time>2012-03-26T13:02:29Z</time>
      </trkpt>
      <trkpt lat="43.39463" lon="2.57463">
        <ele>711.03</ele>
        <time>2012-03-26T13:02:35Z</time>
      </trkpt>
      <trkpt lat="43.39465" lon="2.5746">
        <ele>711.03</ele>
        <time>2012-03-26T13:02:38Z</time>
      </trkpt>
      <trkpt lat="43.39468" lon="2.57458">
        <ele>711.03</ele>
        <time>2012-03-26T13:02:41Z</time>
      </trkpt>
      <trkpt lat="43.39474" lon="2.57451">
        <ele>711.99</ele>
        <time>2012-03-26T13:02:48Z</time>
      </trkpt>
      <trkpt lat="43.39476" lon="2.57448">
        <ele>711.51</ele>
        <time>2012-03-26T13:02:51Z</time>
      </trkpt>
      <trkpt lat="43.39485" lon="2.5744">
        <ele>711.99</ele>
        <time>2012-03-26T13:03:00Z</time>
      </trkpt>
      <trkpt lat="43.39487" lon="2.57438">
        <ele>711.99</ele>
        <time>2012-03-26T13:03:02Z</time>
      </trkpt>
      <trkpt lat="43.3949" lon="2.57437">
        <ele>711.99</ele>
        <time>2012-03-26T13:03:05Z</time>
      </trkpt>
      <trkpt lat="43.39493" lon="2.57434">
        <ele>711.99</ele>
        <time>2012-03-26T13:03:08Z</time>
      </trkpt>
      <trkpt lat="43.39502" lon="2.57421">
        <ele>711.99</ele>
        <time>2012-03-26T13:03:20Z</time>
      </trkpt>
      <trkpt lat="43.39504" lon="2.57418">
        <ele>711.99</ele>
        <time>2012-03-26T13:03:23Z</time>
      </trkpt>
      <trkpt lat="43.39506" lon="2.57416">
        <ele>712.47</ele>
        <time>2012-03-26T13:03:26Z</time>
      </trkpt>
      <trkpt lat="43.3951" lon="2.57412">
        <ele>712.47</ele>
        <time>2012-03-26T13:03:30Z</time>
      </trkpt>
      <trkpt lat="43.39513" lon="2.5741">
        <ele>712.47</ele>
        <time>2012-03-26T13:03:33Z</time>
      </trkpt>
      <trkpt lat="43.3952" lon="2.57407">
        <ele>712.47</ele>
        <time>2012-03-26T13:03:39Z</time>
      </trkpt>
      <trkpt lat="43.39525" lon="2.574">
        <ele>712.47</ele>
        <time>2012-03-26T13:03:46Z</time>
      </trkpt>
      <trkpt lat="43.39526" lon="2.57397">
        <ele>712.95</ele>
        <time>2012-03-26T13:03:49Z</time>
      </trkpt>
      <trkpt lat="43.39528" lon="2.57395">
        <ele>712.95</ele>
        <time>2012-03-26T13:03:51Z</time>
      </trkpt>
      <trkpt lat="43.39531" lon="2.5739">
        <ele>712.95</ele>
        <time>2012-03-26T13:03:55Z</time>
      </trkpt>
      <trkpt lat="43.39532" lon="2.57387">
        <ele>712.95</ele>
        <time>2012-03-26T13:03:58Z</time>
      </trkpt>
      <trkpt lat="43.39535" lon="2.5738">
        <ele>712.95</ele>
        <time>2012-03-26T13:04:03Z</time>
      </trkpt>
      <trkpt lat="43.39542" lon="2.5737">
        <ele>712.95</ele>
        <time>2012-03-26T13:04:12Z</time>
      </trkpt>
      <trkpt lat="43.3955" lon="2.5736">
        <ele>713.92</ele>
        <time>2012-03-26T13:04:22Z</time>
      </trkpt>
      <trkpt lat="43.39551" lon="2.57358">
        <ele>713.92</ele>
        <time>2012-03-26T13:04:24Z</time>
      </trkpt>
      <trkpt lat="43.39553" lon="2.57355">
        <ele>713.92</ele>
        <time>2012-03-26T13:04:27Z</time>
      </trkpt>
      <trkpt lat="43.3956" lon="2.57341">
        <ele>714.4</ele>
        <time>2012-03-26T13:04:39Z</time>
      </trkpt>
      <trkpt lat="43.39564" lon="2.57336">
        <ele>714.4</ele>
        <time>2012-03-26T13:04:44Z</time>
      </trkpt>
      <trkpt lat="43.39569" lon="2.57327">
        <ele>714.4</ele>
        <time>2012-03-26T13:04:53Z</time>
      </trkpt>
      <trkpt lat="43.39576" lon="2.57317">
        <ele>714.88</ele>
        <time>2012-03-26T13:05:02Z</time>
      </trkpt>
      <trkpt lat="43.39578" lon="2.57315">
        <ele>715.36</ele>
        <time>2012-03-26T13:05:05Z</time>
      </trkpt>
      <trkpt lat="43.39587" lon="2.57302">
        <ele>715.84</ele>
        <time>2012-03-26T13:05:18Z</time>
      </trkpt>
      <trkpt lat="43.39596" lon="2.5729">
        <ele>716.32</ele>
        <time>2012-03-26T13:05:30Z</time>
      </trkpt>
      <trkpt lat="43.39608" lon="2.57276">
        <ele>717.28</ele>
        <time>2012-03-26T13:05:45Z</time>
      </trkpt>
      <trkpt lat="43.39609" lon="2.57275">
        <ele>717.76</ele>
        <time>2012-03-26T13:05:46Z</time>
      </trkpt>
      <trkpt lat="43.39614" lon="2.57267">
        <ele>717.76</ele>
        <time>2012-03-26T13:05:55Z</time>
      </trkpt>
      <trkpt lat="43.39617" lon="2.57263">
        <ele>718.24</ele>
        <time>2012-03-26T13:05:58Z</time>
      </trkpt>
      <trkpt lat="43.39624" lon="2.57251">
        <ele>718.24</ele>
        <time>2012-03-26T13:06:08Z</time>
      </trkpt>
      <trkpt lat="43.39624" lon="2.57247">
        <ele>718.72</ele>
        <time>2012-03-26T13:06:11Z</time>
      </trkpt>
      <trkpt lat="43.39627" lon="2.57239">
        <ele>718.72</ele>
        <time>2012-03-26T13:06:18Z</time>
      </trkpt>
      <trkpt lat="43.39629" lon="2.57235">
        <ele>718.72</ele>
        <time>2012-03-26T13:06:21Z</time>
      </trkpt>
      <trkpt lat="43.39636" lon="2.57222">
        <ele>719.2</ele>
        <time>2012-03-26T13:06:32Z</time>
      </trkpt>
      <trkpt lat="43.39641" lon="2.57218">
        <ele>719.68</ele>
        <time>2012-03-26T13:06:38Z</time>
      </trkpt>
      <trkpt lat="43.39643" lon="2.57215">
        <ele>719.68</ele>
        <time>2012-03-26T13:06:40Z</time>
      </trkpt>
      <trkpt lat="43.39644" lon="2.57213">
        <ele>719.68</ele>
        <time>2012-03-26T13:06:42Z</time>
      </trkpt>
      <trkpt lat="43.39648" lon="2.57208">
        <ele>720.16</ele>
        <time>2012-03-26T13:06:48Z</time>
      </trkpt>
      <trkpt lat="43.39655" lon="2.57199">
        <ele>721.13</ele>
        <time>2012-03-26T13:07:01Z</time>
      </trkpt>
      <trkpt lat="43.39656" lon="2.57195">
        <ele>721.61</ele>
        <time>2012-03-26T13:07:12Z</time>
      </trkpt>
      <trkpt lat="43.39656" lon="2.57189">
        <ele>722.57</ele>
        <time>2012-03-26T13:07:23Z</time>
      </trkpt>
      <trkpt lat="43.39654" lon="2.57179">
        <ele>722.09</ele>
        <time>2012-03-26T13:07:30Z</time>
      </trkpt>
      <trkpt lat="43.39653" lon="2.57177">
        <ele>722.57</ele>
        <time>2012-03-26T13:07:32Z</time>
      </trkpt>
      <trkpt lat="43.3965" lon="2.57174">
        <ele>722.57</ele>
        <time>2012-03-26T13:07:39Z</time>
      </trkpt>
      <trkpt lat="43.39645" lon="2.57172">
        <ele>723.05</ele>
        <time>2012-03-26T13:07:52Z</time>
      </trkpt>
      <trkpt lat="43.39643" lon="2.57174">
        <ele>724.01</ele>
        <time>2012-03-26T13:08:04Z</time>
      </trkpt>
      <trkpt lat="43.3964" lon="2.57176">
        <ele>724.49</ele>
        <time>2012-03-26T13:08:08Z</time>
      </trkpt>
      <trkpt lat="43.39634" lon="2.5718">
        <ele>725.45</ele>
        <time>2012-03-26T13:08:16Z</time>
      </trkpt>
      <trkpt lat="43.39628" lon="2.57182">
        <ele>725.93</ele>
        <time>2012-03-26T13:08:25Z</time>
      </trkpt>
      <trkpt lat="43.39623" lon="2.57182">
        <ele>726.41</ele>
        <time>2012-03-26T13:08:38Z</time>
      </trkpt>
      <trkpt lat="43.39623" lon="2.57182">
        <ele>726.89</ele>
        <time>2012-03-26T13:08:56Z</time>
      </trkpt>
      <trkpt lat="43.39623" lon="2.5718">
        <ele>726.89</ele>
        <time>2012-03-26T13:09:11Z</time>
      </trkpt>
      <trkpt lat="43.39623" lon="2.5718">
        <ele>725.45</ele>
        <time>2012-03-26T13:09:15Z</time>
      </trkpt>
      <trkpt lat="43.39623" lon="2.5718">
        <ele>726.89</ele>
        <time>2012-03-26T13:09:35Z</time>
      </trkpt>
      <trkpt lat="43.39622" lon="2.57181">
        <ele>727.86</ele>
        <time>2012-03-26T13:09:55Z</time>
      </trkpt>
      <trkpt lat="43.39619" lon="2.57176">
        <ele>727.86</ele>
        <time>2012-03-26T13:10:02Z</time>
      </trkpt>
      <trkpt lat="43.39616" lon="2.57174">
        <ele>727.86</ele>
        <time>2012-03-26T13:10:04Z</time>
      </trkpt>
      <trkpt lat="43.39607" lon="2.57169">
        <ele>728.34</ele>
        <time>2012-03-26T13:10:09Z</time>
      </trkpt>
      <trkpt lat="43.39598" lon="2.57156">
        <ele>728.82</ele>
        <time>2012-03-26T13:10:19Z</time>
      </trkpt>
      <trkpt lat="43.39592" lon="2.57153">
        <ele>729.3</ele>
        <time>2012-03-26T13:10:25Z</time>
      </trkpt>
      <trkpt lat="43.39574" lon="2.57147">
        <ele>730.74</ele>
        <time>2012-03-26T13:10:38Z</time>
      </trkpt>
      <trkpt lat="43.3957" lon="2.57143">
        <ele>731.7</ele>
        <time>2012-03-26T13:10:43Z</time>
      </trkpt>
      <trkpt lat="43.39566" lon="2.57138">
        <ele>732.18</ele>
        <time>2012-03-26T13:10:47Z</time>
      </trkpt>
      <trkpt lat="43.39564" lon="2.57135">
        <ele>732.18</ele>
        <time>2012-03-26T13:10:49Z</time>
      </trkpt>
      <trkpt lat="43.39559" lon="2.57128">
        <ele>733.14</ele>
        <time>2012-03-26T13:10:55Z</time>
      </trkpt>
      <trkpt lat="43.39548" lon="2.57116">
        <ele>734.58</ele>
        <time>2012-03-26T13:11:07Z</time>
      </trkpt>
      <trkpt lat="43.39541" lon="2.57115">
        <ele>735.55</ele>
        <time>2012-03-26T13:11:13Z</time>
      </trkpt>
      <trkpt lat="43.39536" lon="2.57113">
        <ele>736.03</ele>
        <time>2012-03-26T13:11:17Z</time>
      </trkpt>
      <trkpt lat="43.39521" lon="2.57103">
        <ele>736.99</ele>
        <time>2012-03-26T13:11:29Z</time>
      </trkpt>
      <trkpt lat="43.39514" lon="2.57101">
        <ele>738.43</ele>
        <time>2012-03-26T13:11:34Z</time>
      </trkpt>
      <trkpt lat="43.39509" lon="2.57101">
        <ele>738.91</ele>
        <time>2012-03-26T13:11:39Z</time>
      </trkpt>
      <trkpt lat="43.39493" lon="2.57097">
        <ele>739.87</ele>
        <time>2012-03-26T13:11:51Z</time>
      </trkpt>
      <trkpt lat="43.39481" lon="2.57093">
        <ele>740.83</ele>
        <time>2012-03-26T13:12:01Z</time>
      </trkpt>
      <trkpt lat="43.39476" lon="2.5709">
        <ele>741.31</ele>
        <time>2012-03-26T13:12:05Z</time>
      </trkpt>
      <trkpt lat="43.39474" lon="2.5709">
        <ele>741.31</ele>
        <time>2012-03-26T13:12:07Z</time>
      </trkpt>
      <trkpt lat="43.3947" lon="2.57088">
        <ele>741.79</ele>
        <time>2012-03-26T13:12:11Z</time>
      </trkpt>
      <trkpt lat="43.39464" lon="2.57083">
        <ele>742.28</ele>
        <time>2012-03-26T13:12:23Z</time>
      </trkpt>
      <trkpt lat="43.3946" lon="2.57082">
        <ele>742.28</ele>
        <time>2012-03-26T13:12:29Z</time>
      </trkpt>
      <trkpt lat="43.39457" lon="2.57084">
        <ele>741.79</ele>
        <time>2012-03-26T13:12:41Z</time>
      </trkpt>
      <trkpt lat="43.39458" lon="2.57083">
        <ele>741.79</ele>
        <time>2012-03-26T13:12:59Z</time>
      </trkpt>
      <trkpt lat="43.39457" lon="2.57081">
        <ele>741.79</ele>
        <time>2012-03-26T13:13:18Z</time>
      </trkpt>
      <trkpt lat="43.39457" lon="2.57077">
        <ele>741.31</ele>
        <time>2012-03-26T13:13:21Z</time>
      </trkpt>
      <trkpt lat="43.39457" lon="2.57071">
        <ele>742.28</ele>
        <time>2012-03-26T13:13:32Z</time>
      </trkpt>
      <trkpt lat="43.39457" lon="2.57072">
        <ele>742.28</ele>
        <time>2012-03-26T13:13:43Z</time>
      </trkpt>
      <trkpt lat="43.39455" lon="2.57077">
        <ele>741.31</ele>
        <time>2012-03-26T13:14:06Z</time>
      </trkpt>
      <trkpt lat="43.39455" lon="2.57078">
        <ele>741.79</ele>
        <time>2012-03-26T13:14:23Z</time>
      </trkpt>
      <trkpt lat="43.39455" lon="2.57077">
        <ele>741.31</ele>
        <time>2012-03-26T13:14:42Z</time>
      </trkpt>
      <trkpt lat="43.39457" lon="2.57076">
        <ele>740.35</ele>
        <time>2012-03-26T13:14:55Z</time>
      </trkpt>
      <trkpt lat="43.39457" lon="2.57076">
        <ele>741.31</ele>
        <time>2012-03-26T13:15:13Z</time>
      </trkpt>
      <trkpt lat="43.39457" lon="2.57076">
        <ele>741.31</ele>
        <time>2012-03-26T13:15:37Z</time>
      </trkpt>
      <trkpt lat="43.39457" lon="2.57076">
        <ele>740.83</ele>
        <time>2012-03-26T13:15:58Z</time>
      </trkpt>
      <trkpt lat="43.39457" lon="2.57075">
        <ele>741.31</ele>
        <time>2012-03-26T13:16:16Z</time>
      </trkpt>
      <trkpt lat="43.39455" lon="2.57075">
        <ele>741.31</ele>
        <time>2012-03-26T13:16:32Z</time>
      </trkpt>
      <trkpt lat="43.39455" lon="2.57076">
        <ele>741.31</ele>
        <time>2012-03-26T13:16:54Z</time>
      </trkpt>
      <trkpt lat="43.39456" lon="2.57076">
        <ele>741.31</ele>
        <time>2012-03-26T13:17:13Z</time>
      </trkpt>
      <trkpt lat="43.39456" lon="2.57076">
        <ele>741.31</ele>
        <time>2012-03-26T13:17:35Z</time>
      </trkpt>
      <trkpt lat="43.39456" lon="2.57076">
        <ele>741.31</ele>
        <time>2012-03-26T13:17:59Z</time>
      </trkpt>
      <trkpt lat="43.39456" lon="2.57076">
        <ele>741.31</ele>
        <time>2012-03-26T13:18:29Z</time>
      </trkpt>
      <trkpt lat="43.39456" lon="2.57076">
        <ele>741.79</ele>
        <time>2012-03-26T13:18:53Z</time>
      </trkpt>
      <trkpt lat="43.39457" lon="2.57071">
        <ele>742.28</ele>
        <time>2012-03-26T13:19:06Z</time>
      </trkpt>
      <trkpt lat="43.39455" lon="2.57069">
        <ele>742.76</ele>
        <time>2012-03-26T13:19:12Z</time>
      </trkpt>
      <trkpt lat="43.39452" lon="2.57062">
        <ele>743.24</ele>
        <time>2012-03-26T13:19:25Z</time>
      </trkpt>
      <trkpt lat="43.39452" lon="2.57061">
        <ele>743.24</ele>
        <time>2012-03-26T13:19:27Z</time>
      </trkpt>
      <trkpt lat="43.39452" lon="2.57058">
        <ele>743.24</ele>
        <time>2012-03-26T13:19:29Z</time>
      </trkpt>
      <trkpt lat="43.3945" lon="2.57054">
        <ele>743.24</ele>
        <time>2012-03-26T13:19:34Z</time>
      </trkpt>
      <trkpt lat="43.39449" lon="2.57052">
        <ele>744.2</ele>
        <time>2012-03-26T13:19:36Z</time>
      </trkpt>
      <trkpt lat="43.39447" lon="2.5704">
        <ele>744.2</ele>
        <time>2012-03-26T13:19:44Z</time>
      </trkpt>
      <trkpt lat="43.39447" lon="2.57037">
        <ele>744.68</ele>
        <time>2012-03-26T13:19:46Z</time>
      </trkpt>
      <trkpt lat="43.39446" lon="2.57035">
        <ele>745.16</ele>
        <time>2012-03-26T13:19:48Z</time>
      </trkpt>
      <trkpt lat="43.39447" lon="2.57026">
        <ele>745.64</ele>
        <time>2012-03-26T13:19:54Z</time>
      </trkpt>
      <trkpt lat="43.39447" lon="2.57023">
        <ele>745.64</ele>
        <time>2012-03-26T13:19:56Z</time>
      </trkpt>
      <trkpt lat="43.39448" lon="2.57009">
        <ele>746.12</ele>
        <time>2012-03-26T13:20:06Z</time>
      </trkpt>
      <trkpt lat="43.39449" lon="2.56987">
        <ele>747.56</ele>
        <time>2012-03-26T13:20:21Z</time>
      </trkpt>
      <trkpt lat="43.3945" lon="2.5698">
        <ele>748.04</ele>
        <time>2012-03-26T13:20:26Z</time>
      </trkpt>
      <trkpt lat="43.3945" lon="2.56977">
        <ele>748.52</ele>
        <time>2012-03-26T13:20:28Z</time>
      </trkpt>
      <trkpt lat="43.39451" lon="2.56972">
        <ele>748.52</ele>
        <time>2012-03-26T13:20:32Z</time>
      </trkpt>
      <trkpt lat="43.3945" lon="2.56956">
        <ele>749.49</ele>
        <time>2012-03-26T13:20:44Z</time>
      </trkpt>
      <trkpt lat="43.39451" lon="2.5694">
        <ele>750.45</ele>
        <time>2012-03-26T13:20:58Z</time>
      </trkpt>
      <trkpt lat="43.39452" lon="2.56934">
        <ele>750.93</ele>
        <time>2012-03-26T13:21:03Z</time>
      </trkpt>
      <trkpt lat="43.39453" lon="2.56929">
        <ele>750.93</ele>
        <time>2012-03-26T13:21:07Z</time>
      </trkpt>
      <trkpt lat="43.39456" lon="2.56912">
        <ele>752.85</ele>
        <time>2012-03-26T13:21:20Z</time>
      </trkpt>
      <trkpt lat="43.39457" lon="2.56895">
        <ele>753.81</ele>
        <time>2012-03-26T13:21:34Z</time>
      </trkpt>
      <trkpt lat="43.39458" lon="2.56886">
        <ele>754.77</ele>
        <time>2012-03-26T13:21:42Z</time>
      </trkpt>
      <trkpt lat="43.39459" lon="2.56876">
        <ele>755.25</ele>
        <time>2012-03-26T13:21:51Z</time>
      </trkpt>
      <trkpt lat="43.3946" lon="2.56873">
        <ele>755.25</ele>
        <time>2012-03-26T13:21:53Z</time>
      </trkpt>
      <trkpt lat="43.3946" lon="2.56859">
        <ele>756.69</ele>
        <time>2012-03-26T13:22:04Z</time>
      </trkpt>
      <trkpt lat="43.3946" lon="2.56858">
        <ele>756.69</ele>
        <time>2012-03-26T13:22:06Z</time>
      </trkpt>
      <trkpt lat="43.39461" lon="2.56843">
        <ele>757.18</ele>
        <time>2012-03-26T13:22:17Z</time>
      </trkpt>
      <trkpt lat="43.39462" lon="2.56826">
        <ele>758.14</ele>
        <time>2012-03-26T13:22:29Z</time>
      </trkpt>
      <trkpt lat="43.39462" lon="2.56814">
        <ele>759.58</ele>
        <time>2012-03-26T13:22:39Z</time>
      </trkpt>
      <trkpt lat="43.39461" lon="2.56805">
        <ele>759.58</ele>
        <time>2012-03-26T13:22:46Z</time>
      </trkpt>
      <trkpt lat="43.39458" lon="2.56794">
        <ele>760.54</ele>
        <time>2012-03-26T13:22:56Z</time>
      </trkpt>
      <trkpt lat="43.39456" lon="2.56782">
        <ele>761.98</ele>
        <time>2012-03-26T13:23:10Z</time>
      </trkpt>
      <trkpt lat="43.39455" lon="2.5678">
        <ele>761.98</ele>
        <time>2012-03-26T13:23:13Z</time>
      </trkpt>
      <trkpt lat="43.39455" lon="2.56776">
        <ele>761.98</ele>
        <time>2012-03-26T13:23:15Z</time>
      </trkpt>
      <trkpt lat="43.39452" lon="2.56761">
        <ele>763.9</ele>
        <time>2012-03-26T13:23:29Z</time>
      </trkpt>
      <trkpt lat="43.39449" lon="2.56749">
        <ele>764.87</ele>
        <time>2012-03-26T13:23:41Z</time>
      </trkpt>
      <trkpt lat="43.39446" lon="2.56736">
        <ele>766.31</ele>
        <time>2012-03-26T13:23:52Z</time>
      </trkpt>
      <trkpt lat="43.39445" lon="2.56736">
        <ele>766.31</ele>
        <time>2012-03-26T13:23:54Z</time>
      </trkpt>
      <trkpt lat="43.39442" lon="2.56719">
        <ele>767.75</ele>
        <time>2012-03-26T13:24:05Z</time>
      </trkpt>
      <trkpt lat="43.39441" lon="2.56714">
        <ele>767.75</ele>
        <time>2012-03-26T13:24:10Z</time>
      </trkpt>
      <trkpt lat="43.39436" lon="2.56702">
        <ele>768.71</ele>
        <time>2012-03-26T13:24:19Z</time>
      </trkpt>
      <trkpt lat="43.39431" lon="2.56673">
        <ele>770.15</ele>
        <time>2012-03-26T13:24:32Z</time>
      </trkpt>
      <trkpt lat="43.3943" lon="2.56651">
        <ele>771.11</ele>
        <time>2012-03-26T13:24:43Z</time>
      </trkpt>
      <trkpt lat="43.3943" lon="2.56643">
        <ele>771.6</ele>
        <time>2012-03-26T13:24:48Z</time>
      </trkpt>
      <trkpt lat="43.3943" lon="2.56638">
        <ele>771.6</ele>
        <time>2012-03-26T13:24:51Z</time>
      </trkpt>
      <trkpt lat="43.39429" lon="2.56627">
        <ele>773.04</ele>
        <time>2012-03-26T13:24:59Z</time>
      </trkpt>
      <trkpt lat="43.39429" lon="2.56625">
        <ele>773.04</ele>
        <time>2012-03-26T13:25:01Z</time>
      </trkpt>
      <trkpt lat="43.39429" lon="2.56615">
        <ele>774</ele>
        <time>2012-03-26T13:25:08Z</time>
      </trkpt>
      <trkpt lat="43.39429" lon="2.56612">
        <ele>773.52</ele>
        <time>2012-03-26T13:25:10Z</time>
      </trkpt>
      <trkpt lat="43.39429" lon="2.56608">
        <ele>774</ele>
        <time>2012-03-26T13:25:13Z</time>
      </trkpt>
      <trkpt lat="43.3943" lon="2.56591">
        <ele>774.96</ele>
        <time>2012-03-26T13:25:25Z</time>
      </trkpt>
      <trkpt lat="43.39431" lon="2.56579">
        <ele>776.4</ele>
        <time>2012-03-26T13:25:34Z</time>
      </trkpt>
      <trkpt lat="43.39433" lon="2.56567">
        <ele>777.36</ele>
        <time>2012-03-26T13:25:43Z</time>
      </trkpt>
      <trkpt lat="43.39439" lon="2.56556">
        <ele>778.32</ele>
        <time>2012-03-26T13:25:56Z</time>
      </trkpt>
      <trkpt lat="43.39439" lon="2.56556">
        <ele>778.32</ele>
        <time>2012-03-26T13:26:15Z</time>
      </trkpt>
      <trkpt lat="43.39439" lon="2.56556">
        <ele>777.84</ele>
        <time>2012-03-26T13:26:34Z</time>
      </trkpt>
      <trkpt lat="43.39439" lon="2.56556">
        <ele>778.32</ele>
        <time>2012-03-26T13:26:52Z</time>
      </trkpt>
      <trkpt lat="43.39439" lon="2.56556">
        <ele>777.84</ele>
        <time>2012-03-26T13:27:15Z</time>
      </trkpt>
      <trkpt lat="43.39439" lon="2.56555">
        <ele>777.36</ele>
        <time>2012-03-26T13:27:39Z</time>
      </trkpt>
      <trkpt lat="43.39439" lon="2.56555">
        <ele>777.36</ele>
        <time>2012-03-26T13:27:57Z</time>
      </trkpt>
      <trkpt lat="43.39441" lon="2.56539">
        <ele>778.81</ele>
        <time>2012-03-26T13:28:10Z</time>
      </trkpt>
      <trkpt lat="43.39441" lon="2.5653">
        <ele>779.29</ele>
        <time>2012-03-26T13:28:17Z</time>
      </trkpt>
      <trkpt lat="43.39443" lon="2.56511">
        <ele>780.25</ele>
        <time>2012-03-26T13:28:32Z</time>
      </trkpt>
      <trkpt lat="43.39442" lon="2.56495">
        <ele>781.21</ele>
        <time>2012-03-26T13:28:45Z</time>
      </trkpt>
      <trkpt lat="43.39445" lon="2.56479">
        <ele>782.65</ele>
        <time>2012-03-26T13:28:58Z</time>
      </trkpt>
      <trkpt lat="43.39445" lon="2.56476">
        <ele>783.13</ele>
        <time>2012-03-26T13:29:01Z</time>
      </trkpt>
      <trkpt lat="43.39447" lon="2.56461">
        <ele>783.61</ele>
        <time>2012-03-26T13:29:13Z</time>
      </trkpt>
      <trkpt lat="43.3945" lon="2.56447">
        <ele>785.05</ele>
        <time>2012-03-26T13:29:25Z</time>
      </trkpt>
      <trkpt lat="43.3945" lon="2.56439">
        <ele>785.05</ele>
        <time>2012-03-26T13:29:31Z</time>
      </trkpt>
      <trkpt lat="43.39452" lon="2.56425">
        <ele>786.98</ele>
        <time>2012-03-26T13:29:42Z</time>
      </trkpt>
      <trkpt lat="43.3945" lon="2.56412">
        <ele>787.94</ele>
        <time>2012-03-26T13:29:56Z</time>
      </trkpt>
      <trkpt lat="43.39449" lon="2.56408">
        <ele>788.42</ele>
        <time>2012-03-26T13:30:12Z</time>
      </trkpt>
      <trkpt lat="43.39449" lon="2.56408">
        <ele>788.9</ele>
        <time>2012-03-26T13:30:28Z</time>
      </trkpt>
      <trkpt lat="43.39448" lon="2.56402">
        <ele>789.38</ele>
        <time>2012-03-26T13:30:32Z</time>
      </trkpt>
      <trkpt lat="43.39448" lon="2.56393">
        <ele>789.86</ele>
        <time>2012-03-26T13:30:36Z</time>
      </trkpt>
      <trkpt lat="43.39447" lon="2.56389">
        <ele>790.34</ele>
        <time>2012-03-26T13:30:39Z</time>
      </trkpt>
      <trkpt lat="43.39447" lon="2.56386">
        <ele>789.86</ele>
        <time>2012-03-26T13:30:41Z</time>
      </trkpt>
      <trkpt lat="43.39445" lon="2.5638">
        <ele>790.34</ele>
        <time>2012-03-26T13:30:45Z</time>
      </trkpt>
      <trkpt lat="43.39441" lon="2.5636">
        <ele>791.78</ele>
        <time>2012-03-26T13:31:00Z</time>
      </trkpt>
      <trkpt lat="43.3944" lon="2.5634">
        <ele>792.74</ele>
        <time>2012-03-26T13:31:13Z</time>
      </trkpt>
      <trkpt lat="43.3944" lon="2.56338">
        <ele>792.74</ele>
        <time>2012-03-26T13:31:14Z</time>
      </trkpt>
      <trkpt lat="43.3944" lon="2.5633">
        <ele>793.22</ele>
        <time>2012-03-26T13:31:20Z</time>
      </trkpt>
      <trkpt lat="43.39438" lon="2.56316">
        <ele>794.67</ele>
        <time>2012-03-26T13:31:30Z</time>
      </trkpt>
      <trkpt lat="43.39435" lon="2.56301">
        <ele>795.63</ele>
        <time>2012-03-26T13:31:41Z</time>
      </trkpt>
      <trkpt lat="43.39434" lon="2.56295">
        <ele>796.59</ele>
        <time>2012-03-26T13:31:45Z</time>
      </trkpt>
      <trkpt lat="43.39436" lon="2.56279">
        <ele>797.55</ele>
        <time>2012-03-26T13:31:57Z</time>
      </trkpt>
      <trkpt lat="43.39439" lon="2.56265">
        <ele>798.51</ele>
        <time>2012-03-26T13:32:07Z</time>
      </trkpt>
      <trkpt lat="43.39439" lon="2.56262">
        <ele>798.51</ele>
        <time>2012-03-26T13:32:09Z</time>
      </trkpt>
      <trkpt lat="43.3944" lon="2.56255">
        <ele>799.47</ele>
        <time>2012-03-26T13:32:20Z</time>
      </trkpt>
      <trkpt lat="43.39441" lon="2.56252">
        <ele>799.47</ele>
        <time>2012-03-26T13:32:23Z</time>
      </trkpt>
      <trkpt lat="43.39443" lon="2.56248">
        <ele>799.95</ele>
        <time>2012-03-26T13:32:26Z</time>
      </trkpt>
      <trkpt lat="43.39445" lon="2.5624">
        <ele>799.95</ele>
        <time>2012-03-26T13:32:32Z</time>
      </trkpt>
      <trkpt lat="43.39452" lon="2.56226">
        <ele>801.88</ele>
        <time>2012-03-26T13:32:45Z</time>
      </trkpt>
      <trkpt lat="43.39454" lon="2.56225">
        <ele>801.4</ele>
        <time>2012-03-26T13:32:51Z</time>
      </trkpt>
      <trkpt lat="43.39455" lon="2.56221">
        <ele>801.88</ele>
        <time>2012-03-26T13:32:55Z</time>
      </trkpt>
      <trkpt lat="43.39455" lon="2.56219">
        <ele>802.84</ele>
        <time>2012-03-26T13:33:08Z</time>
      </trkpt>
      <trkpt lat="43.39456" lon="2.5622">
        <ele>801.88</ele>
        <time>2012-03-26T13:33:24Z</time>
      </trkpt>
      <trkpt lat="43.39455" lon="2.56218">
        <ele>801.88</ele>
        <time>2012-03-26T13:33:33Z</time>
      </trkpt>
      <trkpt lat="43.39455" lon="2.56214">
        <ele>801.88</ele>
        <time>2012-03-26T13:33:36Z</time>
      </trkpt>
      <trkpt lat="43.39457" lon="2.56212">
        <ele>802.36</ele>
        <time>2012-03-26T13:33:39Z</time>
      </trkpt>
      <trkpt lat="43.39468" lon="2.56205">
        <ele>802.84</ele>
        <time>2012-03-26T13:33:53Z</time>
      </trkpt>
      <trkpt lat="43.39466" lon="2.56203">
        <ele>802.36</ele>
        <time>2012-03-26T13:34:04Z</time>
      </trkpt>
      <trkpt lat="43.39468" lon="2.56202">
        <ele>802.84</ele>
        <time>2012-03-26T13:34:18Z</time>
      </trkpt>
      <trkpt lat="43.39469" lon="2.56203">
        <ele>802.84</ele>
        <time>2012-03-26T13:34:42Z</time>
      </trkpt>
      <trkpt lat="43.39469" lon="2.56203">
        <ele>802.84</ele>
        <time>2012-03-26T13:35:08Z</time>
      </trkpt>
      <trkpt lat="43.39469" lon="2.56205">
        <ele>802.84</ele>
        <time>2012-03-26T13:35:25Z</time>
      </trkpt>
      <trkpt lat="43.39469" lon="2.56205">
        <ele>803.8</ele>
        <time>2012-03-26T13:35:34Z</time>
      </trkpt>
      <trkpt lat="43.39469" lon="2.56205">
        <ele>802.36</ele>
        <time>2012-03-26T13:36:03Z</time>
      </trkpt>
      <trkpt lat="43.39469" lon="2.56205">
        <ele>803.32</ele>
        <time>2012-03-26T13:36:27Z</time>
      </trkpt>
      <trkpt lat="43.39469" lon="2.56204">
        <ele>803.32</ele>
        <time>2012-03-26T13:36:44Z</time>
      </trkpt>
      <trkpt lat="43.3947" lon="2.56205">
        <ele>803.8</ele>
        <time>2012-03-26T13:36:56Z</time>
      </trkpt>
      <trkpt lat="43.39474" lon="2.5621">
        <ele>804.28</ele>
        <time>2012-03-26T13:37:02Z</time>
      </trkpt>
      <trkpt lat="43.39479" lon="2.56217">
        <ele>804.28</ele>
        <time>2012-03-26T13:37:07Z</time>
      </trkpt>
      <trkpt lat="43.39482" lon="2.56219">
        <ele>804.76</ele>
        <time>2012-03-26T13:37:10Z</time>
      </trkpt>
      <trkpt lat="43.39487" lon="2.56225">
        <ele>806.2</ele>
        <time>2012-03-26T13:37:16Z</time>
      </trkpt>
      <trkpt lat="43.39488" lon="2.56227">
        <ele>806.2</ele>
        <time>2012-03-26T13:37:18Z</time>
      </trkpt>
      <trkpt lat="43.39491" lon="2.56232">
        <ele>807.16</ele>
        <time>2012-03-26T13:37:22Z</time>
      </trkpt>
      <trkpt lat="43.39494" lon="2.56235">
        <ele>808.61</ele>
        <time>2012-03-26T13:37:27Z</time>
      </trkpt>
      <trkpt lat="43.39497" lon="2.56237">
        <ele>808.61</ele>
        <time>2012-03-26T13:37:30Z</time>
      </trkpt>
      <trkpt lat="43.39499" lon="2.5624">
        <ele>809.57</ele>
        <time>2012-03-26T13:37:33Z</time>
      </trkpt>
      <trkpt lat="43.39509" lon="2.56255">
        <ele>811.01</ele>
        <time>2012-03-26T13:37:44Z</time>
      </trkpt>
      <trkpt lat="43.39512" lon="2.56258">
        <ele>811.97</ele>
        <time>2012-03-26T13:37:47Z</time>
      </trkpt>
      <trkpt lat="43.39513" lon="2.5626">
        <ele>812.45</ele>
        <time>2012-03-26T13:37:49Z</time>
      </trkpt>
      <trkpt lat="43.39521" lon="2.56268">
        <ele>814.85</ele>
        <time>2012-03-26T13:37:58Z</time>
      </trkpt>
      <trkpt lat="43.39526" lon="2.56273">
        <ele>816.3</ele>
        <time>2012-03-26T13:38:05Z</time>
      </trkpt>
      <trkpt lat="43.39533" lon="2.56281">
        <ele>818.7</ele>
        <time>2012-03-26T13:38:15Z</time>
      </trkpt>
      <trkpt lat="43.39535" lon="2.56285">
        <ele>819.66</ele>
        <time>2012-03-26T13:38:19Z</time>
      </trkpt>
      <trkpt lat="43.39539" lon="2.56288">
        <ele>820.62</ele>
        <time>2012-03-26T13:38:24Z</time>
      </trkpt>
      <trkpt lat="43.39543" lon="2.56294">
        <ele>822.06</ele>
        <time>2012-03-26T13:38:30Z</time>
      </trkpt>
      <trkpt lat="43.39549" lon="2.56301">
        <ele>823.51</ele>
        <time>2012-03-26T13:38:37Z</time>
      </trkpt>
      <trkpt lat="43.39554" lon="2.56307">
        <ele>824.47</ele>
        <time>2012-03-26T13:38:44Z</time>
      </trkpt>
      <trkpt lat="43.39555" lon="2.56309">
        <ele>825.43</ele>
        <time>2012-03-26T13:38:46Z</time>
      </trkpt>
      <trkpt lat="43.39558" lon="2.56312">
        <ele>825.91</ele>
        <time>2012-03-26T13:38:49Z</time>
      </trkpt>
      <trkpt lat="43.39562" lon="2.56315">
        <ele>826.39</ele>
        <time>2012-03-26T13:38:53Z</time>
      </trkpt>
      <trkpt lat="43.39564" lon="2.56317">
        <ele>826.87</ele>
        <time>2012-03-26T13:38:55Z</time>
      </trkpt>
      <trkpt lat="43.39564" lon="2.5632">
        <ele>827.35</ele>
        <time>2012-03-26T13:38:57Z</time>
      </trkpt>
      <trkpt lat="43.39567" lon="2.56324">
        <ele>828.31</ele>
        <time>2012-03-26T13:39:01Z</time>
      </trkpt>
      <trkpt lat="43.39573" lon="2.56327">
        <ele>830.72</ele>
        <time>2012-03-26T13:39:13Z</time>
      </trkpt>
      <trkpt lat="43.39574" lon="2.56328">
        <ele>831.2</ele>
        <time>2012-03-26T13:39:14Z</time>
      </trkpt>
      <trkpt lat="43.39578" lon="2.56332">
        <ele>833.12</ele>
        <time>2012-03-26T13:39:25Z</time>
      </trkpt>
      <trkpt lat="43.39584" lon="2.56337">
        <ele>835.52</ele>
        <time>2012-03-26T13:39:37Z</time>
      </trkpt>
      <trkpt lat="43.39591" lon="2.56345">
        <ele>837.45</ele>
        <time>2012-03-26T13:39:47Z</time>
      </trkpt>
      <trkpt lat="43.39598" lon="2.56354">
        <ele>839.85</ele>
        <time>2012-03-26T13:39:58Z</time>
      </trkpt>
      <trkpt lat="43.39598" lon="2.56367">
        <ele>841.77</ele>
        <time>2012-03-26T13:40:10Z</time>
      </trkpt>
      <trkpt lat="43.39596" lon="2.56374">
        <ele>843.21</ele>
        <time>2012-03-26T13:40:14Z</time>
      </trkpt>
      <trkpt lat="43.39592" lon="2.56384">
        <ele>844.66</ele>
        <time>2012-03-26T13:40:22Z</time>
      </trkpt>
      <trkpt lat="43.39591" lon="2.56392">
        <ele>844.66</ele>
        <time>2012-03-26T13:40:27Z</time>
      </trkpt>
      <trkpt lat="43.39594" lon="2.56397">
        <ele>846.58</ele>
        <time>2012-03-26T13:40:32Z</time>
      </trkpt>
      <trkpt lat="43.396" lon="2.56392">
        <ele>847.06</ele>
        <time>2012-03-26T13:40:44Z</time>
      </trkpt>
      <trkpt lat="43.396" lon="2.56392">
        <ele>846.58</ele>
        <time>2012-03-26T13:41:05Z</time>
      </trkpt>
      <trkpt lat="43.39602" lon="2.56397">
        <ele>847.54</ele>
        <time>2012-03-26T13:41:17Z</time>
      </trkpt>
      <trkpt lat="43.39601" lon="2.56398">
        <ele>848.5</ele>
        <time>2012-03-26T13:41:31Z</time>
      </trkpt>
      <trkpt lat="43.396" lon="2.56398">
        <ele>848.98</ele>
        <time>2012-03-26T13:41:44Z</time>
      </trkpt>
      <trkpt lat="43.396" lon="2.56398">
        <ele>848.98</ele>
        <time>2012-03-26T13:42:13Z</time>
      </trkpt>
      <trkpt lat="43.39599" lon="2.56399">
        <ele>848.5</ele>
        <time>2012-03-26T13:42:32Z</time>
      </trkpt>
      <trkpt lat="43.39599" lon="2.56399">
        <ele>848.5</ele>
        <time>2012-03-26T13:42:40Z</time>
      </trkpt>
      <trkpt lat="43.39599" lon="2.56396">
        <ele>847.54</ele>
        <time>2012-03-26T13:42:47Z</time>
      </trkpt>
      <trkpt lat="43.39593" lon="2.564">
        <ele>846.1</ele>
        <time>2012-03-26T13:42:56Z</time>
      </trkpt>
      <trkpt lat="43.39591" lon="2.56402">
        <ele>845.62</ele>
        <time>2012-03-26T13:43:01Z</time>
      </trkpt>
      <trkpt lat="43.39588" lon="2.56403">
        <ele>845.14</ele>
        <time>2012-03-26T13:43:18Z</time>
      </trkpt>
      <trkpt lat="43.39588" lon="2.56403">
        <ele>845.14</ele>
        <time>2012-03-26T13:43:29Z</time>
      </trkpt>
      <trkpt lat="43.39588" lon="2.56402">
        <ele>844.66</ele>
        <time>2012-03-26T13:43:50Z</time>
      </trkpt>
      <trkpt lat="43.39588" lon="2.56403">
        <ele>844.66</ele>
        <time>2012-03-26T13:44:09Z</time>
      </trkpt>
      <trkpt lat="43.39587" lon="2.56411">
        <ele>845.14</ele>
        <time>2012-03-26T13:44:19Z</time>
      </trkpt>
      <trkpt lat="43.39585" lon="2.56425">
        <ele>845.14</ele>
        <time>2012-03-26T13:44:30Z</time>
      </trkpt>
      <trkpt lat="43.39585" lon="2.56426">
        <ele>845.14</ele>
        <time>2012-03-26T13:44:31Z</time>
      </trkpt>
      <trkpt lat="43.39584" lon="2.56428">
        <ele>845.14</ele>
        <time>2012-03-26T13:44:33Z</time>
      </trkpt>
      <trkpt lat="43.39583" lon="2.56436">
        <ele>845.14</ele>
        <time>2012-03-26T13:44:39Z</time>
      </trkpt>
      <trkpt lat="43.39581" lon="2.56443">
        <ele>845.14</ele>
        <time>2012-03-26T13:44:46Z</time>
      </trkpt>
      <trkpt lat="43.39581" lon="2.56446">
        <ele>845.14</ele>
        <time>2012-03-26T13:44:48Z</time>
      </trkpt>
      <trkpt lat="43.39581" lon="2.5645">
        <ele>845.14</ele>
        <time>2012-03-26T13:44:51Z</time>
      </trkpt>
      <trkpt lat="43.3958" lon="2.56462">
        <ele>845.14</ele>
        <time>2012-03-26T13:45:00Z</time>
      </trkpt>
      <trkpt lat="43.39579" lon="2.56478">
        <ele>845.14</ele>
        <time>2012-03-26T13:45:12Z</time>
      </trkpt>
      <trkpt lat="43.39578" lon="2.56482">
        <ele>845.14</ele>
        <time>2012-03-26T13:45:15Z</time>
      </trkpt>
      <trkpt lat="43.39579" lon="2.56486">
        <ele>844.18</ele>
        <time>2012-03-26T13:45:18Z</time>
      </trkpt>
      <trkpt lat="43.39579" lon="2.5649">
        <ele>844.66</ele>
        <time>2012-03-26T13:45:21Z</time>
      </trkpt>
      <trkpt lat="43.3958" lon="2.56509">
        <ele>844.18</ele>
        <time>2012-03-26T13:45:33Z</time>
      </trkpt>
      <trkpt lat="43.3958" lon="2.56527">
        <ele>843.21</ele>
        <time>2012-03-26T13:45:44Z</time>
      </trkpt>
      <trkpt lat="43.39579" lon="2.56531">
        <ele>843.69</ele>
        <time>2012-03-26T13:45:47Z</time>
      </trkpt>
      <trkpt lat="43.39579" lon="2.56535">
        <ele>843.69</ele>
        <time>2012-03-26T13:45:50Z</time>
      </trkpt>
      <trkpt lat="43.39579" lon="2.56539">
        <ele>843.69</ele>
        <time>2012-03-26T13:45:53Z</time>
      </trkpt>
      <trkpt lat="43.39581" lon="2.56557">
        <ele>843.69</ele>
        <time>2012-03-26T13:46:06Z</time>
      </trkpt>
      <trkpt lat="43.39582" lon="2.56571">
        <ele>843.69</ele>
        <time>2012-03-26T13:46:15Z</time>
      </trkpt>
      <trkpt lat="43.39583" lon="2.56579">
        <ele>843.69</ele>
        <time>2012-03-26T13:46:21Z</time>
      </trkpt>
      <trkpt lat="43.39583" lon="2.56582">
        <ele>843.69</ele>
        <time>2012-03-26T13:46:23Z</time>
      </trkpt>
      <trkpt lat="43.39582" lon="2.56594">
        <ele>843.69</ele>
        <time>2012-03-26T13:46:32Z</time>
      </trkpt>
      <trkpt lat="43.39585" lon="2.5661">
        <ele>843.69</ele>
        <time>2012-03-26T13:46:44Z</time>
      </trkpt>
      <trkpt lat="43.39586" lon="2.56614">
        <ele>843.69</ele>
        <time>2012-03-26T13:46:47Z</time>
      </trkpt>
      <trkpt lat="43.39587" lon="2.56618">
        <ele>843.69</ele>
        <time>2012-03-26T13:46:50Z</time>
      </trkpt>
      <trkpt lat="43.39589" lon="2.56625">
        <ele>843.21</ele>
        <time>2012-03-26T13:46:58Z</time>
      </trkpt>
      <trkpt lat="43.3959" lon="2.56628">
        <ele>843.21</ele>
        <time>2012-03-26T13:47:00Z</time>
      </trkpt>
      <trkpt lat="43.39594" lon="2.56644">
        <ele>843.21</ele>
        <time>2012-03-26T13:47:14Z</time>
      </trkpt>
      <trkpt lat="43.39597" lon="2.56657">
        <ele>843.21</ele>
        <time>2012-03-26T13:47:24Z</time>
      </trkpt>
      <trkpt lat="43.39603" lon="2.56682">
        <ele>842.73</ele>
        <time>2012-03-26T13:47:38Z</time>
      </trkpt>
      <trkpt lat="43.39608" lon="2.56703">
        <ele>842.73</ele>
        <time>2012-03-26T13:47:51Z</time>
      </trkpt>
      <trkpt lat="43.39612" lon="2.56714">
        <ele>842.73</ele>
        <time>2012-03-26T13:47:58Z</time>
      </trkpt>
      <trkpt lat="43.39614" lon="2.56723">
        <ele>842.25</ele>
        <time>2012-03-26T13:48:04Z</time>
      </trkpt>
      <trkpt lat="43.39617" lon="2.56745">
        <ele>842.25</ele>
        <time>2012-03-26T13:48:20Z</time>
      </trkpt>
      <trkpt lat="43.39619" lon="2.56751">
        <ele>842.73</ele>
        <time>2012-03-26T13:48:25Z</time>
      </trkpt>
      <trkpt lat="43.39623" lon="2.5677">
        <ele>842.73</ele>
        <time>2012-03-26T13:48:38Z</time>
      </trkpt>
      <trkpt lat="43.39627" lon="2.5679">
        <ele>842.25</ele>
        <time>2012-03-26T13:48:50Z</time>
      </trkpt>
      <trkpt lat="43.39634" lon="2.56811">
        <ele>842.25</ele>
        <time>2012-03-26T13:49:01Z</time>
      </trkpt>
      <trkpt lat="43.39638" lon="2.56824">
        <ele>842.25</ele>
        <time>2012-03-26T13:49:14Z</time>
      </trkpt>
      <trkpt lat="43.39638" lon="2.56828">
        <ele>842.25</ele>
        <time>2012-03-26T13:49:17Z</time>
      </trkpt>
      <trkpt lat="43.3964" lon="2.56834">
        <ele>842.73</ele>
        <time>2012-03-26T13:49:21Z</time>
      </trkpt>
      <trkpt lat="43.39648" lon="2.56852">
        <ele>842.73</ele>
        <time>2012-03-26T13:49:33Z</time>
      </trkpt>
      <trkpt lat="43.39654" lon="2.56867">
        <ele>842.25</ele>
        <time>2012-03-26T13:49:45Z</time>
      </trkpt>
      <trkpt lat="43.39661" lon="2.56882">
        <ele>842.25</ele>
        <time>2012-03-26T13:49:58Z</time>
      </trkpt>
      <trkpt lat="43.39661" lon="2.56883">
        <ele>842.25</ele>
        <time>2012-03-26T13:49:59Z</time>
      </trkpt>
      <trkpt lat="43.39663" lon="2.56884">
        <ele>842.25</ele>
        <time>2012-03-26T13:50:02Z</time>
      </trkpt>
      <trkpt lat="43.3967" lon="2.5689">
        <ele>841.77</ele>
        <time>2012-03-26T13:50:10Z</time>
      </trkpt>
      <trkpt lat="43.39673" lon="2.56892">
        <ele>841.77</ele>
        <time>2012-03-26T13:50:13Z</time>
      </trkpt>
      <trkpt lat="43.39676" lon="2.56897">
        <ele>842.25</ele>
        <time>2012-03-26T13:50:18Z</time>
      </trkpt>
      <trkpt lat="43.39683" lon="2.56901">
        <ele>842.25</ele>
        <time>2012-03-26T13:50:27Z</time>
      </trkpt>
      <trkpt lat="43.39686" lon="2.56903">
        <ele>841.77</ele>
        <time>2012-03-26T13:50:30Z</time>
      </trkpt>
      <trkpt lat="43.39691" lon="2.56907">
        <ele>841.77</ele>
        <time>2012-03-26T13:50:36Z</time>
      </trkpt>
      <trkpt lat="43.39697" lon="2.56914">
        <ele>842.73</ele>
        <time>2012-03-26T13:50:43Z</time>
      </trkpt>
      <trkpt lat="43.39699" lon="2.56916">
        <ele>842.73</ele>
        <time>2012-03-26T13:50:45Z</time>
      </trkpt>
      <trkpt lat="43.39712" lon="2.56923">
        <ele>842.25</ele>
        <time>2012-03-26T13:50:58Z</time>
      </trkpt>
      <trkpt lat="43.39715" lon="2.56924">
        <ele>842.25</ele>
        <time>2012-03-26T13:51:01Z</time>
      </trkpt>
      <trkpt lat="43.39719" lon="2.56925">
        <ele>842.73</ele>
        <time>2012-03-26T13:51:06Z</time>
      </trkpt>
      <trkpt lat="43.39727" lon="2.56924">
        <ele>843.21</ele>
        <time>2012-03-26T13:51:16Z</time>
      </trkpt>
      <trkpt lat="43.39735" lon="2.56925">
        <ele>843.21</ele>
        <time>2012-03-26T13:51:27Z</time>
      </trkpt>
      <trkpt lat="43.39736" lon="2.56925">
        <ele>843.21</ele>
        <time>2012-03-26T13:51:28Z</time>
      </trkpt>
      <trkpt lat="43.39741" lon="2.56925">
        <ele>843.69</ele>
        <time>2012-03-26T13:51:34Z</time>
      </trkpt>
      <trkpt lat="43.39742" lon="2.56924">
        <ele>843.69</ele>
        <time>2012-03-26T13:51:36Z</time>
      </trkpt>
      <trkpt lat="43.39745" lon="2.56923">
        <ele>843.69</ele>
        <time>2012-03-26T13:51:38Z</time>
      </trkpt>
      <trkpt lat="43.39753" lon="2.56916">
        <ele>845.14</ele>
        <time>2012-03-26T13:51:49Z</time>
      </trkpt>
      <trkpt lat="43.39759" lon="2.5691">
        <ele>845.62</ele>
        <time>2012-03-26T13:52:00Z</time>
      </trkpt>
      <trkpt lat="43.3976" lon="2.56909">
        <ele>845.62</ele>
        <time>2012-03-26T13:52:01Z</time>
      </trkpt>
      <trkpt lat="43.39768" lon="2.56903">
        <ele>846.58</ele>
        <time>2012-03-26T13:52:13Z</time>
      </trkpt>
      <trkpt lat="43.39777" lon="2.56899">
        <ele>848.5</ele>
        <time>2012-03-26T13:52:25Z</time>
      </trkpt>
      <trkpt lat="43.39778" lon="2.56899">
        <ele>848.5</ele>
        <time>2012-03-26T13:52:26Z</time>
      </trkpt>
      <trkpt lat="43.39789" lon="2.56899">
        <ele>849.46</ele>
        <time>2012-03-26T13:52:37Z</time>
      </trkpt>
      <trkpt lat="43.39793" lon="2.569">
        <ele>849.94</ele>
        <time>2012-03-26T13:52:41Z</time>
      </trkpt>
      <trkpt lat="43.39804" lon="2.569">
        <ele>851.38</ele>
        <time>2012-03-26T13:52:54Z</time>
      </trkpt>
      <trkpt lat="43.39807" lon="2.56901">
        <ele>851.38</ele>
        <time>2012-03-26T13:52:58Z</time>
      </trkpt>
      <trkpt lat="43.39819" lon="2.56903">
        <ele>853.31</ele>
        <time>2012-03-26T13:53:11Z</time>
      </trkpt>
      <trkpt lat="43.3982" lon="2.56903">
        <ele>852.83</ele>
        <time>2012-03-26T13:53:13Z</time>
      </trkpt>
      <trkpt lat="43.39829" lon="2.56905">
        <ele>853.79</ele>
        <time>2012-03-26T13:53:23Z</time>
      </trkpt>
      <trkpt lat="43.39838" lon="2.56907">
        <ele>855.23</ele>
        <time>2012-03-26T13:53:33Z</time>
      </trkpt>
      <trkpt lat="43.39848" lon="2.56908">
        <ele>856.19</ele>
        <time>2012-03-26T13:53:45Z</time>
      </trkpt>
      <trkpt lat="43.39859" lon="2.5691">
        <ele>857.15</ele>
        <time>2012-03-26T13:53:56Z</time>
      </trkpt>
      <trkpt lat="43.39866" lon="2.56912">
        <ele>858.11</ele>
        <time>2012-03-26T13:54:09Z</time>
      </trkpt>
      <trkpt lat="43.39875" lon="2.56914">
        <ele>860.04</ele>
        <time>2012-03-26T13:54:20Z</time>
      </trkpt>
      <trkpt lat="43.3988" lon="2.56915">
        <ele>860.04</ele>
        <time>2012-03-26T13:54:25Z</time>
      </trkpt>
      <trkpt lat="43.39888" lon="2.56917">
        <ele>861.48</ele>
        <time>2012-03-26T13:54:32Z</time>
      </trkpt>
      <trkpt lat="43.39896" lon="2.56927">
        <ele>861.96</ele>
        <time>2012-03-26T13:54:41Z</time>
      </trkpt>
      <trkpt lat="43.39901" lon="2.56932">
        <ele>862.44</ele>
        <time>2012-03-26T13:54:45Z</time>
      </trkpt>
      <trkpt lat="43.39906" lon="2.56943">
        <ele>862.92</ele>
        <time>2012-03-26T13:54:53Z</time>
      </trkpt>
      <trkpt lat="43.3991" lon="2.56949">
        <ele>863.88</ele>
        <time>2012-03-26T13:55:00Z</time>
      </trkpt>
      <trkpt lat="43.39913" lon="2.56955">
        <ele>864.36</ele>
        <time>2012-03-26T13:55:06Z</time>
      </trkpt>
      <trkpt lat="43.39919" lon="2.56966">
        <ele>864.84</ele>
        <time>2012-03-26T13:55:19Z</time>
      </trkpt>
      <trkpt lat="43.39923" lon="2.5697">
        <ele>865.8</ele>
        <time>2012-03-26T13:55:24Z</time>
      </trkpt>
      <trkpt lat="43.39924" lon="2.56972">
        <ele>865.8</ele>
        <time>2012-03-26T13:55:26Z</time>
      </trkpt>
      <trkpt lat="43.39926" lon="2.56974">
        <ele>866.29</ele>
        <time>2012-03-26T13:55:28Z</time>
      </trkpt>
      <trkpt lat="43.39932" lon="2.56983">
        <ele>867.73</ele>
        <time>2012-03-26T13:55:40Z</time>
      </trkpt>
      <trkpt lat="43.39933" lon="2.56985">
        <ele>868.21</ele>
        <time>2012-03-26T13:55:42Z</time>
      </trkpt>
      <trkpt lat="43.39935" lon="2.56993">
        <ele>868.21</ele>
        <time>2012-03-26T13:55:47Z</time>
      </trkpt>
      <trkpt lat="43.39936" lon="2.57">
        <ele>868.69</ele>
        <time>2012-03-26T13:55:53Z</time>
      </trkpt>
      <trkpt lat="43.39934" lon="2.57012">
        <ele>869.17</ele>
        <time>2012-03-26T13:56:01Z</time>
      </trkpt>
      <trkpt lat="43.39935" lon="2.57015">
        <ele>869.17</ele>
        <time>2012-03-26T13:56:04Z</time>
      </trkpt>
      <trkpt lat="43.39935" lon="2.57025">
        <ele>868.69</ele>
        <time>2012-03-26T13:56:12Z</time>
      </trkpt>
      <trkpt lat="43.39935" lon="2.5703">
        <ele>869.65</ele>
        <time>2012-03-26T13:56:15Z</time>
      </trkpt>
      <trkpt lat="43.39935" lon="2.57032">
        <ele>870.61</ele>
        <time>2012-03-26T13:56:17Z</time>
      </trkpt>
      <trkpt lat="43.39935" lon="2.57035">
        <ele>870.61</ele>
        <time>2012-03-26T13:56:19Z</time>
      </trkpt>
      <trkpt lat="43.39935" lon="2.57049">
        <ele>871.09</ele>
        <time>2012-03-26T13:56:30Z</time>
      </trkpt>
      <trkpt lat="43.39936" lon="2.57065">
        <ele>872.53</ele>
        <time>2012-03-26T13:56:43Z</time>
      </trkpt>
      <trkpt lat="43.39935" lon="2.57073">
        <ele>872.53</ele>
        <time>2012-03-26T13:56:53Z</time>
      </trkpt>
      <trkpt lat="43.39935" lon="2.57079">
        <ele>873.01</ele>
        <time>2012-03-26T13:56:56Z</time>
      </trkpt>
      <trkpt lat="43.39935" lon="2.57085">
        <ele>874.46</ele>
        <time>2012-03-26T13:57:00Z</time>
      </trkpt>
      <trkpt lat="43.39935" lon="2.57087">
        <ele>874.94</ele>
        <time>2012-03-26T13:57:02Z</time>
      </trkpt>
      <trkpt lat="43.39935" lon="2.571">
        <ele>875.42</ele>
        <time>2012-03-26T13:57:12Z</time>
      </trkpt>
      <trkpt lat="43.39934" lon="2.57112">
        <ele>876.86</ele>
        <time>2012-03-26T13:57:22Z</time>
      </trkpt>
      <trkpt lat="43.39937" lon="2.57131">
        <ele>877.82</ele>
        <time>2012-03-26T13:57:36Z</time>
      </trkpt>
      <trkpt lat="43.3994" lon="2.57147">
        <ele>878.3</ele>
        <time>2012-03-26T13:57:49Z</time>
      </trkpt>
      <trkpt lat="43.3994" lon="2.57148">
        <ele>878.3</ele>
        <time>2012-03-26T13:57:50Z</time>
      </trkpt>
      <trkpt lat="43.39944" lon="2.5716">
        <ele>878.78</ele>
        <time>2012-03-26T13:57:56Z</time>
      </trkpt>
      <trkpt lat="43.39947" lon="2.57175">
        <ele>879.26</ele>
        <time>2012-03-26T13:58:08Z</time>
      </trkpt>
      <trkpt lat="43.39947" lon="2.57184">
        <ele>880.22</ele>
        <time>2012-03-26T13:58:15Z</time>
      </trkpt>
      <trkpt lat="43.39948" lon="2.57188">
        <ele>880.22</ele>
        <time>2012-03-26T13:58:18Z</time>
      </trkpt>
      <trkpt lat="43.3995" lon="2.5719">
        <ele>880.71</ele>
        <time>2012-03-26T13:58:20Z</time>
      </trkpt>
      <trkpt lat="43.39953" lon="2.572">
        <ele>881.19</ele>
        <time>2012-03-26T13:58:27Z</time>
      </trkpt>
      <trkpt lat="43.39954" lon="2.57206">
        <ele>880.71</ele>
        <time>2012-03-26T13:58:34Z</time>
      </trkpt>
      <trkpt lat="43.39955" lon="2.57211">
        <ele>881.19</ele>
        <time>2012-03-26T13:58:37Z</time>
      </trkpt>
      <trkpt lat="43.39955" lon="2.57213">
        <ele>881.67</ele>
        <time>2012-03-26T13:58:39Z</time>
      </trkpt>
      <trkpt lat="43.39957" lon="2.57222">
        <ele>882.15</ele>
        <time>2012-03-26T13:58:49Z</time>
      </trkpt>
      <trkpt lat="43.39958" lon="2.57224">
        <ele>882.63</ele>
        <time>2012-03-26T13:58:54Z</time>
      </trkpt>
      <trkpt lat="43.39959" lon="2.57235">
        <ele>882.15</ele>
        <time>2012-03-26T13:59:07Z</time>
      </trkpt>
      <trkpt lat="43.39962" lon="2.57239">
        <ele>882.63</ele>
        <time>2012-03-26T13:59:12Z</time>
      </trkpt>
      <trkpt lat="43.39967" lon="2.57248">
        <ele>883.11</ele>
        <time>2012-03-26T13:59:24Z</time>
      </trkpt>
      <trkpt lat="43.39967" lon="2.57249">
        <ele>882.63</ele>
        <time>2012-03-26T13:59:26Z</time>
      </trkpt>
      <trkpt lat="43.39969" lon="2.57256">
        <ele>883.11</ele>
        <time>2012-03-26T13:59:36Z</time>
      </trkpt>
      <trkpt lat="43.39969" lon="2.57257">
        <ele>883.11</ele>
        <time>2012-03-26T13:59:48Z</time>
      </trkpt>
      <trkpt lat="43.39968" lon="2.57259">
        <ele>883.11</ele>
        <time>2012-03-26T14:00:02Z</time>
      </trkpt>
      <trkpt lat="43.39966" lon="2.57259">
        <ele>882.63</ele>
        <time>2012-03-26T14:00:04Z</time>
      </trkpt>
      <trkpt lat="43.39964" lon="2.57259">
        <ele>882.63</ele>
        <time>2012-03-26T14:00:17Z</time>
      </trkpt>
      <trkpt lat="43.39964" lon="2.57259">
        <ele>883.11</ele>
        <time>2012-03-26T14:00:27Z</time>
      </trkpt>
      <trkpt lat="43.39964" lon="2.57256">
        <ele>882.63</ele>
        <time>2012-03-26T14:00:29Z</time>
      </trkpt>
      <trkpt lat="43.3997" lon="2.57249">
        <ele>883.11</ele>
        <time>2012-03-26T14:00:39Z</time>
      </trkpt>
      <trkpt lat="43.39972" lon="2.57246">
        <ele>884.07</ele>
        <time>2012-03-26T14:00:44Z</time>
      </trkpt>
      <trkpt lat="43.39973" lon="2.57241">
        <ele>885.03</ele>
        <time>2012-03-26T14:00:54Z</time>
      </trkpt>
      <trkpt lat="43.39973" lon="2.57241">
        <ele>885.51</ele>
        <time>2012-03-26T14:01:11Z</time>
      </trkpt>
      <trkpt lat="43.39973" lon="2.57241">
        <ele>885.51</ele>
        <time>2012-03-26T14:01:12Z</time>
      </trkpt>
      <trkpt lat="43.39974" lon="2.57249">
        <ele>884.07</ele>
        <time>2012-03-26T14:01:23Z</time>
      </trkpt>
      <trkpt lat="43.39974" lon="2.57249">
        <ele>884.07</ele>
        <time>2012-03-26T14:01:48Z</time>
      </trkpt>
      <trkpt lat="43.39974" lon="2.57249">
        <ele>884.07</ele>
        <time>2012-03-26T14:02:13Z</time>
      </trkpt>
      <trkpt lat="43.39974" lon="2.57252">
        <ele>883.59</ele>
        <time>2012-03-26T14:02:26Z</time>
      </trkpt>
      <trkpt lat="43.39973" lon="2.57255">
        <ele>883.59</ele>
        <time>2012-03-26T14:02:29Z</time>
      </trkpt>
      <trkpt lat="43.39975" lon="2.57259">
        <ele>883.59</ele>
        <time>2012-03-26T14:02:34Z</time>
      </trkpt>
      <trkpt lat="43.39973" lon="2.57267">
        <ele>884.55</ele>
        <time>2012-03-26T14:02:40Z</time>
      </trkpt>
      <trkpt lat="43.39972" lon="2.57266">
        <ele>885.03</ele>
        <time>2012-03-26T14:02:56Z</time>
      </trkpt>
      <trkpt lat="43.39973" lon="2.5727">
        <ele>884.55</ele>
        <time>2012-03-26T14:03:08Z</time>
      </trkpt>
      <trkpt lat="43.39974" lon="2.57271">
        <ele>884.07</ele>
        <time>2012-03-26T14:03:28Z</time>
      </trkpt>
      <trkpt lat="43.39973" lon="2.5728">
        <ele>884.07</ele>
        <time>2012-03-26T14:03:34Z</time>
      </trkpt>
      <trkpt lat="43.39974" lon="2.57285">
        <ele>885.03</ele>
        <time>2012-03-26T14:03:37Z</time>
      </trkpt>
      <trkpt lat="43.39974" lon="2.57293">
        <ele>885.51</ele>
        <time>2012-03-26T14:03:42Z</time>
      </trkpt>
      <trkpt lat="43.39974" lon="2.573">
        <ele>884.55</ele>
        <time>2012-03-26T14:03:47Z</time>
      </trkpt>
      <trkpt lat="43.39978" lon="2.57313">
        <ele>885.03</ele>
        <time>2012-03-26T14:03:58Z</time>
      </trkpt>
      <trkpt lat="43.39978" lon="2.57313">
        <ele>885.03</ele>
        <time>2012-03-26T14:04:13Z</time>
      </trkpt>
      <trkpt lat="43.39978" lon="2.57313">
        <ele>884.55</ele>
        <time>2012-03-26T14:04:38Z</time>
      </trkpt>
      <trkpt lat="43.39978" lon="2.57314">
        <ele>885.03</ele>
        <time>2012-03-26T14:04:46Z</time>
      </trkpt>
      <trkpt lat="43.39977" lon="2.57315">
        <ele>885.51</ele>
        <time>2012-03-26T14:04:48Z</time>
      </trkpt>
      <trkpt lat="43.39978" lon="2.57321">
        <ele>885.51</ele>
        <time>2012-03-26T14:04:53Z</time>
      </trkpt>
      <trkpt lat="43.39977" lon="2.57327">
        <ele>885.51</ele>
        <time>2012-03-26T14:04:57Z</time>
      </trkpt>
      <trkpt lat="43.39977" lon="2.57335">
        <ele>885.51</ele>
        <time>2012-03-26T14:05:01Z</time>
      </trkpt>
      <trkpt lat="43.39975" lon="2.57346">
        <ele>885.51</ele>
        <time>2012-03-26T14:05:05Z</time>
      </trkpt>
      <trkpt lat="43.39974" lon="2.57357">
        <ele>885.99</ele>
        <time>2012-03-26T14:05:11Z</time>
      </trkpt>
      <trkpt lat="43.39971" lon="2.57361">
        <ele>886.95</ele>
        <time>2012-03-26T14:05:15Z</time>
      </trkpt>
      <trkpt lat="43.39971" lon="2.57368">
        <ele>887.43</ele>
        <time>2012-03-26T14:05:20Z</time>
      </trkpt>
      <trkpt lat="43.3997" lon="2.57373">
        <ele>888.88</ele>
        <time>2012-03-26T14:05:24Z</time>
      </trkpt>
      <trkpt lat="43.3997" lon="2.57375">
        <ele>889.36</ele>
        <time>2012-03-26T14:05:26Z</time>
      </trkpt>
      <trkpt lat="43.3997" lon="2.57378">
        <ele>888.88</ele>
        <time>2012-03-26T14:05:28Z</time>
      </trkpt>
      <trkpt lat="43.39969" lon="2.57382">
        <ele>888.88</ele>
        <time>2012-03-26T14:05:41Z</time>
      </trkpt>
      <trkpt lat="43.3997" lon="2.57384">
        <ele>888.88</ele>
        <time>2012-03-26T14:05:43Z</time>
      </trkpt>
      <trkpt lat="43.39965" lon="2.57397">
        <ele>888.88</ele>
        <time>2012-03-26T14:05:55Z</time>
      </trkpt>
      <trkpt lat="43.39964" lon="2.574">
        <ele>888.88</ele>
        <time>2012-03-26T14:05:58Z</time>
      </trkpt>
      <trkpt lat="43.39964" lon="2.57408">
        <ele>888.88</ele>
        <time>2012-03-26T14:06:03Z</time>
      </trkpt>
      <trkpt lat="43.39962" lon="2.57417">
        <ele>888.4</ele>
        <time>2012-03-26T14:06:09Z</time>
      </trkpt>
      <trkpt lat="43.39954" lon="2.57431">
        <ele>889.36</ele>
        <time>2012-03-26T14:06:20Z</time>
      </trkpt>
      <trkpt lat="43.39951" lon="2.57447">
        <ele>892.24</ele>
        <time>2012-03-26T14:06:32Z</time>
      </trkpt>
      <trkpt lat="43.39948" lon="2.57465">
        <ele>893.68</ele>
        <time>2012-03-26T14:06:44Z</time>
      </trkpt>
      <trkpt lat="43.39946" lon="2.57476">
        <ele>894.16</ele>
        <time>2012-03-26T14:06:55Z</time>
      </trkpt>
      <trkpt lat="43.39943" lon="2.5748">
        <ele>895.12</ele>
        <time>2012-03-26T14:06:59Z</time>
      </trkpt>
      <trkpt lat="43.39941" lon="2.57486">
        <ele>896.09</ele>
        <time>2012-03-26T14:07:04Z</time>
      </trkpt>
      <trkpt lat="43.39939" lon="2.5749">
        <ele>896.09</ele>
        <time>2012-03-26T14:07:12Z</time>
      </trkpt>
      <trkpt lat="43.39938" lon="2.57494">
        <ele>896.09</ele>
        <time>2012-03-26T14:07:16Z</time>
      </trkpt>
      <trkpt lat="43.39935" lon="2.575">
        <ele>897.05</ele>
        <time>2012-03-26T14:07:22Z</time>
      </trkpt>
      <trkpt lat="43.3993" lon="2.57509">
        <ele>898.97</ele>
        <time>2012-03-26T14:07:34Z</time>
      </trkpt>
      <trkpt lat="43.39927" lon="2.57514">
        <ele>901.37</ele>
        <time>2012-03-26T14:07:46Z</time>
      </trkpt>
      <trkpt lat="43.39924" lon="2.57516">
        <ele>902.33</ele>
        <time>2012-03-26T14:07:56Z</time>
      </trkpt>
      <trkpt lat="43.39918" lon="2.57523">
        <ele>903.3</ele>
        <time>2012-03-26T14:08:04Z</time>
      </trkpt>
      <trkpt lat="43.39913" lon="2.57532">
        <ele>904.74</ele>
        <time>2012-03-26T14:08:18Z</time>
      </trkpt>
      <trkpt lat="43.3991" lon="2.57533">
        <ele>905.7</ele>
        <time>2012-03-26T14:08:21Z</time>
      </trkpt>
      <trkpt lat="43.39907" lon="2.57538">
        <ele>906.18</ele>
        <time>2012-03-26T14:08:30Z</time>
      </trkpt>
      <trkpt lat="43.39903" lon="2.57548">
        <ele>907.62</ele>
        <time>2012-03-26T14:08:42Z</time>
      </trkpt>
      <trkpt lat="43.39902" lon="2.57548">
        <ele>908.1</ele>
        <time>2012-03-26T14:08:57Z</time>
      </trkpt>
      <trkpt lat="43.399" lon="2.57555">
        <ele>907.14</ele>
        <time>2012-03-26T14:09:09Z</time>
      </trkpt>
      <trkpt lat="43.39899" lon="2.57556">
        <ele>908.1</ele>
        <time>2012-03-26T14:09:26Z</time>
      </trkpt>
      <trkpt lat="43.39899" lon="2.57556">
        <ele>908.1</ele>
        <time>2012-03-26T14:09:42Z</time>
      </trkpt>
      <trkpt lat="43.39899" lon="2.57556">
        <ele>907.62</ele>
        <time>2012-03-26T14:10:03Z</time>
      </trkpt>
      <trkpt lat="43.39899" lon="2.57556">
        <ele>908.1</ele>
        <time>2012-03-26T14:10:27Z</time>
      </trkpt>
      <trkpt lat="43.39899" lon="2.57556">
        <ele>908.1</ele>
        <time>2012-03-26T14:10:47Z</time>
      </trkpt>
      <trkpt lat="43.39899" lon="2.57556">
        <ele>907.62</ele>
        <time>2012-03-26T14:11:12Z</time>
      </trkpt>
      <trkpt lat="43.39899" lon="2.57556">
        <ele>908.1</ele>
        <time>2012-03-26T14:11:39Z</time>
      </trkpt>
      <trkpt lat="43.39899" lon="2.57559">
        <ele>908.1</ele>
        <time>2012-03-26T14:11:52Z</time>
      </trkpt>
      <trkpt lat="43.39897" lon="2.57571">
        <ele>906.66</ele>
        <time>2012-03-26T14:12:01Z</time>
      </trkpt>
      <trkpt lat="43.39895" lon="2.57578">
        <ele>907.62</ele>
        <time>2012-03-26T14:12:05Z</time>
      </trkpt>
      <trkpt lat="43.39891" lon="2.57589">
        <ele>907.62</ele>
        <time>2012-03-26T14:12:18Z</time>
      </trkpt>
      <trkpt lat="43.39892" lon="2.5759">
        <ele>908.1</ele>
        <time>2012-03-26T14:12:28Z</time>
      </trkpt>
      <trkpt lat="43.39891" lon="2.57594">
        <ele>908.1</ele>
        <time>2012-03-26T14:12:31Z</time>
      </trkpt>
      <trkpt lat="43.39889" lon="2.57602">
        <ele>909.06</ele>
        <time>2012-03-26T14:12:38Z</time>
      </trkpt>
      <trkpt lat="43.39888" lon="2.57606">
        <ele>909.54</ele>
        <time>2012-03-26T14:12:41Z</time>
      </trkpt>
      <trkpt lat="43.39887" lon="2.57609">
        <ele>910.03</ele>
        <time>2012-03-26T14:12:44Z</time>
      </trkpt>
      <trkpt lat="43.39883" lon="2.57623">
        <ele>911.47</ele>
        <time>2012-03-26T14:12:57Z</time>
      </trkpt>
      <trkpt lat="43.3988" lon="2.57629">
        <ele>911.47</ele>
        <time>2012-03-26T14:13:08Z</time>
      </trkpt>
      <trkpt lat="43.39876" lon="2.57636">
        <ele>913.39</ele>
        <time>2012-03-26T14:13:16Z</time>
      </trkpt>
      <trkpt lat="43.39873" lon="2.57643">
        <ele>914.35</ele>
        <time>2012-03-26T14:13:29Z</time>
      </trkpt>
      <trkpt lat="43.39869" lon="2.57647">
        <ele>915.31</ele>
        <time>2012-03-26T14:13:43Z</time>
      </trkpt>
      <trkpt lat="43.39865" lon="2.57653">
        <ele>915.79</ele>
        <time>2012-03-26T14:13:55Z</time>
      </trkpt>
      <trkpt lat="43.39865" lon="2.57653">
        <ele>914.83</ele>
        <time>2012-03-26T14:14:15Z</time>
      </trkpt>
      <trkpt lat="43.39865" lon="2.57653">
        <ele>915.31</ele>
        <time>2012-03-26T14:14:43Z</time>
      </trkpt>
      <trkpt lat="43.39865" lon="2.57653">
        <ele>915.79</ele>
        <time>2012-03-26T14:15:00Z</time>
      </trkpt>
      <trkpt lat="43.39865" lon="2.57653">
        <ele>915.79</ele>
        <time>2012-03-26T14:15:15Z</time>
      </trkpt>
      <trkpt lat="43.39865" lon="2.57653">
        <ele>914.83</ele>
        <time>2012-03-26T14:15:34Z</time>
      </trkpt>
      <trkpt lat="43.39865" lon="2.57653">
        <ele>914.35</ele>
        <time>2012-03-26T14:15:59Z</time>
      </trkpt>
      <trkpt lat="43.39865" lon="2.57653">
        <ele>914.35</ele>
        <time>2012-03-26T14:16:20Z</time>
      </trkpt>
      <trkpt lat="43.39865" lon="2.57653">
        <ele>914.35</ele>
        <time>2012-03-26T14:16:41Z</time>
      </trkpt>
      <trkpt lat="43.39865" lon="2.57653">
        <ele>914.35</ele>
        <time>2012-03-26T14:17:04Z</time>
      </trkpt>
      <trkpt lat="43.39865" lon="2.57653">
        <ele>914.35</ele>
        <time>2012-03-26T14:17:30Z</time>
      </trkpt>
      <trkpt lat="43.39865" lon="2.57652">
        <ele>914.35</ele>
        <time>2012-03-26T14:17:57Z</time>
      </trkpt>
      <trkpt lat="43.39865" lon="2.57652">
        <ele>913.87</ele>
        <time>2012-03-26T14:18:17Z</time>
      </trkpt>
      <trkpt lat="43.39865" lon="2.57653">
        <ele>913.87</ele>
        <time>2012-03-26T14:18:37Z</time>
      </trkpt>
      <trkpt lat="43.39865" lon="2.57651">
        <ele>915.31</ele>
        <time>2012-03-26T14:18:49Z</time>
      </trkpt>
      <trkpt lat="43.39865" lon="2.57651">
        <ele>912.91</ele>
        <time>2012-03-26T14:18:54Z</time>
      </trkpt>
      <trkpt lat="43.39865" lon="2.57651">
        <ele>913.87</ele>
        <time>2012-03-26T14:19:15Z</time>
      </trkpt>
      <trkpt lat="43.39865" lon="2.57651">
        <ele>913.39</ele>
        <time>2012-03-26T14:19:43Z</time>
      </trkpt>
      <trkpt lat="43.39865" lon="2.57651">
        <ele>913.87</ele>
        <time>2012-03-26T14:20:06Z</time>
      </trkpt>
      <trkpt lat="43.39865" lon="2.57651">
        <ele>914.35</ele>
        <time>2012-03-26T14:20:17Z</time>
      </trkpt>
      <trkpt lat="43.39865" lon="2.57651">
        <ele>914.35</ele>
        <time>2012-03-26T14:20:29Z</time>
      </trkpt>
      <trkpt lat="43.39866" lon="2.57651">
        <ele>913.87</ele>
        <time>2012-03-26T14:20:48Z</time>
      </trkpt>
      <trkpt lat="43.39866" lon="2.57651">
        <ele>914.35</ele>
        <time>2012-03-26T14:21:12Z</time>
      </trkpt>
      <trkpt lat="43.39866" lon="2.57651">
        <ele>914.83</ele>
        <time>2012-03-26T14:21:33Z</time>
      </trkpt>
      <trkpt lat="43.39866" lon="2.57651">
        <ele>913.87</ele>
        <time>2012-03-26T14:22:00Z</time>
      </trkpt>
      <trkpt lat="43.39866" lon="2.57651">
        <ele>914.83</ele>
        <time>2012-03-26T14:22:15Z</time>
      </trkpt>
      <trkpt lat="43.39866" lon="2.57651">
        <ele>913.39</ele>
        <time>2012-03-26T14:22:27Z</time>
      </trkpt>
      <trkpt lat="43.39866" lon="2.5765">
        <ele>913.87</ele>
        <time>2012-03-26T14:22:43Z</time>
      </trkpt>
      <trkpt lat="43.39866" lon="2.5765">
        <ele>913.87</ele>
        <time>2012-03-26T14:23:09Z</time>
      </trkpt>
      <trkpt lat="43.39866" lon="2.57651">
        <ele>914.35</ele>
        <time>2012-03-26T14:23:31Z</time>
      </trkpt>
      <trkpt lat="43.39866" lon="2.57651">
        <ele>914.83</ele>
        <time>2012-03-26T14:23:58Z</time>
      </trkpt>
      <trkpt lat="43.39867" lon="2.57651">
        <ele>915.79</ele>
        <time>2012-03-26T14:24:17Z</time>
      </trkpt>
      <trkpt lat="43.39866" lon="2.57651">
        <ele>914.35</ele>
        <time>2012-03-26T14:24:44Z</time>
      </trkpt>
      <trkpt lat="43.39866" lon="2.57651">
        <ele>914.35</ele>
        <time>2012-03-26T14:25:13Z</time>
      </trkpt>
      <trkpt lat="43.39866" lon="2.5765">
        <ele>914.83</ele>
        <time>2012-03-26T14:25:37Z</time>
      </trkpt>
      <trkpt lat="43.39866" lon="2.5765">
        <ele>914.35</ele>
        <time>2012-03-26T14:25:59Z</time>
      </trkpt>
      <trkpt lat="43.39866" lon="2.5765">
        <ele>914.83</ele>
        <time>2012-03-26T14:26:11Z</time>
      </trkpt>
      <trkpt lat="43.39866" lon="2.5765">
        <ele>914.35</ele>
        <time>2012-03-26T14:26:15Z</time>
      </trkpt>
      <trkpt lat="43.39866" lon="2.57665">
        <ele>914.35</ele>
        <time>2012-03-26T14:26:25Z</time>
      </trkpt>
      <trkpt lat="43.39866" lon="2.57673">
        <ele>912.91</ele>
        <time>2012-03-26T14:26:31Z</time>
      </trkpt>
      <trkpt lat="43.39866" lon="2.57678">
        <ele>913.39</ele>
        <time>2012-03-26T14:26:35Z</time>
      </trkpt>
      <trkpt lat="43.39867" lon="2.57682">
        <ele>912.91</ele>
        <time>2012-03-26T14:26:43Z</time>
      </trkpt>
      <trkpt lat="43.39869" lon="2.57694">
        <ele>910.03</ele>
        <time>2012-03-26T14:26:55Z</time>
      </trkpt>
      <trkpt lat="43.39869" lon="2.57694">
        <ele>910.51</ele>
        <time>2012-03-26T14:27:08Z</time>
      </trkpt>
      <trkpt lat="43.39868" lon="2.57697">
        <ele>910.51</ele>
        <time>2012-03-26T14:27:10Z</time>
      </trkpt>
      <trkpt lat="43.39867" lon="2.57702">
        <ele>910.99</ele>
        <time>2012-03-26T14:27:13Z</time>
      </trkpt>
      <trkpt lat="43.39866" lon="2.57707">
        <ele>910.03</ele>
        <time>2012-03-26T14:27:16Z</time>
      </trkpt>
      <trkpt lat="43.39866" lon="2.57716">
        <ele>909.54</ele>
        <time>2012-03-26T14:27:22Z</time>
      </trkpt>
      <trkpt lat="43.39862" lon="2.57724">
        <ele>908.1</ele>
        <time>2012-03-26T14:27:31Z</time>
      </trkpt>
      <trkpt lat="43.39861" lon="2.57731">
        <ele>908.1</ele>
        <time>2012-03-26T14:27:37Z</time>
      </trkpt>
      <trkpt lat="43.3986" lon="2.57741">
        <ele>907.62</ele>
        <time>2012-03-26T14:27:44Z</time>
      </trkpt>
      <trkpt lat="43.39861" lon="2.57744">
        <ele>906.66</ele>
        <time>2012-03-26T14:27:47Z</time>
      </trkpt>
      <trkpt lat="43.39859" lon="2.57751">
        <ele>906.18</ele>
        <time>2012-03-26T14:28:00Z</time>
      </trkpt>
      <trkpt lat="43.39858" lon="2.57753">
        <ele>906.18</ele>
        <time>2012-03-26T14:28:08Z</time>
      </trkpt>
      <trkpt lat="43.39858" lon="2.57752">
        <ele>905.7</ele>
        <time>2012-03-26T14:28:20Z</time>
      </trkpt>
      <trkpt lat="43.39858" lon="2.57752">
        <ele>905.22</ele>
        <time>2012-03-26T14:28:35Z</time>
      </trkpt>
      <trkpt lat="43.39858" lon="2.57752">
        <ele>906.18</ele>
        <time>2012-03-26T14:28:48Z</time>
      </trkpt>
      <trkpt lat="43.39859" lon="2.57773">
        <ele>902.82</ele>
        <time>2012-03-26T14:29:00Z</time>
      </trkpt>
      <trkpt lat="43.39859" lon="2.57776">
        <ele>902.33</ele>
        <time>2012-03-26T14:29:04Z</time>
      </trkpt>
      <trkpt lat="43.39853" lon="2.57796">
        <ele>900.41</ele>
        <time>2012-03-26T14:29:16Z</time>
      </trkpt>
      <trkpt lat="43.39851" lon="2.57804">
        <ele>898.97</ele>
        <time>2012-03-26T14:29:21Z</time>
      </trkpt>
      <trkpt lat="43.39849" lon="2.57815">
        <ele>897.05</ele>
        <time>2012-03-26T14:29:28Z</time>
      </trkpt>
      <trkpt lat="43.39847" lon="2.57824">
        <ele>896.57</ele>
        <time>2012-03-26T14:29:35Z</time>
      </trkpt>
      <trkpt lat="43.39847" lon="2.57829">
        <ele>895.12</ele>
        <time>2012-03-26T14:29:38Z</time>
      </trkpt>
      <trkpt lat="43.39843" lon="2.57836">
        <ele>894.16</ele>
        <time>2012-03-26T14:29:47Z</time>
      </trkpt>
      <trkpt lat="43.39844" lon="2.57838">
        <ele>894.16</ele>
        <time>2012-03-26T14:29:49Z</time>
      </trkpt>
      <trkpt lat="43.39836" lon="2.57849">
        <ele>892.72</ele>
        <time>2012-03-26T14:29:56Z</time>
      </trkpt>
      <trkpt lat="43.39831" lon="2.57861">
        <ele>891.28</ele>
        <time>2012-03-26T14:30:04Z</time>
      </trkpt>
      <trkpt lat="43.3983" lon="2.57868">
        <ele>890.8</ele>
        <time>2012-03-26T14:30:07Z</time>
      </trkpt>
      <trkpt lat="43.39828" lon="2.57872">
        <ele>890.32</ele>
        <time>2012-03-26T14:30:10Z</time>
      </trkpt>
      <trkpt lat="43.39825" lon="2.57881">
        <ele>888.88</ele>
        <time>2012-03-26T14:30:15Z</time>
      </trkpt>
      <trkpt lat="43.39822" lon="2.57889">
        <ele>888.4</ele>
        <time>2012-03-26T14:30:20Z</time>
      </trkpt>
      <trkpt lat="43.3982" lon="2.57908">
        <ele>885.99</ele>
        <time>2012-03-26T14:30:31Z</time>
      </trkpt>
      <trkpt lat="43.3982" lon="2.5791">
        <ele>885.99</ele>
        <time>2012-03-26T14:30:32Z</time>
      </trkpt>
      <trkpt lat="43.39823" lon="2.57924">
        <ele>885.51</ele>
        <time>2012-03-26T14:30:40Z</time>
      </trkpt>
      <trkpt lat="43.39826" lon="2.57941">
        <ele>882.63</ele>
        <time>2012-03-26T14:30:52Z</time>
      </trkpt>
      <trkpt lat="43.39825" lon="2.57949">
        <ele>881.19</ele>
        <time>2012-03-26T14:30:59Z</time>
      </trkpt>
      <trkpt lat="43.39825" lon="2.57951">
        <ele>881.19</ele>
        <time>2012-03-26T14:31:01Z</time>
      </trkpt>
      <trkpt lat="43.39824" lon="2.57958">
        <ele>880.22</ele>
        <time>2012-03-26T14:31:08Z</time>
      </trkpt>
      <trkpt lat="43.39824" lon="2.57961">
        <ele>880.22</ele>
        <time>2012-03-26T14:31:10Z</time>
      </trkpt>
      <trkpt lat="43.39825" lon="2.57965">
        <ele>879.26</ele>
        <time>2012-03-26T14:31:13Z</time>
      </trkpt>
      <trkpt lat="43.39825" lon="2.57968">
        <ele>879.26</ele>
        <time>2012-03-26T14:31:15Z</time>
      </trkpt>
      <trkpt lat="43.39825" lon="2.57973">
        <ele>878.3</ele>
        <time>2012-03-26T14:31:19Z</time>
      </trkpt>
      <trkpt lat="43.39826" lon="2.57978">
        <ele>877.82</ele>
        <time>2012-03-26T14:31:22Z</time>
      </trkpt>
      <trkpt lat="43.39826" lon="2.57982">
        <ele>876.86</ele>
        <time>2012-03-26T14:31:25Z</time>
      </trkpt>
      <trkpt lat="43.39826" lon="2.57987">
        <ele>875.9</ele>
        <time>2012-03-26T14:31:30Z</time>
      </trkpt>
      <trkpt lat="43.39828" lon="2.57991">
        <ele>875.9</ele>
        <time>2012-03-26T14:31:33Z</time>
      </trkpt>
      <trkpt lat="43.3983" lon="2.57996">
        <ele>874.94</ele>
        <time>2012-03-26T14:31:37Z</time>
      </trkpt>
      <trkpt lat="43.39831" lon="2.57998">
        <ele>875.42</ele>
        <time>2012-03-26T14:31:39Z</time>
      </trkpt>
      <trkpt lat="43.39837" lon="2.58016">
        <ele>877.34</ele>
        <time>2012-03-26T14:31:51Z</time>
      </trkpt>
      <trkpt lat="43.39839" lon="2.58023">
        <ele>878.3</ele>
        <time>2012-03-26T14:32:02Z</time>
      </trkpt>
      <trkpt lat="43.39841" lon="2.58033">
        <ele>879.74</ele>
        <time>2012-03-26T14:32:14Z</time>
      </trkpt>
      <trkpt lat="43.39841" lon="2.58033">
        <ele>880.71</ele>
        <time>2012-03-26T14:32:22Z</time>
      </trkpt>
      <trkpt lat="43.39845" lon="2.58039">
        <ele>882.15</ele>
        <time>2012-03-26T14:32:33Z</time>
      </trkpt>
      <trkpt lat="43.39845" lon="2.58039">
        <ele>882.15</ele>
        <time>2012-03-26T14:32:35Z</time>
      </trkpt>
      <trkpt lat="43.39849" lon="2.58043">
        <ele>883.59</ele>
        <time>2012-03-26T14:32:39Z</time>
      </trkpt>
      <trkpt lat="43.39853" lon="2.58046">
        <ele>883.11</ele>
        <time>2012-03-26T14:32:43Z</time>
      </trkpt>
      <trkpt lat="43.39855" lon="2.58047">
        <ele>884.07</ele>
        <time>2012-03-26T14:32:45Z</time>
      </trkpt>
      <trkpt lat="43.39863" lon="2.58059">
        <ele>885.51</ele>
        <time>2012-03-26T14:32:56Z</time>
      </trkpt>
      <trkpt lat="43.39863" lon="2.58062">
        <ele>885.03</ele>
        <time>2012-03-26T14:32:58Z</time>
      </trkpt>
      <trkpt lat="43.39864" lon="2.58064">
        <ele>885.03</ele>
        <time>2012-03-26T14:33:03Z</time>
      </trkpt>
      <trkpt lat="43.39865" lon="2.58065">
        <ele>885.03</ele>
        <time>2012-03-26T14:33:15Z</time>
      </trkpt>
      <trkpt lat="43.39869" lon="2.58071">
        <ele>884.55</ele>
        <time>2012-03-26T14:33:20Z</time>
      </trkpt>
      <trkpt lat="43.39875" lon="2.58089">
        <ele>882.15</ele>
        <time>2012-03-26T14:33:32Z</time>
      </trkpt>
      <trkpt lat="43.39876" lon="2.58095">
        <ele>881.19</ele>
        <time>2012-03-26T14:33:35Z</time>
      </trkpt>
      <trkpt lat="43.39878" lon="2.58102">
        <ele>881.19</ele>
        <time>2012-03-26T14:33:40Z</time>
      </trkpt>
      <trkpt lat="43.39878" lon="2.5811">
        <ele>881.67</ele>
        <time>2012-03-26T14:33:44Z</time>
      </trkpt>
      <trkpt lat="43.39877" lon="2.5812">
        <ele>882.15</ele>
        <time>2012-03-26T14:33:51Z</time>
      </trkpt>
      <trkpt lat="43.39877" lon="2.58133">
        <ele>881.67</ele>
        <time>2012-03-26T14:33:59Z</time>
      </trkpt>
      <trkpt lat="43.39874" lon="2.58144">
        <ele>881.67</ele>
        <time>2012-03-26T14:34:07Z</time>
      </trkpt>
      <trkpt lat="43.39872" lon="2.58153">
        <ele>882.63</ele>
        <time>2012-03-26T14:34:13Z</time>
      </trkpt>
      <trkpt lat="43.39872" lon="2.58174">
        <ele>879.74</ele>
        <time>2012-03-26T14:34:26Z</time>
      </trkpt>
      <trkpt lat="43.39872" lon="2.58177">
        <ele>879.74</ele>
        <time>2012-03-26T14:34:28Z</time>
      </trkpt>
      <trkpt lat="43.39869" lon="2.5818">
        <ele>880.22</ele>
        <time>2012-03-26T14:34:42Z</time>
      </trkpt>
      <trkpt lat="43.39869" lon="2.58183">
        <ele>879.74</ele>
        <time>2012-03-26T14:34:45Z</time>
      </trkpt>
      <trkpt lat="43.39869" lon="2.58189">
        <ele>879.26</ele>
        <time>2012-03-26T14:34:48Z</time>
      </trkpt>
      <trkpt lat="43.39873" lon="2.58199">
        <ele>876.86</ele>
        <time>2012-03-26T14:34:54Z</time>
      </trkpt>
      <trkpt lat="43.39876" lon="2.58212">
        <ele>875.9</ele>
        <time>2012-03-26T14:35:02Z</time>
      </trkpt>
      <trkpt lat="43.39877" lon="2.58218">
        <ele>876.38</ele>
        <time>2012-03-26T14:35:06Z</time>
      </trkpt>
      <trkpt lat="43.39879" lon="2.58237">
        <ele>877.34</ele>
        <time>2012-03-26T14:35:18Z</time>
      </trkpt>
      <trkpt lat="43.39881" lon="2.58247">
        <ele>878.3</ele>
        <time>2012-03-26T14:35:25Z</time>
      </trkpt>
      <trkpt lat="43.39882" lon="2.5825">
        <ele>878.78</ele>
        <time>2012-03-26T14:35:28Z</time>
      </trkpt>
      <trkpt lat="43.39882" lon="2.58266">
        <ele>882.15</ele>
        <time>2012-03-26T14:35:43Z</time>
      </trkpt>
      <trkpt lat="43.39884" lon="2.58279">
        <ele>884.07</ele>
        <time>2012-03-26T14:35:57Z</time>
      </trkpt>
      <trkpt lat="43.39884" lon="2.58282">
        <ele>884.55</ele>
        <time>2012-03-26T14:36:12Z</time>
      </trkpt>
      <trkpt lat="43.39884" lon="2.58282">
        <ele>884.07</ele>
        <time>2012-03-26T14:36:13Z</time>
      </trkpt>
      <trkpt lat="43.39883" lon="2.58284">
        <ele>885.03</ele>
        <time>2012-03-26T14:36:15Z</time>
      </trkpt>
      <trkpt lat="43.39881" lon="2.58297">
        <ele>885.99</ele>
        <time>2012-03-26T14:36:25Z</time>
      </trkpt>
      <trkpt lat="43.39882" lon="2.583">
        <ele>887.43</ele>
        <time>2012-03-26T14:36:28Z</time>
      </trkpt>
      <trkpt lat="43.39881" lon="2.58306">
        <ele>888.4</ele>
        <time>2012-03-26T14:36:32Z</time>
      </trkpt>
      <trkpt lat="43.3988" lon="2.58311">
        <ele>888.4</ele>
        <time>2012-03-26T14:36:36Z</time>
      </trkpt>
      <trkpt lat="43.39881" lon="2.58313">
        <ele>888.4</ele>
        <time>2012-03-26T14:36:38Z</time>
      </trkpt>
      <trkpt lat="43.39879" lon="2.58322">
        <ele>889.84</ele>
        <time>2012-03-26T14:36:45Z</time>
      </trkpt>
      <trkpt lat="43.39881" lon="2.58328">
        <ele>889.84</ele>
        <time>2012-03-26T14:36:56Z</time>
      </trkpt>
      <trkpt lat="43.39881" lon="2.58328">
        <ele>889.84</ele>
        <time>2012-03-26T14:36:57Z</time>
      </trkpt>
      <trkpt lat="43.39881" lon="2.58331">
        <ele>890.32</ele>
        <time>2012-03-26T14:37:02Z</time>
      </trkpt>
      <trkpt lat="43.39878" lon="2.58334">
        <ele>890.8</ele>
        <time>2012-03-26T14:37:07Z</time>
      </trkpt>
      <trkpt lat="43.39877" lon="2.58341">
        <ele>892.24</ele>
        <time>2012-03-26T14:37:13Z</time>
      </trkpt>
      <trkpt lat="43.39877" lon="2.58344">
        <ele>893.2</ele>
        <time>2012-03-26T14:37:15Z</time>
      </trkpt>
      <trkpt lat="43.39877" lon="2.58355">
        <ele>895.61</ele>
        <time>2012-03-26T14:37:25Z</time>
      </trkpt>
      <trkpt lat="43.39877" lon="2.58362">
        <ele>897.53</ele>
        <time>2012-03-26T14:37:32Z</time>
      </trkpt>
      <trkpt lat="43.39879" lon="2.58375">
        <ele>898.49</ele>
        <time>2012-03-26T14:37:40Z</time>
      </trkpt>
      <trkpt lat="43.39879" lon="2.58381">
        <ele>899.45</ele>
        <time>2012-03-26T14:37:48Z</time>
      </trkpt>
      <trkpt lat="43.39879" lon="2.58383">
        <ele>899.45</ele>
        <time>2012-03-26T14:37:50Z</time>
      </trkpt>
      <trkpt lat="43.39879" lon="2.5839">
        <ele>900.41</ele>
        <time>2012-03-26T14:37:56Z</time>
      </trkpt>
      <trkpt lat="43.3988" lon="2.58393">
        <ele>900.41</ele>
        <time>2012-03-26T14:37:59Z</time>
      </trkpt>
      <trkpt lat="43.3988" lon="2.58398">
        <ele>899.93</ele>
        <time>2012-03-26T14:38:04Z</time>
      </trkpt>
      <trkpt lat="43.3988" lon="2.58402">
        <ele>899.93</ele>
        <time>2012-03-26T14:38:15Z</time>
      </trkpt>
      <trkpt lat="43.39878" lon="2.58402">
        <ele>898.49</ele>
        <time>2012-03-26T14:38:28Z</time>
      </trkpt>
      <trkpt lat="43.39878" lon="2.58402">
        <ele>898.97</ele>
        <time>2012-03-26T14:38:29Z</time>
      </trkpt>
      <trkpt lat="43.39877" lon="2.58402">
        <ele>900.89</ele>
        <time>2012-03-26T14:38:41Z</time>
      </trkpt>
      <trkpt lat="43.39877" lon="2.58402">
        <ele>900.89</ele>
        <time>2012-03-26T14:38:42Z</time>
      </trkpt>
      <trkpt lat="43.39879" lon="2.58407">
        <ele>900.89</ele>
        <time>2012-03-26T14:38:49Z</time>
      </trkpt>
      <trkpt lat="43.39879" lon="2.58413">
        <ele>901.37</ele>
        <time>2012-03-26T14:38:53Z</time>
      </trkpt>
      <trkpt lat="43.39879" lon="2.58417">
        <ele>901.37</ele>
        <time>2012-03-26T14:38:56Z</time>
      </trkpt>
      <trkpt lat="43.3988" lon="2.5842">
        <ele>902.82</ele>
        <time>2012-03-26T14:38:58Z</time>
      </trkpt>
      <trkpt lat="43.39885" lon="2.58437">
        <ele>899.45</ele>
        <time>2012-03-26T14:39:09Z</time>
      </trkpt>
      <trkpt lat="43.39886" lon="2.58444">
        <ele>899.93</ele>
        <time>2012-03-26T14:39:13Z</time>
      </trkpt>
      <trkpt lat="43.39889" lon="2.58448">
        <ele>899.45</ele>
        <time>2012-03-26T14:39:16Z</time>
      </trkpt>
      <trkpt lat="43.39892" lon="2.58466">
        <ele>900.41</ele>
        <time>2012-03-26T14:39:27Z</time>
      </trkpt>
      <trkpt lat="43.39891" lon="2.58474">
        <ele>899.93</ele>
        <time>2012-03-26T14:39:37Z</time>
      </trkpt>
      <trkpt lat="43.39891" lon="2.58474">
        <ele>899.93</ele>
        <time>2012-03-26T14:39:40Z</time>
      </trkpt>
      <trkpt lat="43.39895" lon="2.58479">
        <ele>900.41</ele>
        <time>2012-03-26T14:39:46Z</time>
      </trkpt>
      <trkpt lat="43.39896" lon="2.58482">
        <ele>900.41</ele>
        <time>2012-03-26T14:39:48Z</time>
      </trkpt>
      <trkpt lat="43.39896" lon="2.58487">
        <ele>900.89</ele>
        <time>2012-03-26T14:39:50Z</time>
      </trkpt>
      <trkpt lat="43.39898" lon="2.58496">
        <ele>901.85</ele>
        <time>2012-03-26T14:39:56Z</time>
      </trkpt>
      <trkpt lat="43.39898" lon="2.58499">
        <ele>902.82</ele>
        <time>2012-03-26T14:39:58Z</time>
      </trkpt>
      <trkpt lat="43.39901" lon="2.58515">
        <ele>904.26</ele>
        <time>2012-03-26T14:40:09Z</time>
      </trkpt>
      <trkpt lat="43.39904" lon="2.58532">
        <ele>905.7</ele>
        <time>2012-03-26T14:40:21Z</time>
      </trkpt>
      <trkpt lat="43.39904" lon="2.58538">
        <ele>905.7</ele>
        <time>2012-03-26T14:40:25Z</time>
      </trkpt>
      <trkpt lat="43.39904" lon="2.58545">
        <ele>906.66</ele>
        <time>2012-03-26T14:40:30Z</time>
      </trkpt>
      <trkpt lat="43.39904" lon="2.58549">
        <ele>907.14</ele>
        <time>2012-03-26T14:40:33Z</time>
      </trkpt>
      <trkpt lat="43.39905" lon="2.58553">
        <ele>908.1</ele>
        <time>2012-03-26T14:40:36Z</time>
      </trkpt>
      <trkpt lat="43.39908" lon="2.58563">
        <ele>909.54</ele>
        <time>2012-03-26T14:40:45Z</time>
      </trkpt>
      <trkpt lat="43.3991" lon="2.58572">
        <ele>911.47</ele>
        <time>2012-03-26T14:40:56Z</time>
      </trkpt>
      <trkpt lat="43.39913" lon="2.58591">
        <ele>915.31</ele>
        <time>2012-03-26T14:41:11Z</time>
      </trkpt>
      <trkpt lat="43.39913" lon="2.58604">
        <ele>918.2</ele>
        <time>2012-03-26T14:41:23Z</time>
      </trkpt>
      <trkpt lat="43.39913" lon="2.58605">
        <ele>918.2</ele>
        <time>2012-03-26T14:41:24Z</time>
      </trkpt>
      <trkpt lat="43.39914" lon="2.58613">
        <ele>921.08</ele>
        <time>2012-03-26T14:41:31Z</time>
      </trkpt>
      <trkpt lat="43.39916" lon="2.58626">
        <ele>922.04</ele>
        <time>2012-03-26T14:41:40Z</time>
      </trkpt>
      <trkpt lat="43.39917" lon="2.58629">
        <ele>922.04</ele>
        <time>2012-03-26T14:41:52Z</time>
      </trkpt>
      <trkpt lat="43.39919" lon="2.58626">
        <ele>922.04</ele>
        <time>2012-03-26T14:42:08Z</time>
      </trkpt>
      <trkpt lat="43.3992" lon="2.58627">
        <ele>922.52</ele>
        <time>2012-03-26T14:42:25Z</time>
      </trkpt>
      <trkpt lat="43.3992" lon="2.58629">
        <ele>922.04</ele>
        <time>2012-03-26T14:42:27Z</time>
      </trkpt>
      <trkpt lat="43.39926" lon="2.58642">
        <ele>922.04</ele>
        <time>2012-03-26T14:42:37Z</time>
      </trkpt>
      <trkpt lat="43.39935" lon="2.5866">
        <ele>921.08</ele>
        <time>2012-03-26T14:42:49Z</time>
      </trkpt>
      <trkpt lat="43.39943" lon="2.58673">
        <ele>922.52</ele>
        <time>2012-03-26T14:42:59Z</time>
      </trkpt>
      <trkpt lat="43.3995" lon="2.58688">
        <ele>923</ele>
        <time>2012-03-26T14:43:10Z</time>
      </trkpt>
      <trkpt lat="43.39961" lon="2.58702">
        <ele>924.45</ele>
        <time>2012-03-26T14:43:22Z</time>
      </trkpt>
      <trkpt lat="43.39966" lon="2.58709">
        <ele>924.45</ele>
        <time>2012-03-26T14:43:32Z</time>
      </trkpt>
      <trkpt lat="43.39969" lon="2.58711">
        <ele>923.96</ele>
        <time>2012-03-26T14:43:36Z</time>
      </trkpt>
      <trkpt lat="43.39972" lon="2.58713">
        <ele>924.45</ele>
        <time>2012-03-26T14:43:50Z</time>
      </trkpt>
      <trkpt lat="43.39974" lon="2.58714">
        <ele>923.96</ele>
        <time>2012-03-26T14:43:55Z</time>
      </trkpt>
      <trkpt lat="43.39985" lon="2.58723">
        <ele>923</ele>
        <time>2012-03-26T14:44:08Z</time>
      </trkpt>
      <trkpt lat="43.39999" lon="2.58734">
        <ele>922.04</ele>
        <time>2012-03-26T14:44:22Z</time>
      </trkpt>
      <trkpt lat="43.40002" lon="2.58737">
        <ele>922.52</ele>
        <time>2012-03-26T14:44:26Z</time>
      </trkpt>
      <trkpt lat="43.40004" lon="2.58739">
        <ele>922.04</ele>
        <time>2012-03-26T14:44:29Z</time>
      </trkpt>
      <trkpt lat="43.40013" lon="2.58744">
        <ele>919.64</ele>
        <time>2012-03-26T14:44:40Z</time>
      </trkpt>
      <trkpt lat="43.40021" lon="2.5875">
        <ele>918.68</ele>
        <time>2012-03-26T14:44:48Z</time>
      </trkpt>
      <trkpt lat="43.40031" lon="2.58759">
        <ele>917.72</ele>
        <time>2012-03-26T14:45:00Z</time>
      </trkpt>
      <trkpt lat="43.40034" lon="2.58761">
        <ele>917.24</ele>
        <time>2012-03-26T14:45:06Z</time>
      </trkpt>
      <trkpt lat="43.40038" lon="2.58763">
        <ele>916.75</ele>
        <time>2012-03-26T14:45:18Z</time>
      </trkpt>
      <trkpt lat="43.4004" lon="2.58766">
        <ele>916.75</ele>
        <time>2012-03-26T14:45:22Z</time>
      </trkpt>
      <trkpt lat="43.40043" lon="2.58768">
        <ele>916.75</ele>
        <time>2012-03-26T14:45:26Z</time>
      </trkpt>
      <trkpt lat="43.40053" lon="2.58776">
        <ele>916.75</ele>
        <time>2012-03-26T14:45:37Z</time>
      </trkpt>
      <trkpt lat="43.40055" lon="2.58778">
        <ele>916.75</ele>
        <time>2012-03-26T14:45:39Z</time>
      </trkpt>
      <trkpt lat="43.40068" lon="2.58784">
        <ele>917.24</ele>
        <time>2012-03-26T14:45:52Z</time>
      </trkpt>
      <trkpt lat="43.40069" lon="2.58786">
        <ele>916.27</ele>
        <time>2012-03-26T14:45:55Z</time>
      </trkpt>
      <trkpt lat="43.40072" lon="2.58786">
        <ele>916.75</ele>
        <time>2012-03-26T14:45:57Z</time>
      </trkpt>
      <trkpt lat="43.40076" lon="2.58789">
        <ele>917.24</ele>
        <time>2012-03-26T14:46:01Z</time>
      </trkpt>
      <trkpt lat="43.40083" lon="2.58795">
        <ele>917.72</ele>
        <time>2012-03-26T14:46:08Z</time>
      </trkpt>
      <trkpt lat="43.40091" lon="2.58801">
        <ele>917.72</ele>
        <time>2012-03-26T14:46:16Z</time>
      </trkpt>
      <trkpt lat="43.40099" lon="2.58812">
        <ele>918.2</ele>
        <time>2012-03-26T14:46:26Z</time>
      </trkpt>
      <trkpt lat="43.401" lon="2.58814">
        <ele>918.2</ele>
        <time>2012-03-26T14:46:39Z</time>
      </trkpt>
      <trkpt lat="43.401" lon="2.58814">
        <ele>919.16</ele>
        <time>2012-03-26T14:46:51Z</time>
      </trkpt>
      <trkpt lat="43.401" lon="2.58814">
        <ele>919.16</ele>
        <time>2012-03-26T14:46:58Z</time>
      </trkpt>
      <trkpt lat="43.40108" lon="2.58828">
        <ele>916.75</ele>
        <time>2012-03-26T14:47:11Z</time>
      </trkpt>
      <trkpt lat="43.40112" lon="2.58834">
        <ele>915.79</ele>
        <time>2012-03-26T14:47:16Z</time>
      </trkpt>
      <trkpt lat="43.40114" lon="2.58836">
        <ele>915.31</ele>
        <time>2012-03-26T14:47:18Z</time>
      </trkpt>
      <trkpt lat="43.40128" lon="2.58857">
        <ele>913.39</ele>
        <time>2012-03-26T14:47:33Z</time>
      </trkpt>
      <trkpt lat="43.40137" lon="2.58866">
        <ele>911.47</ele>
        <time>2012-03-26T14:47:42Z</time>
      </trkpt>
      <trkpt lat="43.40145" lon="2.58865">
        <ele>909.54</ele>
        <time>2012-03-26T14:47:50Z</time>
      </trkpt>
      <trkpt lat="43.40148" lon="2.58864">
        <ele>910.03</ele>
        <time>2012-03-26T14:48:07Z</time>
      </trkpt>
      <trkpt lat="43.40148" lon="2.58864">
        <ele>910.51</ele>
        <time>2012-03-26T14:48:34Z</time>
      </trkpt>
      <trkpt lat="43.40148" lon="2.58866">
        <ele>911.47</ele>
        <time>2012-03-26T14:48:37Z</time>
      </trkpt>
      <trkpt lat="43.40149" lon="2.58872">
        <ele>910.03</ele>
        <time>2012-03-26T14:48:49Z</time>
      </trkpt>
      <trkpt lat="43.40149" lon="2.58872">
        <ele>910.51</ele>
        <time>2012-03-26T14:48:59Z</time>
      </trkpt>
      <trkpt lat="43.40149" lon="2.58876">
        <ele>910.03</ele>
        <time>2012-03-26T14:49:12Z</time>
      </trkpt>
      <trkpt lat="43.40149" lon="2.58876">
        <ele>909.06</ele>
        <time>2012-03-26T14:49:37Z</time>
      </trkpt>
      <trkpt lat="43.4015" lon="2.58878">
        <ele>910.03</ele>
        <time>2012-03-26T14:49:39Z</time>
      </trkpt>
      <trkpt lat="43.40153" lon="2.58883">
        <ele>909.06</ele>
        <time>2012-03-26T14:49:44Z</time>
      </trkpt>
      <trkpt lat="43.40155" lon="2.58886">
        <ele>906.66</ele>
        <time>2012-03-26T14:49:51Z</time>
      </trkpt>
      <trkpt lat="43.40155" lon="2.58885">
        <ele>909.54</ele>
        <time>2012-03-26T14:50:04Z</time>
      </trkpt>
      <trkpt lat="43.40155" lon="2.58885">
        <ele>908.1</ele>
        <time>2012-03-26T14:50:11Z</time>
      </trkpt>
      <trkpt lat="43.40155" lon="2.58885">
        <ele>908.58</ele>
        <time>2012-03-26T14:50:30Z</time>
      </trkpt>
      <trkpt lat="43.40155" lon="2.58885">
        <ele>909.54</ele>
        <time>2012-03-26T14:50:36Z</time>
      </trkpt>
      <trkpt lat="43.40159" lon="2.58899">
        <ele>907.62</ele>
        <time>2012-03-26T14:50:48Z</time>
      </trkpt>
      <trkpt lat="43.40161" lon="2.58904">
        <ele>907.14</ele>
        <time>2012-03-26T14:50:53Z</time>
      </trkpt>
      <trkpt lat="43.40162" lon="2.58906">
        <ele>906.66</ele>
        <time>2012-03-26T14:50:55Z</time>
      </trkpt>
      <trkpt lat="43.40165" lon="2.58911">
        <ele>904.74</ele>
        <time>2012-03-26T14:51:01Z</time>
      </trkpt>
      <trkpt lat="43.40167" lon="2.5891">
        <ele>905.7</ele>
        <time>2012-03-26T14:51:05Z</time>
      </trkpt>
      <trkpt lat="43.40167" lon="2.5891">
        <ele>904.26</ele>
        <time>2012-03-26T14:51:17Z</time>
      </trkpt>
      <trkpt lat="43.40168" lon="2.58919">
        <ele>903.78</ele>
        <time>2012-03-26T14:51:22Z</time>
      </trkpt>
      <trkpt lat="43.40174" lon="2.58935">
        <ele>901.37</ele>
        <time>2012-03-26T14:51:33Z</time>
      </trkpt>
      <trkpt lat="43.40176" lon="2.5894">
        <ele>900.41</ele>
        <time>2012-03-26T14:51:36Z</time>
      </trkpt>
      <trkpt lat="43.40182" lon="2.58957">
        <ele>900.41</ele>
        <time>2012-03-26T14:51:46Z</time>
      </trkpt>
      <trkpt lat="43.40187" lon="2.58976">
        <ele>902.33</ele>
        <time>2012-03-26T14:51:58Z</time>
      </trkpt>
      <trkpt lat="43.40191" lon="2.58985">
        <ele>901.85</ele>
        <time>2012-03-26T14:52:04Z</time>
      </trkpt>
      <trkpt lat="43.40194" lon="2.58993">
        <ele>900.41</ele>
        <time>2012-03-26T14:52:08Z</time>
      </trkpt>
      <trkpt lat="43.40199" lon="2.59004">
        <ele>898.01</ele>
        <time>2012-03-26T14:52:17Z</time>
      </trkpt>
      <trkpt lat="43.40206" lon="2.59015">
        <ele>894.64</ele>
        <time>2012-03-26T14:52:26Z</time>
      </trkpt>
      <trkpt lat="43.40206" lon="2.59015">
        <ele>894.16</ele>
        <time>2012-03-26T14:52:29Z</time>
      </trkpt>
      <trkpt lat="43.40207" lon="2.59021">
        <ele>892.72</ele>
        <time>2012-03-26T14:52:34Z</time>
      </trkpt>
      <trkpt lat="43.40211" lon="2.5903">
        <ele>891.76</ele>
        <time>2012-03-26T14:52:40Z</time>
      </trkpt>
      <trkpt lat="43.40217" lon="2.59041">
        <ele>891.76</ele>
        <time>2012-03-26T14:52:48Z</time>
      </trkpt>
      <trkpt lat="43.4022" lon="2.59045">
        <ele>891.76</ele>
        <time>2012-03-26T14:52:52Z</time>
      </trkpt>
      <trkpt lat="43.40227" lon="2.59056">
        <ele>890.8</ele>
        <time>2012-03-26T14:53:04Z</time>
      </trkpt>
      <trkpt lat="43.40228" lon="2.59064">
        <ele>893.2</ele>
        <time>2012-03-26T14:53:17Z</time>
      </trkpt>
      <trkpt lat="43.4023" lon="2.59066">
        <ele>893.68</ele>
        <time>2012-03-26T14:53:34Z</time>
      </trkpt>
      <trkpt lat="43.40232" lon="2.59068">
        <ele>893.2</ele>
        <time>2012-03-26T14:53:38Z</time>
      </trkpt>
      <trkpt lat="43.40236" lon="2.59073">
        <ele>895.12</ele>
        <time>2012-03-26T14:53:43Z</time>
      </trkpt>
      <trkpt lat="43.40238" lon="2.59077">
        <ele>894.16</ele>
        <time>2012-03-26T14:53:46Z</time>
      </trkpt>
      <trkpt lat="43.4024" lon="2.59079">
        <ele>893.2</ele>
        <time>2012-03-26T14:53:53Z</time>
      </trkpt>
      <trkpt lat="43.4024" lon="2.59081">
        <ele>894.64</ele>
        <time>2012-03-26T14:54:02Z</time>
      </trkpt>
      <trkpt lat="43.40236" lon="2.59086">
        <ele>895.12</ele>
        <time>2012-03-26T14:54:07Z</time>
      </trkpt>
      <trkpt lat="43.40234" lon="2.59087">
        <ele>893.2</ele>
        <time>2012-03-26T14:54:10Z</time>
      </trkpt>
      <trkpt lat="43.40234" lon="2.59087">
        <ele>894.16</ele>
        <time>2012-03-26T14:54:11Z</time>
      </trkpt>
      <trkpt lat="43.40229" lon="2.59092">
        <ele>893.2</ele>
        <time>2012-03-26T14:54:15Z</time>
      </trkpt>
      <trkpt lat="43.4022" lon="2.59099">
        <ele>891.76</ele>
        <time>2012-03-26T14:54:23Z</time>
      </trkpt>
      <trkpt lat="43.40211" lon="2.59117">
        <ele>890.8</ele>
        <time>2012-03-26T14:54:36Z</time>
      </trkpt>
      <trkpt lat="43.40208" lon="2.59125">
        <ele>890.32</ele>
        <time>2012-03-26T14:54:41Z</time>
      </trkpt>
      <trkpt lat="43.40208" lon="2.59128">
        <ele>889.36</ele>
        <time>2012-03-26T14:54:44Z</time>
      </trkpt>
      <trkpt lat="43.40205" lon="2.59135">
        <ele>887.91</ele>
        <time>2012-03-26T14:54:54Z</time>
      </trkpt>
      <trkpt lat="43.40204" lon="2.59137">
        <ele>887.91</ele>
        <time>2012-03-26T14:54:56Z</time>
      </trkpt>
      <trkpt lat="43.40198" lon="2.59157">
        <ele>885.99</ele>
        <time>2012-03-26T14:55:08Z</time>
      </trkpt>
      <trkpt lat="43.40198" lon="2.59175">
        <ele>885.03</ele>
        <time>2012-03-26T14:55:20Z</time>
      </trkpt>
      <trkpt lat="43.40195" lon="2.59192">
        <ele>884.07</ele>
        <time>2012-03-26T14:55:30Z</time>
      </trkpt>
      <trkpt lat="43.40191" lon="2.59199">
        <ele>885.03</ele>
        <time>2012-03-26T14:55:42Z</time>
      </trkpt>
      <trkpt lat="43.40191" lon="2.59203">
        <ele>885.99</ele>
        <time>2012-03-26T14:55:53Z</time>
      </trkpt>
      <trkpt lat="43.4019" lon="2.59211">
        <ele>885.03</ele>
        <time>2012-03-26T14:55:58Z</time>
      </trkpt>
      <trkpt lat="43.40188" lon="2.59226">
        <ele>883.11</ele>
        <time>2012-03-26T14:56:07Z</time>
      </trkpt>
      <trkpt lat="43.40186" lon="2.5924">
        <ele>881.19</ele>
        <time>2012-03-26T14:56:19Z</time>
      </trkpt>
      <trkpt lat="43.40185" lon="2.5924">
        <ele>881.19</ele>
        <time>2012-03-26T14:56:32Z</time>
      </trkpt>
      <trkpt lat="43.40186" lon="2.59242">
        <ele>882.15</ele>
        <time>2012-03-26T14:56:42Z</time>
      </trkpt>
      <trkpt lat="43.40184" lon="2.59245">
        <ele>881.19</ele>
        <time>2012-03-26T14:56:48Z</time>
      </trkpt>
      <trkpt lat="43.40184" lon="2.59248">
        <ele>881.67</ele>
        <time>2012-03-26T14:57:09Z</time>
      </trkpt>
      <trkpt lat="43.40184" lon="2.59254">
        <ele>881.19</ele>
        <time>2012-03-26T14:57:14Z</time>
      </trkpt>
      <trkpt lat="43.40185" lon="2.59261">
        <ele>880.71</ele>
        <time>2012-03-26T14:57:19Z</time>
      </trkpt>
      <trkpt lat="43.40184" lon="2.59268">
        <ele>880.71</ele>
        <time>2012-03-26T14:57:27Z</time>
      </trkpt>
      <trkpt lat="43.40184" lon="2.59271">
        <ele>880.71</ele>
        <time>2012-03-26T14:57:30Z</time>
      </trkpt>
      <trkpt lat="43.40185" lon="2.59278">
        <ele>880.71</ele>
        <time>2012-03-26T14:57:37Z</time>
      </trkpt>
      <trkpt lat="43.40186" lon="2.59286">
        <ele>881.19</ele>
        <time>2012-03-26T14:57:46Z</time>
      </trkpt>
      <trkpt lat="43.40184" lon="2.59303">
        <ele>880.22</ele>
        <time>2012-03-26T14:57:57Z</time>
      </trkpt>
      <trkpt lat="43.40183" lon="2.59307">
        <ele>880.22</ele>
        <time>2012-03-26T14:58:00Z</time>
      </trkpt>
      <trkpt lat="43.40185" lon="2.59317">
        <ele>879.74</ele>
        <time>2012-03-26T14:58:09Z</time>
      </trkpt>
      <trkpt lat="43.40185" lon="2.59325">
        <ele>878.78</ele>
        <time>2012-03-26T14:58:16Z</time>
      </trkpt>
      <trkpt lat="43.40183" lon="2.59341">
        <ele>878.78</ele>
        <time>2012-03-26T14:58:27Z</time>
      </trkpt>
      <trkpt lat="43.40182" lon="2.59358">
        <ele>879.26</ele>
        <time>2012-03-26T14:58:39Z</time>
      </trkpt>
      <trkpt lat="43.40183" lon="2.59364">
        <ele>879.26</ele>
        <time>2012-03-26T14:58:43Z</time>
      </trkpt>
      <trkpt lat="43.40182" lon="2.59368">
        <ele>878.78</ele>
        <time>2012-03-26T14:58:46Z</time>
      </trkpt>
      <trkpt lat="43.40181" lon="2.59377">
        <ele>878.3</ele>
        <time>2012-03-26T14:58:53Z</time>
      </trkpt>
      <trkpt lat="43.40181" lon="2.59381">
        <ele>878.3</ele>
        <time>2012-03-26T14:58:55Z</time>
      </trkpt>
      <trkpt lat="43.40178" lon="2.59388">
        <ele>877.34</ele>
        <time>2012-03-26T14:59:00Z</time>
      </trkpt>
      <trkpt lat="43.40177" lon="2.59392">
        <ele>877.34</ele>
        <time>2012-03-26T14:59:03Z</time>
      </trkpt>
      <trkpt lat="43.40177" lon="2.59394">
        <ele>876.86</ele>
        <time>2012-03-26T14:59:05Z</time>
      </trkpt>
      <trkpt lat="43.40176" lon="2.59398">
        <ele>877.34</ele>
        <time>2012-03-26T14:59:08Z</time>
      </trkpt>
      <trkpt lat="43.40176" lon="2.59402">
        <ele>876.86</ele>
        <time>2012-03-26T14:59:11Z</time>
      </trkpt>
      <trkpt lat="43.40175" lon="2.59419">
        <ele>875.42</ele>
        <time>2012-03-26T14:59:23Z</time>
      </trkpt>
      <trkpt lat="43.40175" lon="2.5942">
        <ele>874.94</ele>
        <time>2012-03-26T14:59:26Z</time>
      </trkpt>
      <trkpt lat="43.40176" lon="2.59425">
        <ele>875.42</ele>
        <time>2012-03-26T14:59:29Z</time>
      </trkpt>
      <trkpt lat="43.40177" lon="2.59439">
        <ele>874.94</ele>
        <time>2012-03-26T14:59:39Z</time>
      </trkpt>
      <trkpt lat="43.40179" lon="2.59449">
        <ele>873.98</ele>
        <time>2012-03-26T14:59:48Z</time>
      </trkpt>
      <trkpt lat="43.4018" lon="2.59456">
        <ele>874.46</ele>
        <time>2012-03-26T14:59:53Z</time>
      </trkpt>
      <trkpt lat="43.40181" lon="2.59465">
        <ele>873.5</ele>
        <time>2012-03-26T15:00:05Z</time>
      </trkpt>
      <trkpt lat="43.40181" lon="2.59465">
        <ele>873.5</ele>
        <time>2012-03-26T15:00:17Z</time>
      </trkpt>
      <trkpt lat="43.40181" lon="2.5947">
        <ele>873.98</ele>
        <time>2012-03-26T15:00:20Z</time>
      </trkpt>
      <trkpt lat="43.4018" lon="2.59475">
        <ele>872.53</ele>
        <time>2012-03-26T15:00:23Z</time>
      </trkpt>
      <trkpt lat="43.40181" lon="2.59477">
        <ele>873.01</ele>
        <time>2012-03-26T15:00:29Z</time>
      </trkpt>
      <trkpt lat="43.40181" lon="2.5949">
        <ele>871.09</ele>
        <time>2012-03-26T15:00:37Z</time>
      </trkpt>
      <trkpt lat="43.40184" lon="2.59496">
        <ele>870.13</ele>
        <time>2012-03-26T15:00:41Z</time>
      </trkpt>
      <trkpt lat="43.40183" lon="2.595">
        <ele>870.61</ele>
        <time>2012-03-26T15:00:44Z</time>
      </trkpt>
      <trkpt lat="43.40184" lon="2.59504">
        <ele>870.13</ele>
        <time>2012-03-26T15:00:47Z</time>
      </trkpt>
      <trkpt lat="43.40185" lon="2.59507">
        <ele>869.65</ele>
        <time>2012-03-26T15:00:50Z</time>
      </trkpt>
      <trkpt lat="43.40186" lon="2.59511">
        <ele>869.17</ele>
        <time>2012-03-26T15:00:54Z</time>
      </trkpt>
      <trkpt lat="43.40188" lon="2.59516">
        <ele>868.69</ele>
        <time>2012-03-26T15:00:57Z</time>
      </trkpt>
      <trkpt lat="43.40188" lon="2.59524">
        <ele>867.25</ele>
        <time>2012-03-26T15:01:04Z</time>
      </trkpt>
      <trkpt lat="43.4019" lon="2.59528">
        <ele>867.25</ele>
        <time>2012-03-26T15:01:07Z</time>
      </trkpt>
      <trkpt lat="43.40191" lon="2.59532">
        <ele>866.77</ele>
        <time>2012-03-26T15:01:10Z</time>
      </trkpt>
      <trkpt lat="43.40196" lon="2.59545">
        <ele>864.36</ele>
        <time>2012-03-26T15:01:20Z</time>
      </trkpt>
      <trkpt lat="43.402" lon="2.59559">
        <ele>863.88</ele>
        <time>2012-03-26T15:01:31Z</time>
      </trkpt>
      <trkpt lat="43.40201" lon="2.59564">
        <ele>863.4</ele>
        <time>2012-03-26T15:01:35Z</time>
      </trkpt>
      <trkpt lat="43.40202" lon="2.59566">
        <ele>863.4</ele>
        <time>2012-03-26T15:01:37Z</time>
      </trkpt>
      <trkpt lat="43.40201" lon="2.59568">
        <ele>862.92</ele>
        <time>2012-03-26T15:01:40Z</time>
      </trkpt>
      <trkpt lat="43.40202" lon="2.59572">
        <ele>862.92</ele>
        <time>2012-03-26T15:01:42Z</time>
      </trkpt>
      <trkpt lat="43.40203" lon="2.59577">
        <ele>862.92</ele>
        <time>2012-03-26T15:01:47Z</time>
      </trkpt>
      <trkpt lat="43.40204" lon="2.5958">
        <ele>863.4</ele>
        <time>2012-03-26T15:01:49Z</time>
      </trkpt>
      <trkpt lat="43.40206" lon="2.59586">
        <ele>862.44</ele>
        <time>2012-03-26T15:01:53Z</time>
      </trkpt>
      <trkpt lat="43.40207" lon="2.59592">
        <ele>861.96</ele>
        <time>2012-03-26T15:01:57Z</time>
      </trkpt>
      <trkpt lat="43.40208" lon="2.59597">
        <ele>860.52</ele>
        <time>2012-03-26T15:02:01Z</time>
      </trkpt>
      <trkpt lat="43.40211" lon="2.5961">
        <ele>860.04</ele>
        <time>2012-03-26T15:02:09Z</time>
      </trkpt>
      <trkpt lat="43.40212" lon="2.59612">
        <ele>859.56</ele>
        <time>2012-03-26T15:02:11Z</time>
      </trkpt>
      <trkpt lat="43.40213" lon="2.59615">
        <ele>859.56</ele>
        <time>2012-03-26T15:02:14Z</time>
      </trkpt>
      <trkpt lat="43.40215" lon="2.59632">
        <ele>858.11</ele>
        <time>2012-03-26T15:02:25Z</time>
      </trkpt>
      <trkpt lat="43.40215" lon="2.59633">
        <ele>858.11</ele>
        <time>2012-03-26T15:02:26Z</time>
      </trkpt>
      <trkpt lat="43.40217" lon="2.59638">
        <ele>857.63</ele>
        <time>2012-03-26T15:02:29Z</time>
      </trkpt>
      <trkpt lat="43.40219" lon="2.59645">
        <ele>857.15</ele>
        <time>2012-03-26T15:02:34Z</time>
      </trkpt>
      <trkpt lat="43.4022" lon="2.5965">
        <ele>856.67</ele>
        <time>2012-03-26T15:02:38Z</time>
      </trkpt>
      <trkpt lat="43.40221" lon="2.59655">
        <ele>856.67</ele>
        <time>2012-03-26T15:02:41Z</time>
      </trkpt>
      <trkpt lat="43.40225" lon="2.59666">
        <ele>855.23</ele>
        <time>2012-03-26T15:02:51Z</time>
      </trkpt>
      <trkpt lat="43.40225" lon="2.59671">
        <ele>854.75</ele>
        <time>2012-03-26T15:02:54Z</time>
      </trkpt>
      <trkpt lat="43.40226" lon="2.59676">
        <ele>853.79</ele>
        <time>2012-03-26T15:02:58Z</time>
      </trkpt>
      <trkpt lat="43.40226" lon="2.59685">
        <ele>853.31</ele>
        <time>2012-03-26T15:03:03Z</time>
      </trkpt>
      <trkpt lat="43.40229" lon="2.59699">
        <ele>851.87</ele>
        <time>2012-03-26T15:03:13Z</time>
      </trkpt>
      <trkpt lat="43.4023" lon="2.59708">
        <ele>850.9</ele>
        <time>2012-03-26T15:03:19Z</time>
      </trkpt>
      <trkpt lat="43.40232" lon="2.59711">
        <ele>850.9</ele>
        <time>2012-03-26T15:03:22Z</time>
      </trkpt>
      <trkpt lat="43.40234" lon="2.59713">
        <ele>850.9</ele>
        <time>2012-03-26T15:03:24Z</time>
      </trkpt>
      <trkpt lat="43.40234" lon="2.59718">
        <ele>850.42</ele>
        <time>2012-03-26T15:03:35Z</time>
      </trkpt>
      <trkpt lat="43.40231" lon="2.59731">
        <ele>847.54</ele>
        <time>2012-03-26T15:03:43Z</time>
      </trkpt>
      <trkpt lat="43.40231" lon="2.59733">
        <ele>848.02</ele>
        <time>2012-03-26T15:03:44Z</time>
      </trkpt>
      <trkpt lat="43.40229" lon="2.59741">
        <ele>846.58</ele>
        <time>2012-03-26T15:03:48Z</time>
      </trkpt>
      <trkpt lat="43.40226" lon="2.59759">
        <ele>845.62</ele>
        <time>2012-03-26T15:03:57Z</time>
      </trkpt>
      <trkpt lat="43.40226" lon="2.59761">
        <ele>845.14</ele>
        <time>2012-03-26T15:03:59Z</time>
      </trkpt>
      <trkpt lat="43.40225" lon="2.59772">
        <ele>844.18</ele>
        <time>2012-03-26T15:04:05Z</time>
      </trkpt>
      <trkpt lat="43.40224" lon="2.59792">
        <ele>843.21</ele>
        <time>2012-03-26T15:04:16Z</time>
      </trkpt>
      <trkpt lat="43.40224" lon="2.59802">
        <ele>842.73</ele>
        <time>2012-03-26T15:04:22Z</time>
      </trkpt>
      <trkpt lat="43.40225" lon="2.59807">
        <ele>842.73</ele>
        <time>2012-03-26T15:04:25Z</time>
      </trkpt>
      <trkpt lat="43.40219" lon="2.59825">
        <ele>842.25</ele>
        <time>2012-03-26T15:04:37Z</time>
      </trkpt>
      <trkpt lat="43.40213" lon="2.59835">
        <ele>841.29</ele>
        <time>2012-03-26T15:04:47Z</time>
      </trkpt>
      <trkpt lat="43.40212" lon="2.5984">
        <ele>840.81</ele>
        <time>2012-03-26T15:04:51Z</time>
      </trkpt>
      <trkpt lat="43.40209" lon="2.59854">
        <ele>839.85</ele>
        <time>2012-03-26T15:05:03Z</time>
      </trkpt>
      <trkpt lat="43.40208" lon="2.59857">
        <ele>839.85</ele>
        <time>2012-03-26T15:05:05Z</time>
      </trkpt>
      <trkpt lat="43.40208" lon="2.5986">
        <ele>838.89</ele>
        <time>2012-03-26T15:05:08Z</time>
      </trkpt>
      <trkpt lat="43.40206" lon="2.5987">
        <ele>837.45</ele>
        <time>2012-03-26T15:05:17Z</time>
      </trkpt>
      <trkpt lat="43.40206" lon="2.59872">
        <ele>837.45</ele>
        <time>2012-03-26T15:05:19Z</time>
      </trkpt>
      <trkpt lat="43.40205" lon="2.59876">
        <ele>836.96</ele>
        <time>2012-03-26T15:05:22Z</time>
      </trkpt>
      <trkpt lat="43.40205" lon="2.5988">
        <ele>836</ele>
        <time>2012-03-26T15:05:27Z</time>
      </trkpt>
      <trkpt lat="43.40202" lon="2.59897">
        <ele>834.08</ele>
        <time>2012-03-26T15:05:40Z</time>
      </trkpt>
      <trkpt lat="43.40202" lon="2.59899">
        <ele>833.12</ele>
        <time>2012-03-26T15:05:43Z</time>
      </trkpt>
      <trkpt lat="43.40202" lon="2.59902">
        <ele>832.64</ele>
        <time>2012-03-26T15:05:45Z</time>
      </trkpt>
      <trkpt lat="43.40199" lon="2.59913">
        <ele>830.72</ele>
        <time>2012-03-26T15:05:54Z</time>
      </trkpt>
      <trkpt lat="43.40198" lon="2.59917">
        <ele>830.72</ele>
        <time>2012-03-26T15:05:57Z</time>
      </trkpt>
      <trkpt lat="43.40198" lon="2.5992">
        <ele>829.76</ele>
        <time>2012-03-26T15:06:00Z</time>
      </trkpt>
      <trkpt lat="43.40197" lon="2.59922">
        <ele>829.27</ele>
        <time>2012-03-26T15:06:16Z</time>
      </trkpt>
      <trkpt lat="43.40197" lon="2.59924">
        <ele>828.79</ele>
        <time>2012-03-26T15:06:18Z</time>
      </trkpt>
      <trkpt lat="43.40195" lon="2.59926">
        <ele>828.79</ele>
        <time>2012-03-26T15:06:20Z</time>
      </trkpt>
      <trkpt lat="43.40193" lon="2.5993">
        <ele>828.31</ele>
        <time>2012-03-26T15:06:24Z</time>
      </trkpt>
      <trkpt lat="43.40191" lon="2.59936">
        <ele>826.87</ele>
        <time>2012-03-26T15:06:28Z</time>
      </trkpt>
      <trkpt lat="43.40189" lon="2.59949">
        <ele>824.95</ele>
        <time>2012-03-26T15:06:40Z</time>
      </trkpt>
      <trkpt lat="43.40188" lon="2.59952">
        <ele>824.47</ele>
        <time>2012-03-26T15:06:44Z</time>
      </trkpt>
      <trkpt lat="43.40187" lon="2.59964">
        <ele>822.55</ele>
        <time>2012-03-26T15:06:54Z</time>
      </trkpt>
      <trkpt lat="43.40186" lon="2.59972">
        <ele>821.1</ele>
        <time>2012-03-26T15:07:00Z</time>
      </trkpt>
      <trkpt lat="43.40185" lon="2.59976">
        <ele>821.1</ele>
        <time>2012-03-26T15:07:03Z</time>
      </trkpt>
      <trkpt lat="43.40185" lon="2.5998">
        <ele>820.62</ele>
        <time>2012-03-26T15:07:06Z</time>
      </trkpt>
      <trkpt lat="43.40184" lon="2.59985">
        <ele>819.18</ele>
        <time>2012-03-26T15:07:09Z</time>
      </trkpt>
      <trkpt lat="43.40185" lon="2.59988">
        <ele>819.18</ele>
        <time>2012-03-26T15:07:12Z</time>
      </trkpt>
      <trkpt lat="43.40187" lon="2.59994">
        <ele>819.18</ele>
        <time>2012-03-26T15:07:22Z</time>
      </trkpt>
      <trkpt lat="43.40185" lon="2.59999">
        <ele>817.74</ele>
        <time>2012-03-26T15:07:25Z</time>
      </trkpt>
      <trkpt lat="43.40185" lon="2.60003">
        <ele>817.26</ele>
        <time>2012-03-26T15:07:28Z</time>
      </trkpt>
      <trkpt lat="43.40184" lon="2.60013">
        <ele>815.82</ele>
        <time>2012-03-26T15:07:34Z</time>
      </trkpt>
      <trkpt lat="43.40183" lon="2.60016">
        <ele>815.34</ele>
        <time>2012-03-26T15:07:36Z</time>
      </trkpt>
      <trkpt lat="43.4018" lon="2.60035">
        <ele>811.97</ele>
        <time>2012-03-26T15:07:48Z</time>
      </trkpt>
      <trkpt lat="43.40177" lon="2.60053">
        <ele>808.61</ele>
        <time>2012-03-26T15:08:01Z</time>
      </trkpt>
      <trkpt lat="43.40176" lon="2.60062">
        <ele>807.64</ele>
        <time>2012-03-26T15:08:06Z</time>
      </trkpt>
      <trkpt lat="43.40176" lon="2.60067">
        <ele>806.2</ele>
        <time>2012-03-26T15:08:10Z</time>
      </trkpt>
      <trkpt lat="43.40176" lon="2.60085">
        <ele>802.84</ele>
        <time>2012-03-26T15:08:19Z</time>
      </trkpt>
      <trkpt lat="43.40175" lon="2.60088">
        <ele>802.84</ele>
        <time>2012-03-26T15:08:21Z</time>
      </trkpt>
      <trkpt lat="43.40174" lon="2.60095">
        <ele>801.4</ele>
        <time>2012-03-26T15:08:25Z</time>
      </trkpt>
      <trkpt lat="43.40174" lon="2.60099">
        <ele>799.95</ele>
        <time>2012-03-26T15:08:28Z</time>
      </trkpt>
      <trkpt lat="43.40178" lon="2.60114">
        <ele>797.55</ele>
        <time>2012-03-26T15:08:39Z</time>
      </trkpt>
      <trkpt lat="43.40179" lon="2.60121">
        <ele>796.59</ele>
        <time>2012-03-26T15:08:43Z</time>
      </trkpt>
      <trkpt lat="43.40179" lon="2.60125">
        <ele>795.63</ele>
        <time>2012-03-26T15:08:46Z</time>
      </trkpt>
      <trkpt lat="43.40179" lon="2.60128">
        <ele>795.15</ele>
        <time>2012-03-26T15:08:48Z</time>
      </trkpt>
      <trkpt lat="43.40181" lon="2.60135">
        <ele>793.22</ele>
        <time>2012-03-26T15:08:52Z</time>
      </trkpt>
      <trkpt lat="43.40182" lon="2.60139">
        <ele>792.74</ele>
        <time>2012-03-26T15:08:54Z</time>
      </trkpt>
      <trkpt lat="43.40183" lon="2.6015">
        <ele>790.82</ele>
        <time>2012-03-26T15:09:02Z</time>
      </trkpt>
      <trkpt lat="43.40183" lon="2.60154">
        <ele>790.34</ele>
        <time>2012-03-26T15:09:05Z</time>
      </trkpt>
      <trkpt lat="43.40184" lon="2.60159">
        <ele>788.9</ele>
        <time>2012-03-26T15:09:09Z</time>
      </trkpt>
      <trkpt lat="43.40185" lon="2.60162">
        <ele>788.9</ele>
        <time>2012-03-26T15:09:11Z</time>
      </trkpt>
      <trkpt lat="43.40188" lon="2.60169">
        <ele>787.46</ele>
        <time>2012-03-26T15:09:22Z</time>
      </trkpt>
      <trkpt lat="43.40193" lon="2.60182">
        <ele>785.05</ele>
        <time>2012-03-26T15:09:35Z</time>
      </trkpt>
      <trkpt lat="43.40196" lon="2.60191">
        <ele>782.65</ele>
        <time>2012-03-26T15:09:43Z</time>
      </trkpt>
      <trkpt lat="43.40199" lon="2.602">
        <ele>781.21</ele>
        <time>2012-03-26T15:09:50Z</time>
      </trkpt>
      <trkpt lat="43.402" lon="2.60203">
        <ele>780.73</ele>
        <time>2012-03-26T15:09:52Z</time>
      </trkpt>
      <trkpt lat="43.40202" lon="2.60206">
        <ele>779.29</ele>
        <time>2012-03-26T15:09:56Z</time>
      </trkpt>
      <trkpt lat="43.40203" lon="2.60212">
        <ele>777.84</ele>
        <time>2012-03-26T15:10:01Z</time>
      </trkpt>
      <trkpt lat="43.40205" lon="2.60215">
        <ele>778.32</ele>
        <time>2012-03-26T15:10:04Z</time>
      </trkpt>
      <trkpt lat="43.4021" lon="2.60219">
        <ele>777.36</ele>
        <time>2012-03-26T15:10:09Z</time>
      </trkpt>
      <trkpt lat="43.40213" lon="2.60226">
        <ele>776.4</ele>
        <time>2012-03-26T15:10:14Z</time>
      </trkpt>
      <trkpt lat="43.40226" lon="2.60243">
        <ele>775.44</ele>
        <time>2012-03-26T15:10:26Z</time>
      </trkpt>
      <trkpt lat="43.40227" lon="2.60245">
        <ele>774.48</ele>
        <time>2012-03-26T15:10:30Z</time>
      </trkpt>
      <trkpt lat="43.40233" lon="2.60258">
        <ele>771.6</ele>
        <time>2012-03-26T15:10:40Z</time>
      </trkpt>
      <trkpt lat="43.40233" lon="2.6026">
        <ele>771.11</ele>
        <time>2012-03-26T15:10:42Z</time>
      </trkpt>
      <trkpt lat="43.40237" lon="2.60268">
        <ele>769.67</ele>
        <time>2012-03-26T15:10:51Z</time>
      </trkpt>
      <trkpt lat="43.40243" lon="2.60277">
        <ele>767.75</ele>
        <time>2012-03-26T15:11:01Z</time>
      </trkpt>
      <trkpt lat="43.40244" lon="2.60279">
        <ele>766.79</ele>
        <time>2012-03-26T15:11:04Z</time>
      </trkpt>
      <trkpt lat="43.40251" lon="2.60288">
        <ele>763.9</ele>
        <time>2012-03-26T15:11:16Z</time>
      </trkpt>
      <trkpt lat="43.40252" lon="2.60291">
        <ele>763.9</ele>
        <time>2012-03-26T15:11:18Z</time>
      </trkpt>
      <trkpt lat="43.40257" lon="2.60298">
        <ele>762.46</ele>
        <time>2012-03-26T15:11:24Z</time>
      </trkpt>
      <trkpt lat="43.40259" lon="2.603">
        <ele>761.98</ele>
        <time>2012-03-26T15:11:26Z</time>
      </trkpt>
      <trkpt lat="43.40262" lon="2.60304">
        <ele>761.98</ele>
        <time>2012-03-26T15:11:29Z</time>
      </trkpt>
      <trkpt lat="43.4027" lon="2.60316">
        <ele>758.62</ele>
        <time>2012-03-26T15:11:42Z</time>
      </trkpt>
      <trkpt lat="43.40275" lon="2.60328">
        <ele>756.21</ele>
        <time>2012-03-26T15:11:52Z</time>
      </trkpt>
      <trkpt lat="43.40281" lon="2.60335">
        <ele>753.81</ele>
        <time>2012-03-26T15:11:59Z</time>
      </trkpt>
      <trkpt lat="43.40281" lon="2.60341">
        <ele>752.85</ele>
        <time>2012-03-26T15:12:04Z</time>
      </trkpt>
      <trkpt lat="43.40289" lon="2.60353">
        <ele>749.49</ele>
        <time>2012-03-26T15:12:14Z</time>
      </trkpt>
      <trkpt lat="43.40291" lon="2.60362">
        <ele>748.04</ele>
        <time>2012-03-26T15:12:29Z</time>
      </trkpt>
      <trkpt lat="43.40295" lon="2.60369">
        <ele>746.6</ele>
        <time>2012-03-26T15:12:33Z</time>
      </trkpt>
      <trkpt lat="43.403" lon="2.60373">
        <ele>745.16</ele>
        <time>2012-03-26T15:12:39Z</time>
      </trkpt>
      <trkpt lat="43.40307" lon="2.60379">
        <ele>744.2</ele>
        <time>2012-03-26T15:12:46Z</time>
      </trkpt>
      <trkpt lat="43.40312" lon="2.60382">
        <ele>743.24</ele>
        <time>2012-03-26T15:12:59Z</time>
      </trkpt>
      <trkpt lat="43.40312" lon="2.60383">
        <ele>743.24</ele>
        <time>2012-03-26T15:13:00Z</time>
      </trkpt>
      <trkpt lat="43.40324" lon="2.60397">
        <ele>740.83</ele>
        <time>2012-03-26T15:13:12Z</time>
      </trkpt>
      <trkpt lat="43.40333" lon="2.60411">
        <ele>737.95</ele>
        <time>2012-03-26T15:13:23Z</time>
      </trkpt>
      <trkpt lat="43.40334" lon="2.60418">
        <ele>736.51</ele>
        <time>2012-03-26T15:13:36Z</time>
      </trkpt>
      <trkpt lat="43.40334" lon="2.6042">
        <ele>736.51</ele>
        <time>2012-03-26T15:13:38Z</time>
      </trkpt>
      <trkpt lat="43.40332" lon="2.60421">
        <ele>736.03</ele>
        <time>2012-03-26T15:13:40Z</time>
      </trkpt>
      <trkpt lat="43.40322" lon="2.60426">
        <ele>735.55</ele>
        <time>2012-03-26T15:13:52Z</time>
      </trkpt>
      <trkpt lat="43.4031" lon="2.60427">
        <ele>734.58</ele>
        <time>2012-03-26T15:14:02Z</time>
      </trkpt>
      <trkpt lat="43.40302" lon="2.60427">
        <ele>734.1</ele>
        <time>2012-03-26T15:14:09Z</time>
      </trkpt>
      <trkpt lat="43.40289" lon="2.60429">
        <ele>734.1</ele>
        <time>2012-03-26T15:14:21Z</time>
      </trkpt>
      <trkpt lat="43.40285" lon="2.60429">
        <ele>733.62</ele>
        <time>2012-03-26T15:14:23Z</time>
      </trkpt>
      <trkpt lat="43.40272" lon="2.60421">
        <ele>732.66</ele>
        <time>2012-03-26T15:14:37Z</time>
      </trkpt>
      <trkpt lat="43.40269" lon="2.60425">
        <ele>732.66</ele>
        <time>2012-03-26T15:14:47Z</time>
      </trkpt>
      <trkpt lat="43.40268" lon="2.60421">
        <ele>733.62</ele>
        <time>2012-03-26T15:15:03Z</time>
      </trkpt>
      <trkpt lat="43.40266" lon="2.60422">
        <ele>733.14</ele>
        <time>2012-03-26T15:15:14Z</time>
      </trkpt>
      <trkpt lat="43.40263" lon="2.60425">
        <ele>732.66</ele>
        <time>2012-03-26T15:15:16Z</time>
      </trkpt>
      <trkpt lat="43.40259" lon="2.60426">
        <ele>732.66</ele>
        <time>2012-03-26T15:15:19Z</time>
      </trkpt>
      <trkpt lat="43.40249" lon="2.60427">
        <ele>732.18</ele>
        <time>2012-03-26T15:15:28Z</time>
      </trkpt>
      <trkpt lat="43.40236" lon="2.60421">
        <ele>731.22</ele>
        <time>2012-03-26T15:15:39Z</time>
      </trkpt>
      <trkpt lat="43.40222" lon="2.60418">
        <ele>730.26</ele>
        <time>2012-03-26T15:15:50Z</time>
      </trkpt>
      <trkpt lat="43.40221" lon="2.60417">
        <ele>730.74</ele>
        <time>2012-03-26T15:15:52Z</time>
      </trkpt>
      <trkpt lat="43.40214" lon="2.60414">
        <ele>730.26</ele>
        <time>2012-03-26T15:15:56Z</time>
      </trkpt>
      <trkpt lat="43.40212" lon="2.60411">
        <ele>729.78</ele>
        <time>2012-03-26T15:15:58Z</time>
      </trkpt>
      <trkpt lat="43.40208" lon="2.60407">
        <ele>729.3</ele>
        <time>2012-03-26T15:16:11Z</time>
      </trkpt>
      <trkpt lat="43.40208" lon="2.60407">
        <ele>729.78</ele>
        <time>2012-03-26T15:16:13Z</time>
      </trkpt>
      <trkpt lat="43.40206" lon="2.60405">
        <ele>729.3</ele>
        <time>2012-03-26T15:16:15Z</time>
      </trkpt>
      <trkpt lat="43.40201" lon="2.60402">
        <ele>728.82</ele>
        <time>2012-03-26T15:16:19Z</time>
      </trkpt>
      <trkpt lat="43.40199" lon="2.60401">
        <ele>729.3</ele>
        <time>2012-03-26T15:16:23Z</time>
      </trkpt>
      <trkpt lat="43.40197" lon="2.60402">
        <ele>729.3</ele>
        <time>2012-03-26T15:16:25Z</time>
      </trkpt>
      <trkpt lat="43.40188" lon="2.60397">
        <ele>728.82</ele>
        <time>2012-03-26T15:16:36Z</time>
      </trkpt>
      <trkpt lat="43.40182" lon="2.60393">
        <ele>727.37</ele>
        <time>2012-03-26T15:16:54Z</time>
      </trkpt>
      <trkpt lat="43.40181" lon="2.60393">
        <ele>727.37</ele>
        <time>2012-03-26T15:16:55Z</time>
      </trkpt>
      <trkpt lat="43.40169" lon="2.60387">
        <ele>726.41</ele>
        <time>2012-03-26T15:17:06Z</time>
      </trkpt>
      <trkpt lat="43.40166" lon="2.60388">
        <ele>724.49</ele>
        <time>2012-03-26T15:17:13Z</time>
      </trkpt>
      <trkpt lat="43.40164" lon="2.60394">
        <ele>723.53</ele>
        <time>2012-03-26T15:17:17Z</time>
      </trkpt>
      <trkpt lat="43.40161" lon="2.60395">
        <ele>723.05</ele>
        <time>2012-03-26T15:17:19Z</time>
      </trkpt>
      <trkpt lat="43.40153" lon="2.60398">
        <ele>722.09</ele>
        <time>2012-03-26T15:17:24Z</time>
      </trkpt>
      <trkpt lat="43.40136" lon="2.60403">
        <ele>721.13</ele>
        <time>2012-03-26T15:17:37Z</time>
      </trkpt>
      <trkpt lat="43.40133" lon="2.60403">
        <ele>720.16</ele>
        <time>2012-03-26T15:17:40Z</time>
      </trkpt>
      <trkpt lat="43.40129" lon="2.60406">
        <ele>720.16</ele>
        <time>2012-03-26T15:17:44Z</time>
      </trkpt>
      <trkpt lat="43.4012" lon="2.60408">
        <ele>718.72</ele>
        <time>2012-03-26T15:17:52Z</time>
      </trkpt>
      <trkpt lat="43.40117" lon="2.60409">
        <ele>718.24</ele>
        <time>2012-03-26T15:17:55Z</time>
      </trkpt>
      <trkpt lat="43.40104" lon="2.60414">
        <ele>717.76</ele>
        <time>2012-03-26T15:18:08Z</time>
      </trkpt>
      <trkpt lat="43.40103" lon="2.60414">
        <ele>717.28</ele>
        <time>2012-03-26T15:18:10Z</time>
      </trkpt>
      <trkpt lat="43.40093" lon="2.60416">
        <ele>717.28</ele>
        <time>2012-03-26T15:18:16Z</time>
      </trkpt>
      <trkpt lat="43.40082" lon="2.6042">
        <ele>717.28</ele>
        <time>2012-03-26T15:18:28Z</time>
      </trkpt>
      <trkpt lat="43.40081" lon="2.6042">
        <ele>716.8</ele>
        <time>2012-03-26T15:18:31Z</time>
      </trkpt>
      <trkpt lat="43.40075" lon="2.60423">
        <ele>716.32</ele>
        <time>2012-03-26T15:18:43Z</time>
      </trkpt>
      <trkpt lat="43.40072" lon="2.60424">
        <ele>716.32</ele>
        <time>2012-03-26T15:18:46Z</time>
      </trkpt>
      <trkpt lat="43.4007" lon="2.60427">
        <ele>715.84</ele>
        <time>2012-03-26T15:18:49Z</time>
      </trkpt>
      <trkpt lat="43.40064" lon="2.60433">
        <ele>715.84</ele>
        <time>2012-03-26T15:19:01Z</time>
      </trkpt>
      <trkpt lat="43.40062" lon="2.60431">
        <ele>715.36</ele>
        <time>2012-03-26T15:19:16Z</time>
      </trkpt>
      <trkpt lat="43.40059" lon="2.60433">
        <ele>715.36</ele>
        <time>2012-03-26T15:19:35Z</time>
      </trkpt>
      <trkpt lat="43.40056" lon="2.60432">
        <ele>715.36</ele>
        <time>2012-03-26T15:19:49Z</time>
      </trkpt>
      <trkpt lat="43.40056" lon="2.60432">
        <ele>715.36</ele>
        <time>2012-03-26T15:20:16Z</time>
      </trkpt>
      <trkpt lat="43.40052" lon="2.60433">
        <ele>715.36</ele>
        <time>2012-03-26T15:20:27Z</time>
      </trkpt>
      <trkpt lat="43.40039" lon="2.60429">
        <ele>714.88</ele>
        <time>2012-03-26T15:20:39Z</time>
      </trkpt>
      <trkpt lat="43.40028" lon="2.60421">
        <ele>714.4</ele>
        <time>2012-03-26T15:20:50Z</time>
      </trkpt>
      <trkpt lat="43.40018" lon="2.60414">
        <ele>713.44</ele>
        <time>2012-03-26T15:20:59Z</time>
      </trkpt>
      <trkpt lat="43.40006" lon="2.60407">
        <ele>712.95</ele>
        <time>2012-03-26T15:21:11Z</time>
      </trkpt>
      <trkpt lat="43.40005" lon="2.60407">
        <ele>712.47</ele>
        <time>2012-03-26T15:21:12Z</time>
      </trkpt>
      <trkpt lat="43.40003" lon="2.60406">
        <ele>712.47</ele>
        <time>2012-03-26T15:21:14Z</time>
      </trkpt>
      <trkpt lat="43.39993" lon="2.60404">
        <ele>712.95</ele>
        <time>2012-03-26T15:21:22Z</time>
      </trkpt>
      <trkpt lat="43.39981" lon="2.60399">
        <ele>711.51</ele>
        <time>2012-03-26T15:21:34Z</time>
      </trkpt>
      <trkpt lat="43.39978" lon="2.60398">
        <ele>711.51</ele>
        <time>2012-03-26T15:21:37Z</time>
      </trkpt>
      <trkpt lat="43.39972" lon="2.60397">
        <ele>711.03</ele>
        <time>2012-03-26T15:21:41Z</time>
      </trkpt>
      <trkpt lat="43.39964" lon="2.60395">
        <ele>710.07</ele>
        <time>2012-03-26T15:21:50Z</time>
      </trkpt>
      <trkpt lat="43.39957" lon="2.60395">
        <ele>710.07</ele>
        <time>2012-03-26T15:21:56Z</time>
      </trkpt>
      <trkpt lat="43.39943" lon="2.60395">
        <ele>708.63</ele>
        <time>2012-03-26T15:22:08Z</time>
      </trkpt>
      <trkpt lat="43.39937" lon="2.60395">
        <ele>708.63</ele>
        <time>2012-03-26T15:22:13Z</time>
      </trkpt>
      <trkpt lat="43.39931" lon="2.60395">
        <ele>708.63</ele>
        <time>2012-03-26T15:22:18Z</time>
      </trkpt>
      <trkpt lat="43.39917" lon="2.60393">
        <ele>707.67</ele>
        <time>2012-03-26T15:22:32Z</time>
      </trkpt>
      <trkpt lat="43.39912" lon="2.60393">
        <ele>707.19</ele>
        <time>2012-03-26T15:22:36Z</time>
      </trkpt>
      <trkpt lat="43.39898" lon="2.6039">
        <ele>706.23</ele>
        <time>2012-03-26T15:22:48Z</time>
      </trkpt>
      <trkpt lat="43.39886" lon="2.60384">
        <ele>705.75</ele>
        <time>2012-03-26T15:22:58Z</time>
      </trkpt>
      <trkpt lat="43.39884" lon="2.6038">
        <ele>705.26</ele>
        <time>2012-03-26T15:23:11Z</time>
      </trkpt>
      <trkpt lat="43.39884" lon="2.6038">
        <ele>705.26</ele>
        <time>2012-03-26T15:23:14Z</time>
      </trkpt>
      <trkpt lat="43.39884" lon="2.60376">
        <ele>704.78</ele>
        <time>2012-03-26T15:23:17Z</time>
      </trkpt>
      <trkpt lat="43.39883" lon="2.60372">
        <ele>704.3</ele>
        <time>2012-03-26T15:23:21Z</time>
      </trkpt>
      <trkpt lat="43.3988" lon="2.60361">
        <ele>702.38</ele>
        <time>2012-03-26T15:23:28Z</time>
      </trkpt>
      <trkpt lat="43.39877" lon="2.60355">
        <ele>701.9</ele>
        <time>2012-03-26T15:23:33Z</time>
      </trkpt>
      <trkpt lat="43.39871" lon="2.60342">
        <ele>700.94</ele>
        <time>2012-03-26T15:23:42Z</time>
      </trkpt>
      <trkpt lat="43.39867" lon="2.60328">
        <ele>699.5</ele>
        <time>2012-03-26T15:23:51Z</time>
      </trkpt>
      <trkpt lat="43.39864" lon="2.60324">
        <ele>699.02</ele>
        <time>2012-03-26T15:23:55Z</time>
      </trkpt>
      <trkpt lat="43.39863" lon="2.60312">
        <ele>698.05</ele>
        <time>2012-03-26T15:24:03Z</time>
      </trkpt>
      <trkpt lat="43.39861" lon="2.60309">
        <ele>698.05</ele>
        <time>2012-03-26T15:24:05Z</time>
      </trkpt>
      <trkpt lat="43.39858" lon="2.60303">
        <ele>697.57</ele>
        <time>2012-03-26T15:24:08Z</time>
      </trkpt>
      <trkpt lat="43.39853" lon="2.60293">
        <ele>696.61</ele>
        <time>2012-03-26T15:24:15Z</time>
      </trkpt>
      <trkpt lat="43.39848" lon="2.6028">
        <ele>695.65</ele>
        <time>2012-03-26T15:24:23Z</time>
      </trkpt>
      <trkpt lat="43.39845" lon="2.60274">
        <ele>695.17</ele>
        <time>2012-03-26T15:24:27Z</time>
      </trkpt>
      <trkpt lat="43.39842" lon="2.60268">
        <ele>694.69</ele>
        <time>2012-03-26T15:24:31Z</time>
      </trkpt>
      <trkpt lat="43.39834" lon="2.60258">
        <ele>693.25</ele>
        <time>2012-03-26T15:24:41Z</time>
      </trkpt>
      <trkpt lat="43.39831" lon="2.60248">
        <ele>692.29</ele>
        <time>2012-03-26T15:24:48Z</time>
      </trkpt>
      <trkpt lat="43.39829" lon="2.60238">
        <ele>696.61</ele>
        <time>2012-03-26T15:24:55Z</time>
      </trkpt>
      <trkpt lat="43.39829" lon="2.60237">
        <ele>692.77</ele>
        <time>2012-03-26T15:24:56Z</time>
      </trkpt>
      <trkpt lat="43.39827" lon="2.60235">
        <ele>691.81</ele>
        <time>2012-03-26T15:24:59Z</time>
      </trkpt>
      <trkpt lat="43.39824" lon="2.60232">
        <ele>691.33</ele>
        <time>2012-03-26T15:25:02Z</time>
      </trkpt>
      <trkpt lat="43.39822" lon="2.60223">
        <ele>690.36</ele>
        <time>2012-03-26T15:25:17Z</time>
      </trkpt>
      <trkpt lat="43.3982" lon="2.60219">
        <ele>690.36</ele>
        <time>2012-03-26T15:25:19Z</time>
      </trkpt>
      <trkpt lat="43.39813" lon="2.60206">
        <ele>686.52</ele>
        <time>2012-03-26T15:25:28Z</time>
      </trkpt>
      <trkpt lat="43.39811" lon="2.60203">
        <ele>687.96</ele>
        <time>2012-03-26T15:25:34Z</time>
      </trkpt>
      <trkpt lat="43.398" lon="2.60186">
        <ele>685.56</ele>
        <time>2012-03-26T15:25:49Z</time>
      </trkpt>
      <trkpt lat="43.39794" lon="2.60181">
        <ele>684.6</ele>
        <time>2012-03-26T15:25:58Z</time>
      </trkpt>
      <trkpt lat="43.39785" lon="2.60179">
        <ele>683.15</ele>
        <time>2012-03-26T15:26:04Z</time>
      </trkpt>
      <trkpt lat="43.39781" lon="2.60177">
        <ele>682.67</ele>
        <time>2012-03-26T15:26:07Z</time>
      </trkpt>
      <trkpt lat="43.39778" lon="2.60165">
        <ele>681.71</ele>
        <time>2012-03-26T15:26:12Z</time>
      </trkpt>
      <trkpt lat="43.39775" lon="2.60159">
        <ele>681.23</ele>
        <time>2012-03-26T15:26:15Z</time>
      </trkpt>
      <trkpt lat="43.39771" lon="2.60156">
        <ele>680.27</ele>
        <time>2012-03-26T15:26:19Z</time>
      </trkpt>
      <trkpt lat="43.39767" lon="2.60153">
        <ele>679.79</ele>
        <time>2012-03-26T15:26:23Z</time>
      </trkpt>
      <trkpt lat="43.39766" lon="2.60151">
        <ele>679.79</ele>
        <time>2012-03-26T15:26:24Z</time>
      </trkpt>
      <trkpt lat="43.39766" lon="2.60146">
        <ele>679.31</ele>
        <time>2012-03-26T15:26:27Z</time>
      </trkpt>
      <trkpt lat="43.39761" lon="2.6014">
        <ele>678.35</ele>
        <time>2012-03-26T15:26:33Z</time>
      </trkpt>
      <trkpt lat="43.3976" lon="2.60133">
        <ele>677.39</ele>
        <time>2012-03-26T15:26:38Z</time>
      </trkpt>
      <trkpt lat="43.39755" lon="2.60125">
        <ele>675.94</ele>
        <time>2012-03-26T15:26:47Z</time>
      </trkpt>
      <trkpt lat="43.39756" lon="2.60109">
        <ele>674.02</ele>
        <time>2012-03-26T15:27:03Z</time>
      </trkpt>
      <trkpt lat="43.39756" lon="2.60106">
        <ele>674.02</ele>
        <time>2012-03-26T15:27:07Z</time>
      </trkpt>
      <trkpt lat="43.3975" lon="2.60089">
        <ele>673.06</ele>
        <time>2012-03-26T15:27:18Z</time>
      </trkpt>
      <trkpt lat="43.39747" lon="2.60074">
        <ele>671.62</ele>
        <time>2012-03-26T15:27:29Z</time>
      </trkpt>
      <trkpt lat="43.39745" lon="2.60058">
        <ele>669.7</ele>
        <time>2012-03-26T15:27:40Z</time>
      </trkpt>
      <trkpt lat="43.39745" lon="2.60058">
        <ele>670.18</ele>
        <time>2012-03-26T15:27:44Z</time>
      </trkpt>
      <trkpt lat="43.39742" lon="2.60056">
        <ele>669.7</ele>
        <time>2012-03-26T15:27:48Z</time>
      </trkpt>
      <trkpt lat="43.3974" lon="2.60054">
        <ele>669.22</ele>
        <time>2012-03-26T15:27:50Z</time>
      </trkpt>
      <trkpt lat="43.39737" lon="2.60051">
        <ele>669.22</ele>
        <time>2012-03-26T15:27:54Z</time>
      </trkpt>
      <trkpt lat="43.39726" lon="2.60042">
        <ele>666.33</ele>
        <time>2012-03-26T15:28:09Z</time>
      </trkpt>
      <trkpt lat="43.39724" lon="2.6004">
        <ele>665.85</ele>
        <time>2012-03-26T15:28:12Z</time>
      </trkpt>
      <trkpt lat="43.39714" lon="2.60036">
        <ele>663.93</ele>
        <time>2012-03-26T15:28:24Z</time>
      </trkpt>
      <trkpt lat="43.39704" lon="2.60033">
        <ele>662.49</ele>
        <time>2012-03-26T15:28:36Z</time>
      </trkpt>
      <trkpt lat="43.39696" lon="2.60032">
        <ele>660.56</ele>
        <time>2012-03-26T15:28:44Z</time>
      </trkpt>
      <trkpt lat="43.39688" lon="2.60031">
        <ele>658.64</ele>
        <time>2012-03-26T15:28:51Z</time>
      </trkpt>
      <trkpt lat="43.39681" lon="2.60025">
        <ele>657.68</ele>
        <time>2012-03-26T15:29:02Z</time>
      </trkpt>
      <trkpt lat="43.39669" lon="2.60018">
        <ele>654.8</ele>
        <time>2012-03-26T15:29:15Z</time>
      </trkpt>
      <trkpt lat="43.39665" lon="2.60013">
        <ele>654.8</ele>
        <time>2012-03-26T15:29:27Z</time>
      </trkpt>
      <trkpt lat="43.3966" lon="2.60008">
        <ele>653.83</ele>
        <time>2012-03-26T15:29:42Z</time>
      </trkpt>
      <trkpt lat="43.39645" lon="2.60006">
        <ele>651.91</ele>
        <time>2012-03-26T15:29:52Z</time>
      </trkpt>
      <trkpt lat="43.39639" lon="2.60001">
        <ele>650.95</ele>
        <time>2012-03-26T15:30:01Z</time>
      </trkpt>
      <trkpt lat="43.39632" lon="2.59994">
        <ele>649.51</ele>
        <time>2012-03-26T15:30:09Z</time>
      </trkpt>
      <trkpt lat="43.39625" lon="2.59981">
        <ele>647.59</ele>
        <time>2012-03-26T15:30:19Z</time>
      </trkpt>
      <trkpt lat="43.39623" lon="2.59978">
        <ele>647.59</ele>
        <time>2012-03-26T15:30:21Z</time>
      </trkpt>
      <trkpt lat="43.3962" lon="2.59974">
        <ele>646.14</ele>
        <time>2012-03-26T15:30:25Z</time>
      </trkpt>
      <trkpt lat="43.39609" lon="2.5997">
        <ele>645.18</ele>
        <time>2012-03-26T15:30:37Z</time>
      </trkpt>
      <trkpt lat="43.39608" lon="2.59969">
        <ele>645.66</ele>
        <time>2012-03-26T15:30:38Z</time>
      </trkpt>
      <trkpt lat="43.39606" lon="2.59965">
        <ele>645.18</ele>
        <time>2012-03-26T15:30:41Z</time>
      </trkpt>
      <trkpt lat="43.39605" lon="2.5996">
        <ele>644.22</ele>
        <time>2012-03-26T15:30:44Z</time>
      </trkpt>
      <trkpt lat="43.39603" lon="2.59956">
        <ele>643.74</ele>
        <time>2012-03-26T15:30:47Z</time>
      </trkpt>
      <trkpt lat="43.396" lon="2.59947">
        <ele>642.78</ele>
        <time>2012-03-26T15:30:54Z</time>
      </trkpt>
      <trkpt lat="43.396" lon="2.59942">
        <ele>642.78</ele>
        <time>2012-03-26T15:30:56Z</time>
      </trkpt>
      <trkpt lat="43.39599" lon="2.59938">
        <ele>642.3</ele>
        <time>2012-03-26T15:30:58Z</time>
      </trkpt>
      <trkpt lat="43.39599" lon="2.59933">
        <ele>641.82</ele>
        <time>2012-03-26T15:31:01Z</time>
      </trkpt>
      <trkpt lat="43.39597" lon="2.59927">
        <ele>640.86</ele>
        <time>2012-03-26T15:31:05Z</time>
      </trkpt>
      <trkpt lat="43.39595" lon="2.59921">
        <ele>640.38</ele>
        <time>2012-03-26T15:31:10Z</time>
      </trkpt>
      <trkpt lat="43.39592" lon="2.59915">
        <ele>639.41</ele>
        <time>2012-03-26T15:31:17Z</time>
      </trkpt>
      <trkpt lat="43.39586" lon="2.599">
        <ele>638.45</ele>
        <time>2012-03-26T15:31:31Z</time>
      </trkpt>
      <trkpt lat="43.39584" lon="2.59895">
        <ele>638.45</ele>
        <time>2012-03-26T15:31:34Z</time>
      </trkpt>
      <trkpt lat="43.39579" lon="2.59889">
        <ele>636.53</ele>
        <time>2012-03-26T15:31:40Z</time>
      </trkpt>
      <trkpt lat="43.39579" lon="2.59883">
        <ele>636.53</ele>
        <time>2012-03-26T15:31:44Z</time>
      </trkpt>
      <trkpt lat="43.39576" lon="2.59878">
        <ele>636.53</ele>
        <time>2012-03-26T15:31:48Z</time>
      </trkpt>
      <trkpt lat="43.39573" lon="2.59872">
        <ele>635.57</ele>
        <time>2012-03-26T15:31:52Z</time>
      </trkpt>
      <trkpt lat="43.39566" lon="2.59867">
        <ele>635.09</ele>
        <time>2012-03-26T15:31:57Z</time>
      </trkpt>
      <trkpt lat="43.39556" lon="2.59857">
        <ele>633.65</ele>
        <time>2012-03-26T15:32:07Z</time>
      </trkpt>
      <trkpt lat="43.39542" lon="2.59845">
        <ele>631.24</ele>
        <time>2012-03-26T15:32:21Z</time>
      </trkpt>
      <trkpt lat="43.3953" lon="2.59835">
        <ele>629.8</ele>
        <time>2012-03-26T15:32:34Z</time>
      </trkpt>
      <trkpt lat="43.3953" lon="2.59835">
        <ele>629.8</ele>
        <time>2012-03-26T15:32:45Z</time>
      </trkpt>
      <trkpt lat="43.39528" lon="2.59835">
        <ele>629.8</ele>
        <time>2012-03-26T15:32:47Z</time>
      </trkpt>
      <trkpt lat="43.39525" lon="2.59829">
        <ele>629.32</ele>
        <time>2012-03-26T15:32:54Z</time>
      </trkpt>
      <trkpt lat="43.39524" lon="2.59827">
        <ele>629.32</ele>
        <time>2012-03-26T15:33:07Z</time>
      </trkpt>
      <trkpt lat="43.39521" lon="2.59826">
        <ele>628.36</ele>
        <time>2012-03-26T15:33:21Z</time>
      </trkpt>
      <trkpt lat="43.39513" lon="2.59823">
        <ele>627.88</ele>
        <time>2012-03-26T15:33:27Z</time>
      </trkpt>
      <trkpt lat="43.39498" lon="2.59819">
        <ele>626.44</ele>
        <time>2012-03-26T15:33:40Z</time>
      </trkpt>
      <trkpt lat="43.39497" lon="2.59819">
        <ele>625.96</ele>
        <time>2012-03-26T15:33:41Z</time>
      </trkpt>
      <trkpt lat="43.39483" lon="2.59815">
        <ele>623.55</ele>
        <time>2012-03-26T15:33:53Z</time>
      </trkpt>
      <trkpt lat="43.3947" lon="2.59811">
        <ele>623.07</ele>
        <time>2012-03-26T15:34:05Z</time>
      </trkpt>
      <trkpt lat="43.39466" lon="2.59812">
        <ele>622.11</ele>
        <time>2012-03-26T15:34:13Z</time>
      </trkpt>
      <trkpt lat="43.39456" lon="2.59808">
        <ele>621.63</ele>
        <time>2012-03-26T15:34:26Z</time>
      </trkpt>
      <trkpt lat="43.39449" lon="2.59804">
        <ele>620.67</ele>
        <time>2012-03-26T15:34:34Z</time>
      </trkpt>
      <trkpt lat="43.39447" lon="2.598">
        <ele>620.67</ele>
        <time>2012-03-26T15:34:46Z</time>
      </trkpt>
      <trkpt lat="43.39447" lon="2.59799">
        <ele>620.67</ele>
        <time>2012-03-26T15:34:49Z</time>
      </trkpt>
      <trkpt lat="43.39445" lon="2.59801">
        <ele>620.19</ele>
        <time>2012-03-26T15:34:52Z</time>
      </trkpt>
      <trkpt lat="43.39443" lon="2.59806">
        <ele>620.67</ele>
        <time>2012-03-26T15:35:00Z</time>
      </trkpt>
      <trkpt lat="43.39441" lon="2.5981">
        <ele>620.19</ele>
        <time>2012-03-26T15:35:11Z</time>
      </trkpt>
      <trkpt lat="43.3944" lon="2.5981">
        <ele>620.67</ele>
        <time>2012-03-26T15:35:26Z</time>
      </trkpt>
      <trkpt lat="43.39442" lon="2.59807">
        <ele>620.67</ele>
        <time>2012-03-26T15:35:40Z</time>
      </trkpt>
      <trkpt lat="43.39444" lon="2.59805">
        <ele>620.67</ele>
        <time>2012-03-26T15:35:43Z</time>
      </trkpt>
      <trkpt lat="43.39457" lon="2.59806">
        <ele>620.67</ele>
        <time>2012-03-26T15:35:55Z</time>
      </trkpt>
      <trkpt lat="43.39461" lon="2.59804">
        <ele>621.63</ele>
        <time>2012-03-26T15:36:04Z</time>
      </trkpt>
      <trkpt lat="43.39448" lon="2.59806">
        <ele>621.15</ele>
        <time>2012-03-26T15:36:15Z</time>
      </trkpt>
      <trkpt lat="43.39446" lon="2.59805">
        <ele>621.15</ele>
        <time>2012-03-26T15:36:27Z</time>
      </trkpt>
      <trkpt lat="43.39446" lon="2.59805">
        <ele>621.15</ele>
        <time>2012-03-26T15:36:47Z</time>
      </trkpt>
      <trkpt lat="43.39447" lon="2.59805">
        <ele>620.19</ele>
        <time>2012-03-26T15:37:04Z</time>
      </trkpt>
      <trkpt lat="43.39447" lon="2.59805">
        <ele>620.19</ele>
        <time>2012-03-26T15:37:30Z</time>
      </trkpt>
      <trkpt lat="43.39447" lon="2.59805">
        <ele>620.67</ele>
        <time>2012-03-26T15:37:58Z</time>
      </trkpt>
      <trkpt lat="43.39447" lon="2.59804">
        <ele>620.67</ele>
        <time>2012-03-26T15:38:22Z</time>
      </trkpt>
      <trkpt lat="43.39448" lon="2.59804">
        <ele>620.67</ele>
        <time>2012-03-26T15:38:43Z</time>
      </trkpt>
      <trkpt lat="43.39448" lon="2.59804">
        <ele>615.38</ele>
        <time>2012-03-26T15:38:50Z</time>
      </trkpt>
      <trkpt lat="43.39448" lon="2.59804">
        <ele>621.15</ele>
        <time>2012-03-26T15:38:51Z</time>
      </trkpt>
      <trkpt lat="43.39448" lon="2.59804">
        <ele>621.15</ele>
        <time>2012-03-26T15:39:18Z</time>
      </trkpt>
      <trkpt lat="43.39448" lon="2.59804">
        <ele>624.03</ele>
        <time>2012-03-26T15:39:22Z</time>
      </trkpt>
      <trkpt lat="43.39448" lon="2.59804">
        <ele>620.67</ele>
        <time>2012-03-26T15:39:24Z</time>
      </trkpt>
      <trkpt lat="43.39448" lon="2.59804">
        <ele>614.9</ele>
        <time>2012-03-26T15:39:35Z</time>
      </trkpt>
      <trkpt lat="43.39448" lon="2.59804">
        <ele>618.26</ele>
        <time>2012-03-26T15:39:36Z</time>
      </trkpt>
      <trkpt lat="43.39448" lon="2.59804">
        <ele>622.59</ele>
        <time>2012-03-26T15:39:37Z</time>
      </trkpt>
      <trkpt lat="43.39448" lon="2.59804">
        <ele>621.15</ele>
        <time>2012-03-26T15:39:38Z</time>
      </trkpt>
      <trkpt lat="43.39448" lon="2.59804">
        <ele>625.96</ele>
        <time>2012-03-26T15:39:40Z</time>
      </trkpt>
      <trkpt lat="43.39448" lon="2.59804">
        <ele>622.11</ele>
        <time>2012-03-26T15:39:41Z</time>
      </trkpt>
      <trkpt lat="43.39448" lon="2.59804">
        <ele>620.67</ele>
        <time>2012-03-26T15:39:42Z</time>
      </trkpt>
      <trkpt lat="43.39446" lon="2.59808">
        <ele>623.55</ele>
        <time>2012-03-26T15:39:58Z</time>
      </trkpt>
      <trkpt lat="43.39446" lon="2.59808">
        <ele>614.9</ele>
        <time>2012-03-26T15:40:01Z</time>
      </trkpt>
      <trkpt lat="43.39446" lon="2.59808">
        <ele>617.78</ele>
        <time>2012-03-26T15:40:02Z</time>
      </trkpt>
      <trkpt lat="43.39445" lon="2.59808">
        <ele>622.11</ele>
        <time>2012-03-26T15:40:03Z</time>
      </trkpt>
      <trkpt lat="43.39444" lon="2.59808">
        <ele>621.15</ele>
        <time>2012-03-26T15:40:04Z</time>
      </trkpt>
      <trkpt lat="43.39443" lon="2.5981">
        <ele>621.15</ele>
        <time>2012-03-26T15:40:07Z</time>
      </trkpt>
      <trkpt lat="43.39439" lon="2.59816">
        <ele>620.67</ele>
        <time>2012-03-26T15:40:21Z</time>
      </trkpt>
      <trkpt lat="43.39436" lon="2.59824">
        <ele>619.71</ele>
        <time>2012-03-26T15:40:29Z</time>
      </trkpt>
      <trkpt lat="43.39432" lon="2.5983">
        <ele>621.15</ele>
        <time>2012-03-26T15:40:38Z</time>
      </trkpt>
      <trkpt lat="43.39427" lon="2.59833">
        <ele>620.67</ele>
        <time>2012-03-26T15:40:44Z</time>
      </trkpt>
      <trkpt lat="43.39424" lon="2.59834">
        <ele>620.19</ele>
        <time>2012-03-26T15:40:57Z</time>
      </trkpt>
      <trkpt lat="43.39423" lon="2.59837">
        <ele>620.67</ele>
        <time>2012-03-26T15:41:06Z</time>
      </trkpt>
      <trkpt lat="43.39421" lon="2.59841">
        <ele>621.15</ele>
        <time>2012-03-26T15:41:11Z</time>
      </trkpt>
      <trkpt lat="43.39416" lon="2.59848">
        <ele>620.67</ele>
        <time>2012-03-26T15:41:25Z</time>
      </trkpt>
      <trkpt lat="43.39415" lon="2.59853">
        <ele>621.15</ele>
        <time>2012-03-26T15:41:29Z</time>
      </trkpt>
      <trkpt lat="43.39413" lon="2.59858">
        <ele>621.15</ele>
        <time>2012-03-26T15:41:33Z</time>
      </trkpt>
      <trkpt lat="43.39407" lon="2.59865">
        <ele>621.15</ele>
        <time>2012-03-26T15:41:41Z</time>
      </trkpt>
      <trkpt lat="43.39394" lon="2.59874">
        <ele>619.23</ele>
        <time>2012-03-26T15:41:56Z</time>
      </trkpt>
      <trkpt lat="43.39389" lon="2.59874">
        <ele>618.75</ele>
        <time>2012-03-26T15:42:01Z</time>
      </trkpt>
      <trkpt lat="43.39384" lon="2.59874">
        <ele>618.75</ele>
        <time>2012-03-26T15:42:05Z</time>
      </trkpt>
      <trkpt lat="43.39367" lon="2.59875">
        <ele>617.78</ele>
        <time>2012-03-26T15:42:18Z</time>
      </trkpt>
      <trkpt lat="43.39366" lon="2.59875">
        <ele>617.3</ele>
        <time>2012-03-26T15:42:19Z</time>
      </trkpt>
      <trkpt lat="43.39359" lon="2.59872">
        <ele>616.34</ele>
        <time>2012-03-26T15:42:31Z</time>
      </trkpt>
      <trkpt lat="43.3934" lon="2.59868">
        <ele>615.38</ele>
        <time>2012-03-26T15:42:45Z</time>
      </trkpt>
      <trkpt lat="43.39339" lon="2.59869">
        <ele>614.9</ele>
        <time>2012-03-26T15:42:46Z</time>
      </trkpt>
      <trkpt lat="43.39329" lon="2.59868">
        <ele>613.94</ele>
        <time>2012-03-26T15:42:56Z</time>
      </trkpt>
      <trkpt lat="43.39314" lon="2.59864">
        <ele>612.02</ele>
        <time>2012-03-26T15:43:09Z</time>
      </trkpt>
      <trkpt lat="43.39301" lon="2.59863">
        <ele>611.54</ele>
        <time>2012-03-26T15:43:19Z</time>
      </trkpt>
      <trkpt lat="43.39297" lon="2.59863">
        <ele>610.57</ele>
        <time>2012-03-26T15:43:21Z</time>
      </trkpt>
      <trkpt lat="43.39291" lon="2.59866">
        <ele>611.06</ele>
        <time>2012-03-26T15:43:25Z</time>
      </trkpt>
      <trkpt lat="43.39283" lon="2.59867">
        <ele>610.09</ele>
        <time>2012-03-26T15:43:32Z</time>
      </trkpt>
      <trkpt lat="43.39278" lon="2.59869">
        <ele>609.13</ele>
        <time>2012-03-26T15:43:38Z</time>
      </trkpt>
      <trkpt lat="43.39275" lon="2.59871">
        <ele>609.61</ele>
        <time>2012-03-26T15:43:41Z</time>
      </trkpt>
      <trkpt lat="43.39273" lon="2.59873">
        <ele>609.13</ele>
        <time>2012-03-26T15:43:44Z</time>
      </trkpt>
      <trkpt lat="43.39263" lon="2.59878">
        <ele>608.17</ele>
        <time>2012-03-26T15:43:52Z</time>
      </trkpt>
      <trkpt lat="43.39262" lon="2.59878">
        <ele>608.17</ele>
        <time>2012-03-26T15:43:54Z</time>
      </trkpt>
      <trkpt lat="43.39259" lon="2.59879">
        <ele>609.13</ele>
        <time>2012-03-26T15:43:56Z</time>
      </trkpt>
      <trkpt lat="43.39253" lon="2.59882">
        <ele>607.69</ele>
        <time>2012-03-26T15:44:02Z</time>
      </trkpt>
      <trkpt lat="43.39236" lon="2.5989">
        <ele>606.25</ele>
        <time>2012-03-26T15:44:16Z</time>
      </trkpt>
      <trkpt lat="43.39217" lon="2.5989">
        <ele>605.77</ele>
        <time>2012-03-26T15:44:30Z</time>
      </trkpt>
      <trkpt lat="43.39215" lon="2.59889">
        <ele>605.29</ele>
        <time>2012-03-26T15:44:33Z</time>
      </trkpt>
      <trkpt lat="43.39207" lon="2.59888">
        <ele>604.33</ele>
        <time>2012-03-26T15:44:39Z</time>
      </trkpt>
      <trkpt lat="43.39204" lon="2.59889">
        <ele>603.85</ele>
        <time>2012-03-26T15:44:42Z</time>
      </trkpt>
      <trkpt lat="43.39186" lon="2.5989">
        <ele>602.4</ele>
        <time>2012-03-26T15:44:56Z</time>
      </trkpt>
      <trkpt lat="43.39174" lon="2.59897">
        <ele>600.96</ele>
        <time>2012-03-26T15:45:07Z</time>
      </trkpt>
      <trkpt lat="43.39167" lon="2.59901">
        <ele>600.48</ele>
        <time>2012-03-26T15:45:13Z</time>
      </trkpt>
      <trkpt lat="43.3916" lon="2.59904">
        <ele>600</ele>
        <time>2012-03-26T15:45:20Z</time>
      </trkpt>
      <trkpt lat="43.39153" lon="2.59912">
        <ele>599.04</ele>
        <time>2012-03-26T15:45:28Z</time>
      </trkpt>
      <trkpt lat="43.39146" lon="2.59919">
        <ele>598.08</ele>
        <time>2012-03-26T15:45:37Z</time>
      </trkpt>
      <trkpt lat="43.3914" lon="2.59919">
        <ele>597.12</ele>
        <time>2012-03-26T15:45:50Z</time>
      </trkpt>
      <trkpt lat="43.3914" lon="2.59916">
        <ele>596.64</ele>
        <time>2012-03-26T15:45:58Z</time>
      </trkpt>
      <trkpt lat="43.39143" lon="2.59907">
        <ele>597.12</ele>
        <time>2012-03-26T15:46:06Z</time>
      </trkpt>
      <trkpt lat="43.39143" lon="2.59911">
        <ele>597.12</ele>
        <time>2012-03-26T15:46:18Z</time>
      </trkpt>
      <trkpt lat="43.39144" lon="2.59909">
        <ele>597.12</ele>
        <time>2012-03-26T15:46:22Z</time>
      </trkpt>
      <trkpt lat="43.39148" lon="2.59893">
        <ele>595.67</ele>
        <time>2012-03-26T15:46:33Z</time>
      </trkpt>
      <trkpt lat="43.39152" lon="2.59879">
        <ele>595.67</ele>
        <time>2012-03-26T15:46:43Z</time>
      </trkpt>
      <trkpt lat="43.39157" lon="2.5987">
        <ele>595.19</ele>
        <time>2012-03-26T15:46:56Z</time>
      </trkpt>
      <trkpt lat="43.39159" lon="2.59868">
        <ele>595.67</ele>
        <time>2012-03-26T15:47:06Z</time>
      </trkpt>
      <trkpt lat="43.39166" lon="2.59862">
        <ele>595.19</ele>
        <time>2012-03-26T15:47:13Z</time>
      </trkpt>
      <trkpt lat="43.39181" lon="2.59853">
        <ele>594.71</ele>
        <time>2012-03-26T15:47:28Z</time>
      </trkpt>
      <trkpt lat="43.39181" lon="2.59853">
        <ele>594.71</ele>
        <time>2012-03-26T15:47:30Z</time>
      </trkpt>
      <trkpt lat="43.39178" lon="2.59856">
        <ele>595.19</ele>
        <time>2012-03-26T15:47:47Z</time>
      </trkpt>
      <trkpt lat="43.39178" lon="2.59857">
        <ele>595.19</ele>
        <time>2012-03-26T15:48:07Z</time>
      </trkpt>
      <trkpt lat="43.39178" lon="2.59857">
        <ele>594.71</ele>
        <time>2012-03-26T15:48:09Z</time>
      </trkpt>
      <trkpt lat="43.39179" lon="2.59854">
        <ele>594.71</ele>
        <time>2012-03-26T15:48:13Z</time>
      </trkpt>
      <trkpt lat="43.39186" lon="2.59841">
        <ele>594.71</ele>
        <time>2012-03-26T15:48:24Z</time>
      </trkpt>
      <trkpt lat="43.39189" lon="2.59839">
        <ele>595.19</ele>
        <time>2012-03-26T15:48:27Z</time>
      </trkpt>
      <trkpt lat="43.39198" lon="2.59829">
        <ele>596.64</ele>
        <time>2012-03-26T15:48:40Z</time>
      </trkpt>
      <trkpt lat="43.39198" lon="2.59825">
        <ele>597.12</ele>
        <time>2012-03-26T15:48:46Z</time>
      </trkpt>
      <trkpt lat="43.39195" lon="2.59819">
        <ele>598.56</ele>
        <time>2012-03-26T15:48:53Z</time>
      </trkpt>
      <trkpt lat="43.39191" lon="2.59818">
        <ele>600.48</ele>
        <time>2012-03-26T15:49:05Z</time>
      </trkpt>
      <trkpt lat="43.39187" lon="2.59824">
        <ele>601.44</ele>
        <time>2012-03-26T15:49:12Z</time>
      </trkpt>
      <trkpt lat="43.39184" lon="2.59828">
        <ele>601.92</ele>
        <time>2012-03-26T15:49:16Z</time>
      </trkpt>
      <trkpt lat="43.39173" lon="2.59832">
        <ele>602.88</ele>
        <time>2012-03-26T15:49:27Z</time>
      </trkpt>
      <trkpt lat="43.39165" lon="2.59835">
        <ele>603.36</ele>
        <time>2012-03-26T15:49:34Z</time>
      </trkpt>
      <trkpt lat="43.3916" lon="2.59837">
        <ele>603.85</ele>
        <time>2012-03-26T15:49:37Z</time>
      </trkpt>
      <trkpt lat="43.39156" lon="2.59839">
        <ele>603.85</ele>
        <time>2012-03-26T15:49:40Z</time>
      </trkpt>
      <trkpt lat="43.39152" lon="2.59841">
        <ele>604.33</ele>
        <time>2012-03-26T15:49:44Z</time>
      </trkpt>
      <trkpt lat="43.39142" lon="2.5985">
        <ele>604.33</ele>
        <time>2012-03-26T15:49:54Z</time>
      </trkpt>
      <trkpt lat="43.39128" lon="2.59857">
        <ele>604.33</ele>
        <time>2012-03-26T15:50:06Z</time>
      </trkpt>
      <trkpt lat="43.39114" lon="2.5986">
        <ele>605.29</ele>
        <time>2012-03-26T15:50:18Z</time>
      </trkpt>
      <trkpt lat="43.39107" lon="2.59863">
        <ele>605.77</ele>
        <time>2012-03-26T15:50:24Z</time>
      </trkpt>
      <trkpt lat="43.39102" lon="2.59864">
        <ele>606.25</ele>
        <time>2012-03-26T15:50:28Z</time>
      </trkpt>
      <trkpt lat="43.39088" lon="2.59863">
        <ele>606.73</ele>
        <time>2012-03-26T15:50:40Z</time>
      </trkpt>
      <trkpt lat="43.39078" lon="2.59868">
        <ele>607.21</ele>
        <time>2012-03-26T15:50:49Z</time>
      </trkpt>
      <trkpt lat="43.39072" lon="2.59869">
        <ele>607.69</ele>
        <time>2012-03-26T15:50:55Z</time>
      </trkpt>
      <trkpt lat="43.39067" lon="2.59871">
        <ele>607.21</ele>
        <time>2012-03-26T15:50:59Z</time>
      </trkpt>
      <trkpt lat="43.39051" lon="2.59868">
        <ele>607.69</ele>
        <time>2012-03-26T15:51:12Z</time>
      </trkpt>
      <trkpt lat="43.39048" lon="2.59869">
        <ele>607.69</ele>
        <time>2012-03-26T15:51:15Z</time>
      </trkpt>
      <trkpt lat="43.39038" lon="2.59866">
        <ele>607.69</ele>
        <time>2012-03-26T15:51:23Z</time>
      </trkpt>
      <trkpt lat="43.39032" lon="2.59865">
        <ele>607.21</ele>
        <time>2012-03-26T15:51:28Z</time>
      </trkpt>
      <trkpt lat="43.39026" lon="2.59864">
        <ele>608.17</ele>
        <time>2012-03-26T15:51:33Z</time>
      </trkpt>
      <trkpt lat="43.39014" lon="2.59864">
        <ele>608.17</ele>
        <time>2012-03-26T15:51:42Z</time>
      </trkpt>
      <trkpt lat="43.39004" lon="2.59867">
        <ele>608.17</ele>
        <time>2012-03-26T15:51:52Z</time>
      </trkpt>
      <trkpt lat="43.38995" lon="2.59871">
        <ele>608.65</ele>
        <time>2012-03-26T15:51:59Z</time>
      </trkpt>
      <trkpt lat="43.38989" lon="2.59874">
        <ele>609.13</ele>
        <time>2012-03-26T15:52:04Z</time>
      </trkpt>
      <trkpt lat="43.38986" lon="2.59875">
        <ele>609.61</ele>
        <time>2012-03-26T15:52:07Z</time>
      </trkpt>
      <trkpt lat="43.38983" lon="2.59875">
        <ele>609.61</ele>
        <time>2012-03-26T15:52:09Z</time>
      </trkpt>
      <trkpt lat="43.38981" lon="2.59876">
        <ele>609.13</ele>
        <time>2012-03-26T15:52:15Z</time>
      </trkpt>
      <trkpt lat="43.38979" lon="2.59877">
        <ele>609.61</ele>
        <time>2012-03-26T15:52:17Z</time>
      </trkpt>
      <trkpt lat="43.38965" lon="2.59875">
        <ele>611.06</ele>
        <time>2012-03-26T15:52:27Z</time>
      </trkpt>
      <trkpt lat="43.38949" lon="2.59868">
        <ele>612.02</ele>
        <time>2012-03-26T15:52:39Z</time>
      </trkpt>
      <trkpt lat="43.38936" lon="2.59863">
        <ele>613.46</ele>
        <time>2012-03-26T15:52:50Z</time>
      </trkpt>
      <trkpt lat="43.38935" lon="2.59864">
        <ele>614.42</ele>
        <time>2012-03-26T15:52:58Z</time>
      </trkpt>
      <trkpt lat="43.38934" lon="2.59867">
        <ele>614.42</ele>
        <time>2012-03-26T15:53:00Z</time>
      </trkpt>
      <trkpt lat="43.3893" lon="2.59874">
        <ele>615.38</ele>
        <time>2012-03-26T15:53:07Z</time>
      </trkpt>
      <trkpt lat="43.38927" lon="2.59877">
        <ele>615.86</ele>
        <time>2012-03-26T15:53:10Z</time>
      </trkpt>
      <trkpt lat="43.38919" lon="2.59893">
        <ele>616.34</ele>
        <time>2012-03-26T15:53:22Z</time>
      </trkpt>
      <trkpt lat="43.38916" lon="2.59903">
        <ele>617.3</ele>
        <time>2012-03-26T15:53:29Z</time>
      </trkpt>
      <trkpt lat="43.38912" lon="2.59905">
        <ele>617.3</ele>
        <time>2012-03-26T15:53:33Z</time>
      </trkpt>
      <trkpt lat="43.38907" lon="2.59911">
        <ele>617.78</ele>
        <time>2012-03-26T15:53:37Z</time>
      </trkpt>
      <trkpt lat="43.38897" lon="2.59922">
        <ele>619.71</ele>
        <time>2012-03-26T15:53:47Z</time>
      </trkpt>
      <trkpt lat="43.3889" lon="2.59937">
        <ele>621.15</ele>
        <time>2012-03-26T15:54:00Z</time>
      </trkpt>
      <trkpt lat="43.38884" lon="2.59943">
        <ele>622.59</ele>
        <time>2012-03-26T15:54:07Z</time>
      </trkpt>
      <trkpt lat="43.38879" lon="2.59946">
        <ele>622.59</ele>
        <time>2012-03-26T15:54:10Z</time>
      </trkpt>
      <trkpt lat="43.38873" lon="2.59953">
        <ele>624.03</ele>
        <time>2012-03-26T15:54:16Z</time>
      </trkpt>
      <trkpt lat="43.38865" lon="2.59964">
        <ele>625.96</ele>
        <time>2012-03-26T15:54:25Z</time>
      </trkpt>
      <trkpt lat="43.3885" lon="2.59977">
        <ele>627.4</ele>
        <time>2012-03-26T15:54:39Z</time>
      </trkpt>
      <trkpt lat="43.38837" lon="2.59981">
        <ele>628.84</ele>
        <time>2012-03-26T15:54:50Z</time>
      </trkpt>
      <trkpt lat="43.38823" lon="2.59988">
        <ele>629.8</ele>
        <time>2012-03-26T15:55:02Z</time>
      </trkpt>
      <trkpt lat="43.38822" lon="2.59988">
        <ele>630.76</ele>
        <time>2012-03-26T15:55:04Z</time>
      </trkpt>
      <trkpt lat="43.38811" lon="2.60002">
        <ele>632.2</ele>
        <time>2012-03-26T15:55:16Z</time>
      </trkpt>
      <trkpt lat="43.38801" lon="2.60017">
        <ele>633.65</ele>
        <time>2012-03-26T15:55:28Z</time>
      </trkpt>
      <trkpt lat="43.38801" lon="2.60018">
        <ele>634.13</ele>
        <time>2012-03-26T15:55:29Z</time>
      </trkpt>
      <trkpt lat="43.38797" lon="2.60021">
        <ele>634.61</ele>
        <time>2012-03-26T15:55:32Z</time>
      </trkpt>
      <trkpt lat="43.38785" lon="2.60035">
        <ele>636.05</ele>
        <time>2012-03-26T15:55:44Z</time>
      </trkpt>
      <trkpt lat="43.38773" lon="2.60049">
        <ele>637.97</ele>
        <time>2012-03-26T15:55:58Z</time>
      </trkpt>
      <trkpt lat="43.38769" lon="2.60057">
        <ele>638.45</ele>
        <time>2012-03-26T15:56:02Z</time>
      </trkpt>
      <trkpt lat="43.38756" lon="2.60064">
        <ele>639.41</ele>
        <time>2012-03-26T15:56:09Z</time>
      </trkpt>
      <trkpt lat="43.38746" lon="2.60063">
        <ele>640.38</ele>
        <time>2012-03-26T15:56:20Z</time>
      </trkpt>
      <trkpt lat="43.38735" lon="2.60063">
        <ele>640.38</ele>
        <time>2012-03-26T15:56:30Z</time>
      </trkpt>
      <trkpt lat="43.38736" lon="2.60067">
        <ele>640.86</ele>
        <time>2012-03-26T15:56:40Z</time>
      </trkpt>
      <trkpt lat="43.38735" lon="2.60066">
        <ele>641.82</ele>
        <time>2012-03-26T15:56:45Z</time>
      </trkpt>
      <trkpt lat="43.3872" lon="2.60067">
        <ele>639.89</ele>
        <time>2012-03-26T15:56:58Z</time>
      </trkpt>
      <trkpt lat="43.38719" lon="2.60066">
        <ele>639.89</ele>
        <time>2012-03-26T15:56:59Z</time>
      </trkpt>
      <trkpt lat="43.38713" lon="2.60061">
        <ele>638.93</ele>
        <time>2012-03-26T15:57:05Z</time>
      </trkpt>
      <trkpt lat="43.38712" lon="2.6006">
        <ele>639.41</ele>
        <time>2012-03-26T15:57:18Z</time>
      </trkpt>
      <trkpt lat="43.38712" lon="2.6006">
        <ele>638.93</ele>
        <time>2012-03-26T15:57:36Z</time>
      </trkpt>
      <trkpt lat="43.38712" lon="2.6006">
        <ele>643.74</ele>
        <time>2012-03-26T15:57:42Z</time>
      </trkpt>
      <trkpt lat="43.38712" lon="2.6006">
        <ele>639.41</ele>
        <time>2012-03-26T15:57:43Z</time>
      </trkpt>
      <trkpt lat="43.38712" lon="2.6006">
        <ele>639.41</ele>
        <time>2012-03-26T15:57:44Z</time>
      </trkpt>
      <trkpt lat="43.38712" lon="2.6006">
        <ele>635.57</ele>
        <time>2012-03-26T15:57:49Z</time>
      </trkpt>
      <trkpt lat="43.38712" lon="2.6006">
        <ele>639.41</ele>
        <time>2012-03-26T15:57:50Z</time>
      </trkpt>
      <trkpt lat="43.38712" lon="2.6006">
        <ele>636.05</ele>
        <time>2012-03-26T15:57:55Z</time>
      </trkpt>
      <trkpt lat="43.38712" lon="2.6006">
        <ele>639.41</ele>
        <time>2012-03-26T15:57:56Z</time>
      </trkpt>
      <trkpt lat="43.38712" lon="2.6006">
        <ele>629.8</ele>
        <time>2012-03-26T15:57:58Z</time>
      </trkpt>
      <trkpt lat="43.38712" lon="2.6006">
        <ele>640.86</ele>
        <time>2012-03-26T15:57:59Z</time>
      </trkpt>
      <trkpt lat="43.38712" lon="2.6006">
        <ele>637.01</ele>
        <time>2012-03-26T15:58:01Z</time>
      </trkpt>
      <trkpt lat="43.38712" lon="2.6006">
        <ele>643.26</ele>
        <time>2012-03-26T15:58:02Z</time>
      </trkpt>
    </trkseg>
  </trk>
</gpx>